.

MPMG - Transparência

Contracheque - Remuneração de todos os servidores ativos - Pós Resolução CNMP 200/2019

Período: 2023 - Setembro

Ordem Matrícula Nome Cargo Efetivo Lotação Rendimentos Descontos Rendimento Líquido Total *14 Data de Referência
Remuneração básica Remuneração eventual ou Temporária Outras Remunerações Temporárias *7 Verbas Indenizatórias *8 Total de Rendimentos Brutos *9 Obrigatórios Legais Outros Descontos Eventuais Total de descontos *13
Remuneração do Cargo Efetivo *1 Outras Verbas Remuneratórias *2 Função de Confiança ou Cargo em Comissão *3 Gratificação Natalina *4 Férias 1/3 Constitucional *5 Abono de Permanência *6 Contribuição Previdenciária *10 Imposto de Renda *11 Retenção por Teto Constitucional *12
1 498900 ABDON MARCIO BARBOSA DA SILVA OFICIAL DO MP ABRE CAMPO - COMARCA; ABRE CAMPO-PJ-01PJ 7.506,70 1.501,34 0,00 0,00 0,00 0,00 0,00 2.105,00 11.113,04 1.222,23 1.204,00 0,00 0,00 2.426,23 8.686,81 30/09/2023
2 177800 ADALBERTO MENEZES FARIA SAMORA OFICIAL DO MP BELO HORIZONTE - COMARCA; DIRET DE PLANOS PROJETOS E PROGRAMAS INST 21.346,53 8.538,61 0,00 0,00 0,00 0,00 49,96 2.105,00 32.040,10 5.597,10 7.764,43 0,00 0,00 13.361,53 18.678,57 30/09/2023
3 306400 ADALBERTO MOREIRA GONCALVES ANALISTA DO MP BELO HORIZONTE - COMARCA; BH-24PJ JUIZO REG BARREIRO-SECRETARIA 22.191,68 6.657,50 0,00 0,00 0,00 0,00 57,22 2.105,00 31.011,40 5.698,02 8.004,12 0,00 0,00 13.702,14 17.309,26 30/09/2023
4 179300 ADENISE AUXILIADORA SOUZA SAD OFICIAL DO MP BARBACENA - COMARCA; BARBACENA-PJ-06PJ 20.533,67 8.213,47 0,00 0,00 0,00 0,00 0,00 2.105,00 30.852,14 4.380,49 5.711,59 0,00 0,00 10.092,08 20.760,06 30/09/2023
5 272200 ADILSON BATISTA ORNELAS OFICIAL DO MP LAVRAS - COMARCA; LAVRAS-PJ-SECRETARIA 7.506,70 2.252,01 0,00 0,00 0,00 0,00 0,00 2.105,00 11.863,71 1.342,34 1.377,40 0,00 0,00 2.719,74 9.143,97 30/09/2023
6 380100 ADILSON GONCALVES DE MELO JUNIOR ANALISTA DO MP ARAXÁ - COMARCA; ARAXA-PJ-05PJ 16.469,17 4.940,75 0,00 0,00 0,00 0,00 0,00 2.105,00 23.514,92 3.637,96 4.835,54 0,00 0,00 8.473,50 15.041,42 30/09/2023
7 148800 ADILSON JANUARIO OFICIAL DO MP BELO HORIZONTE - COMARCA; BH-22PJ PES COM DEF E IDOSOS-SECRETARIA 23.070,31 18.456,25 0,00 0,00 0,00 5.795,34 0,00 2.105,00 49.426,90 5.795,34 9.400,14 3.936,60 0,00 19.132,08 30.294,82 30/09/2023
8 322601 ADMILSON SILVEIRA ANALISTA DO MP SAO JOAO DO PARAISO COMARCA; SAO JOAO DO PARAISO-PJ-UNPJ 12.343,61 2.468,72 0,00 0,00 0,00 0,00 0,00 3.055,00 17.867,33 2.150,92 2.596,93 0,00 0,00 4.747,85 13.119,48 30/09/2023
9 333700 ADRIANA ABRITTA TEIXEIRA OFICIAL DO MP BELO HORIZONTE - COMARCA; DIRET DE PESSOAL DO MINISTERIO PUBLICO - DPMP 12.343,61 3.703,08 0,00 0,00 0,00 0,00 0,00 2.105,00 18.151,69 2.348,42 2.882,06 0,00 0,00 5.230,48 12.921,21 30/09/2023
10 468500 ADRIANA APARECIDA FIRMINO ANALISTA DO MP CARATINGA - COMARCA; CARATINGA-PJ-04PJ 12.343,61 2.468,72 0,00 0,00 0,00 0,00 0,00 2.105,00 16.917,33 2.150,92 2.544,79 0,00 0,00 4.695,71 12.221,62 30/09/2023
11 326100 ADRIANA AUGUSTA AMARAL BELO OFICIAL DO MP BARBACENA - COMARCA; BARBACENA-PJ-05PJ 12.343,61 3.703,08 0,00 0,00 0,00 0,00 0,00 2.105,00 18.151,69 2.348,42 2.777,79 0,00 0,00 5.126,21 13.025,48 30/09/2023
12 605700 ADRIANA COSTA LIRA OFICIAL DO MP BELO HORIZONTE - COMARCA; CAO-EDUCACAO 7.506,70 750,67 4.020,58 0,00 0,00 0,00 0,00 2.105,00 14.382,95 1.102,13 2.188,39 0,00 0,00 3.290,52 11.092,43 30/09/2023
13 541100 ADRIANA CRISTINA DE OLIVEIRA OFICIAL DO MP EXTREMA - COMARCA; EXTREMA-PJ-01PJ 7.506,70 1.501,34 0,00 0,00 0,00 0,00 0,00 2.105,00 11.113,04 1.222,23 1.204,00 0,00 0,00 2.426,23 8.686,81 30/09/2023
14 254800 ADRIANA DAS GRACAS FERNANDES ANALISTA DO MP UBERABA - COMARCA; UBERABA-PJ-07PJ 23.070,31 18.456,25 0,00 0,00 0,00 0,00 0,00 2.105,00 43.631,56 5.795,34 7.806,42 3.936,60 0,00 17.538,36 26.093,20 30/09/2023
15 217400 ADRIANA DE CARVALHO CATAO BRAGA ASSESSOR ADMINISTRATIVO III BELO HORIZONTE - COMARCA; DIV FISCAL ADM CONT TERCEIRIZACAO 0,00 4.343,56 10.858,90 0,00 0,00 0,00 0,00 2.105,00 17.307,46 876,95 3.467,06 0,00 0,00 4.344,01 12.963,45 30/09/2023
16 434600 ADRIANA FERREIRA DA SILVA ANALISTA DO MP BELO HORIZONTE - COMARCA; BH-14PJ DEFESA CONSUMIDOR-GAB 112PJ 17.559,01 3.511,80 0,00 0,00 0,00 0,00 0,00 2.105,00 23.175,81 3.259,81 4.197,89 0,00 0,00 7.457,70 15.718,11 30/09/2023
17 499800 ADRIANA FERREIRA TIAGO OFICIAL DO MP SALINAS - COMARCA; SALINAS-PJ-02PJ 9.699,77 1.939,95 0,00 0,00 0,00 0,00 0,00 3.055,00 14.694,72 1.643,30 1.759,78 0,00 0,00 3.403,08 11.291,64 30/09/2023
18 543400 ADRIANA GUIMARAES NUNES DE PAULA ANALISTA DO MP PATROCÍNIO - COMARCA; PATROCINIO-PJ-01PJ 12.343,61 2.468,72 0,00 0,00 0,00 0,00 0,00 3.055,00 17.867,33 982,16 2.715,54 0,00 0,00 3.697,70 14.169,63 30/09/2023
19 471500 ADRIANA HORTA DE CARVALHO RODRIGUES DE SOUSA ANALISTA DO MP BELO HORIZONTE - COMARCA; GRUPO ESP PROM JUST DEF PROB ADM PAT PUB 12.343,61 2.468,72 0,00 0,00 0,00 0,00 0,00 2.105,00 16.917,33 2.150,92 2.544,79 0,00 0,00 4.695,71 12.221,62 30/09/2023
20 86400 ADRIANA MOREIRA CALDEIRA BRANT OFICIAL DO MP BELO HORIZONTE - COMARCA; BH-21PJ TUTELA FUNDACOES-SECRETARIA 21.346,53 17.077,22 0,00 604,19 0,00 8.443,68 0,00 2.105,00 49.576,62 5.795,34 12.112,04 833,79 0,00 18.741,17 30.835,45 30/09/2023
21 480700 ADRIANA MOREIRA DE AVELLAR CEZILIO OFICIAL DO MP BELO HORIZONTE - COMARCA; BH-12PJ JUIZO CRIMINAL-SECRETARIA 7.506,70 1.501,34 4.020,58 0,00 0,00 0,00 0,00 2.105,00 15.133,62 1.222,23 2.257,52 0,00 0,00 3.479,75 11.653,87 30/09/2023
22 326000 ADRIANA PEREIRA CARNEIRO RESENDE OFICIAL DO MP BELO HORIZONTE - COMARCA; BH-25PJ DEFESA DA EDUCACAO-SECRETARIA 12.343,61 3.703,08 0,00 0,00 0,00 0,00 0,00 2.105,00 18.151,69 2.348,42 2.882,06 0,00 0,00 5.230,48 12.921,21 30/09/2023
23 502200 ADRIANA PETRUCCI DAVINA OFICIAL DO MP PATROCÍNIO - COMARCA; PATROCINIO-PJ-01PJ 10.516,49 2.103,30 0,00 0,00 0,00 0,00 835,69 3.055,00 16.510,48 2.455,41 3.151,95 0,00 0,00 5.607,36 10.903,12 30/09/2023
24 201900 ADRIANA REIS PIMENTA OFICIAL DO MP TEÓFILO OTONI - COMARCA; TEOFILO OTONI-PJ-03PJ 20.533,67 10.266,84 0,00 0,00 0,00 0,00 0,00 2.105,00 32.905,51 4.709,03 6.290,20 0,00 0,00 10.999,23 21.906,28 30/09/2023
25 278700 ADRIANA RODRIGUES PINTO COELHO AMARAL ANALISTA DO MP BELO HORIZONTE - COMARCA; CGMP-DIR ESTAGIO PROBATORIO E ORIENT 23.070,31 6.921,09 0,00 0,00 0,00 0,00 126,17 2.105,00 32.222,57 5.795,34 9.665,75 0,00 0,00 15.461,09 16.761,48 30/09/2023
26 468000 ADRIANA SANTOS DE SANTANA MOREIRA ANALISTA DO MP GOVERNADOR VALADARES - COMARCA; GAECO REGIONAL DE GOVERNADOR VALADARES 12.343,61 4.937,44 0,00 0,00 0,00 0,00 0,00 2.105,00 19.386,05 2.545,92 3.062,93 0,00 0,00 5.608,85 13.777,20 30/09/2023
27 194700 ADRIANA TSUKIDE OFICIAL DO MP UBERABA - COMARCA; COORD REG BACIAS PARANAIBA BAIXO RIO GRANDE 20.533,67 8.213,47 0,00 0,00 0,00 0,00 0,00 2.105,00 30.852,14 4.380,49 5.763,73 0,00 0,00 10.144,22 20.707,92 30/09/2023
28 465500 ADRIANO CASSIANO MATOS ANALISTA DO MP ARAXÁ - COMARCA; ARAXA-PJ-02PJ 12.343,61 2.468,72 0,00 0,00 0,00 0,00 0,00 2.105,00 16.917,33 2.150,92 2.596,93 0,00 0,00 4.747,85 12.169,48 30/09/2023
29 500500 ADRIANO DE ALMEIDA SILVA OFICIAL DO MP UBERABA - COMARCA; UBERABA-PJ-12PJ 10.516,49 2.103,30 0,00 0,00 0,00 0,00 835,69 3.055,00 16.510,48 2.455,41 2.607,45 0,00 0,00 5.062,86 11.447,62 30/09/2023
30 187200 ADRIANO DE FREITAS MARON OFICIAL DO MP PONTE NOVA - COMARCA; PONTE NOVA-PJ-03PJ 17.559,01 15.803,11 0,00 416,39 0,00 8.687,24 0,00 2.105,00 44.570,75 5.118,89 9.455,51 0,00 0,00 14.574,40 29.996,35 30/09/2023
31 477900 ADRIANO FERREIRA DE ALMEIDA OFICIAL DO MP TAIOBEIRAS - COMARCA; TAIOBEIRAS-PJ-UNPJ 10.516,49 3.154,95 0,00 0,00 0,00 0,00 850,29 2.105,00 16.626,73 2.842,10 3.615,68 0,00 0,00 6.457,78 10.168,95 30/09/2023
32 269101 ADRIANO PEREIRA SILVA ANALISTA DO MP UBERABA - COMARCA; UBERABA-PJ-02PJ 12.343,61 3.703,08 0,00 0,00 0,00 0,00 0,00 2.105,00 18.151,69 2.348,42 2.725,65 0,00 0,00 5.074,07 13.077,62 30/09/2023
33 414200 ADRIANO RODRIGUES FERNANDES ANALISTA DO MP CARANDAÍ - COMARCA; CARANDAI-PJ-UNPJ 12.343,61 2.468,72 0,00 0,00 0,00 0,00 0,00 2.105,00 16.917,33 2.150,92 2.440,52 0,00 0,00 4.591,44 12.325,89 30/09/2023
34 536700 ADRIELLE COSTA MARIA MOURAO FIGUEIREDO OFICIAL DO MP SERRO - COMARCA; SERRO-PJ-SECRETARIA 7.506,70 1.501,34 0,00 0,00 0,00 0,00 330,30 6.658,22 15.996,56 1.222,23 1.256,14 0,00 0,00 2.478,37 13.518,19 30/09/2023
35 514300 ADRIENE DAMASCENO BRAGA ANALISTA DO MP ALFENAS - COMARCA; ALFENAS-PJ-03PJ 12.343,61 2.468,72 0,00 0,00 0,00 0,00 0,00 2.105,00 16.917,33 2.150,92 2.596,93 0,00 0,00 4.747,85 12.169,48 30/09/2023
36 254600 ADRIENE DOMINGUES COSTA ANALISTA DO MP BELO HORIZONTE - COMARCA; SUPER DE GESTAO DE PESSOAS-LOTACAO TEMPORARIA 23.070,31 9.228,12 0,00 0,00 0,00 0,00 1.673,89 0,00 33.972,32 5.795,34 10.406,91 0,00 0,00 16.202,25 17.770,07 30/09/2023
37 252001 ADRIENE GOMES BARRETO ANALISTA DO MP BELO HORIZONTE - COMARCA; BH-19PJ SAUDE-SECRETARIA 047PJ 18.720,84 9.360,42 0,00 0,00 0,00 0,00 0,00 2.105,00 30.186,26 4.587,77 6.439,67 0,00 0,00 11.027,44 19.158,82 30/09/2023
38 714800 ADSON GUSTAVO DE OLIVEIRA ASSESSOR PROCURADOR JUSTICA BELO HORIZONTE - COMARCA; GABINETE DE PROCURADOR DE JUSTIÇA - SALA 803 0,00 0,00 8.810,89 0,00 0,00 0,00 0,00 2.105,00 10.915,89 876,95 1.709,37 0,00 0,00 2.586,32 8.329,57 30/09/2023
39 724600 AECIO BRAS SILVA JUNIOR ASSESSOR PROMOTOR JUSTICA BAMBUÍ - COMARCA; BAMBUI-PJ-UNPJ 0,00 0,00 8.810,89 0,00 0,00 0,00 0,00 2.105,00 10.915,89 876,95 1.709,37 0,00 0,00 2.586,32 8.329,57 30/09/2023
40 302500 AGENOR JOSE DA SILVA JUNIOR ANALISTA DO MP JUIZ DE FORA - COMARCA; JUIZ DE FORA-PJ-07PJ 22.191,68 6.657,50 0,00 0,00 0,00 0,00 57,22 3.055,00 31.961,40 5.698,02 7.847,71 0,00 0,00 13.545,73 18.415,67 30/09/2023
41 357500 AILSON WAGNER DE ALENCAR SILVA OFICIAL DO MP BELO HORIZONTE - COMARCA; BH-12PJ JUIZO CRIMINAL-SECRETARIA 14.960,00 5.984,00 0,00 0,00 0,00 0,00 66,46 2.105,00 23.115,46 3.832,10 5.760,16 0,00 0,00 9.592,26 13.523,20 30/09/2023
42 366400 AILTON ALEXSSANDRO ALVES OFICIAL DO MP PARÁ DE MINAS - COMARCA; PARA DE MINAS-PJ-05PJ 12.343,61 4.937,44 0,00 0,00 0,00 0,00 975,31 2.105,00 20.361,36 3.235,18 4.162,32 0,00 0,00 7.397,50 12.963,86 30/09/2023
43 318900 AILTON DE CASTRO RIBEIRO JUNIOR OFICIAL DO MP CANDEIAS - COMARCA; CANDEIAS-PJ-UNPJ 12.343,61 3.703,08 0,00 0,00 0,00 0,00 0,00 2.105,00 18.151,69 2.348,42 2.725,65 0,00 0,00 5.074,07 13.077,62 30/09/2023
44 464400 ALAN MONTEIRO GASPAR ANALISTA DO MP SETE LAGOAS - COMARCA; SETE LAGOAS-PJ-08PJ 12.343,61 2.468,72 0,00 0,00 0,00 0,00 0,00 2.105,00 16.917,33 2.150,92 2.596,93 0,00 0,00 4.747,85 12.169,48 30/09/2023
45 492000 ALANA DE CASTRO FREITAS OFICIAL DO MP BELO HORIZONTE - COMARCA; SECRETARIA DO PROCON-MG 8.003,54 1.600,71 0,00 0,00 0,00 0,00 0,00 2.105,00 11.709,25 1.317,63 1.393,86 0,00 0,00 2.711,49 8.997,76 30/09/2023
46 306700 ALANA MARCIA DE OLIVEIRA OFICIAL DO MP BELO HORIZONTE - COMARCA; DIRETORIA DE ADMINISTRACAO FINANCEIRA 12.343,61 3.703,08 0,00 0,00 0,00 0,00 0,00 2.105,00 18.151,69 2.348,42 2.882,06 0,00 0,00 5.230,48 12.921,21 30/09/2023
47 324500 ALANMAR COUTINHO COSTA OFICIAL DO MP LEOPOLDINA - COMARCA; LEOPOLDINA-PJ-02PJ 12.343,61 3.703,08 0,00 0,00 0,00 0,00 0,00 2.105,00 18.151,69 2.348,42 2.777,79 0,00 0,00 5.126,21 13.025,48 30/09/2023
48 407300 ALBERTO LUIZ SOARES DE OLIVEIRA ANALISTA DO MP BELO HORIZONTE - COMARCA; DIRETORIA DE PROJETOS DE EDIFICACOES 17.559,01 3.511,80 0,00 0,00 0,00 0,00 0,00 2.105,00 23.175,81 3.516,98 4.608,01 0,00 0,00 8.124,99 15.050,82 30/09/2023
49 118200 ALBERTO PEREIRA DA COSTA OFICIAL DO MP DORES DO INDAIÁ - COMARCA; DORES DO INDAIA-PJ-UNPJ 22.191,68 19.972,51 0,00 0,00 0,00 5.795,34 0,00 2.105,00 50.064,53 5.795,34 9.400,14 4.574,23 0,00 19.769,71 30.294,82 30/09/2023
50 282400 ALCILENE MARISE DE ARAUJO ANALISTA DO MP BELO HORIZONTE - COMARCA; BH-23PJ INF-FISC MED SOC FEC 23.070,31 6.921,09 0,00 0,00 0,00 0,00 0,00 2.105,00 32.096,40 5.795,34 8.694,16 0,00 0,00 14.489,50 17.606,90 30/09/2023
51 396400 ALCIONE DE FREITAS E SILVA ANALISTA DO MP BELO HORIZONTE - COMARCA; ASSESS JUR DO CONS SUPERIOR DO MINISTERIO PUB 18.720,84 7.488,34 0,00 0,00 0,00 0,00 1.467,05 2.105,00 29.781,23 5.774,69 8.080,45 0,00 0,00 13.855,14 15.926,09 30/09/2023
52 657400 ALCIONE MARIA FERREIRA ASSESSOR PROCURADOR JUSTICA BELO HORIZONTE - COMARCA; GABINETE DE PROCURADOR DE JUSTIÇA - SALA 610 0,00 0,00 8.810,89 0,00 0,00 0,00 0,00 3.055,00 11.865,89 876,95 1.709,37 0,00 0,00 2.586,32 9.279,57 30/09/2023
53 161600 ALCIONE NERY SOUZA ASSESSOR ADMINISTRATIVO III BELO HORIZONTE - COMARCA; BH-18PJ DIREITOS HUMANOS-SECRETARIA 0,00 5.429,45 10.858,90 0,00 0,00 0,00 0,00 2.105,00 18.393,35 876,95 3.765,68 0,00 0,00 4.642,63 13.750,72 30/09/2023
54 376000 ALDA GOMES LANA OFICIAL DO MP BELO HORIZONTE - COMARCA; BH-18PJ VIOLENCIA DOMESTICA-SECRETARIA 12.343,61 3.703,08 0,00 0,00 0,00 0,00 983,69 2.105,00 19.135,38 3.416,67 4.519,09 0,00 0,00 7.935,76 11.199,62 30/09/2023
55 148000 ALDA MARTINS SIMOES OFICIAL DO MP BELO HORIZONTE - COMARCA; BH-23PJ CIVEL- FISC ENT AB POL 23.070,31 16.149,22 0,00 0,00 0,00 0,00 0,00 2.105,00 41.324,53 5.795,34 9.224,07 1.629,57 0,00 16.648,98 24.675,55 30/09/2023
56 318400 ALDO CREPALDI JUNIOR OFICIAL DO MP BELO HORIZONTE - COMARCA; DIVISAO DE MATERIAIS 12.343,61 3.703,08 0,00 0,00 0,00 0,00 0,00 2.105,00 18.151,69 2.348,42 2.829,93 0,00 0,00 5.178,35 12.973,34 30/09/2023
57 604500 ALENIZE APARECIDA RODRIGUES HENRIQUE OFICIAL DO MP RIO NOVO - COMARCA; RIO NOVO-PJ-SECRETARIA 7.506,70 750,67 0,00 0,00 0,00 0,00 0,00 2.105,00 10.362,37 1.102,13 1.082,73 0,00 0,00 2.184,86 8.177,51 30/09/2023
58 197900 ALESSA DE SOUSA E SILVA OFICIAL DO MP OLIVEIRA - COMARCA; OLIVEIRA-PJ-02PJ 21.346,53 8.538,61 0,00 0,00 0,00 0,00 547,89 8.423,34 38.856,37 5.684,30 7.890,33 0,00 0,00 13.574,63 25.281,74 30/09/2023
59 428500 ALESSANDRA ALVES DINIZ OFICIAL DO MP BELO HORIZONTE - COMARCA; CENTRAL DE APOIO TECNICO-SECRETARIA 10.015,59 5.007,80 0,00 0,00 0,00 0,00 880,87 2.105,00 18.009,26 2.478,08 3.069,26 0,00 0,00 5.547,34 12.461,92 30/09/2023
60 286801 ALESSANDRA BOTELHO JUNQUEIRA DE MENEZES ANALISTA DO MP PASSOS - COMARCA; PASSOS-PJ-05PJ 18.130,77 7.252,31 0,00 0,00 0,00 0,00 1.657,45 3.055,00 30.095,53 5.599,62 7.619,14 0,00 0,00 13.218,76 16.876,77 30/09/2023
61 307000 ALESSANDRA CRISTINA SANTOS MENDES ANALISTA DO MP BELO HORIZONTE - COMARCA; BH-18PJ VIOLENCIA DOMESTICA-SECRETARIA 20.533,67 6.160,10 0,00 0,00 0,00 0,00 0,00 2.105,00 28.798,77 4.051,95 5.289,40 0,00 0,00 9.341,35 19.457,42 30/09/2023
62 264400 ALESSANDRA DE SOUZA SANTOS ANALISTA DO MP BELO HORIZONTE - COMARCA; SECRETARIA DE ASSUNTOS INTERNACIONAIS 23.070,31 11.535,16 0,00 0,00 0,00 0,00 0,00 2.105,00 36.710,47 5.717,14 7.745,65 0,00 0,00 13.462,79 23.247,68 30/09/2023
63 441500 ALESSANDRA DRUMMOND DE FIGUEIREDO ROSSI ANALISTA DO MP BELO HORIZONTE - COMARCA; DIRETORIA DE PROJETOS DE EDIFICACOES 12.343,61 2.468,72 0,00 0,00 0,00 0,00 0,00 2.105,00 16.917,33 2.150,92 2.596,93 0,00 0,00 4.747,85 12.169,48 30/09/2023
64 524000 ALESSANDRA LUCIOLI DE BARROS ANALISTA DO MP BELO HORIZONTE - COMARCA; BH-19PJ SAUDE--SECRETARIA 12.343,61 2.468,72 0,00 0,00 0,00 0,00 0,00 2.105,00 16.917,33 2.150,92 2.544,79 0,00 0,00 4.695,71 12.221,62 30/09/2023
65 479900 ALESSANDRA MARA ANDRADE DE FARIA OFICIAL DO MP UBERABA - COMARCA; UBERABA-PJ-09PJ 10.516,49 2.103,30 0,00 0,00 0,00 0,00 850,29 2.105,00 15.575,08 2.673,84 3.477,03 0,00 0,00 6.150,87 9.424,21 30/09/2023
66 226700 ALESSANDRA MARA VASCONCELOS REZENDE OFICIAL DO MP CONSELHEIRO LAFAIETE - COMARCA; CONSELHEIRO LAFAIETE-PJ-07PJ 17.559,01 7.023,60 0,00 0,00 0,00 0,00 0,00 2.105,00 26.687,61 3.714,17 4.853,86 0,00 0,00 8.568,03 18.119,58 30/09/2023
67 196500 ALESSANDRA MARIA RIBEIRO LUCIANO OFICIAL DO MP RIO PARANAÍBA - COMARCA; RIO PARANAIBA-PJ-UNPJ 21.346,53 10.673,27 0,00 0,00 0,00 0,00 0,00 2.105,00 34.124,80 4.904,12 6.914,65 0,00 0,00 11.818,77 22.306,03 30/09/2023
68 651700 ALESSANDRA PROFIRIO SOUZA OFICIAL DO MP NOVA ERA - COMARCA; NOVA ERA-PJ-UNPJ 6.097,80 609,78 0,00 0,00 0,00 0,00 0,00 2.105,00 8.812,58 858,46 671,41 0,00 0,00 1.529,87 7.282,71 30/09/2023
69 384900 ALESSANDRA RODRIGUES ANALISTA DO MP VISCONDE DO RIO BRANCO - COMARCA; VISCONDE DO RIO BRANCO-PJ-03PJ 18.720,84 5.616,25 0,00 0,00 0,00 0,00 1.508,12 3.055,00 28.900,21 5.282,78 7.230,02 0,00 0,00 12.512,80 16.387,41 30/09/2023
70 390000 ALESSANDRA SPADANO MASSARA VASCONCELOS OFICIAL DO MP BETIM - COMARCA; BETIM-PJ-10PJ 12.343,61 3.703,08 0,00 0,00 0,00 0,00 759,85 2.105,00 18.911,54 3.350,44 4.462,16 0,00 0,00 7.812,60 11.098,94 30/09/2023
71 426500 ALESSANDRO CAMPOS DE PAIVA ANALISTA DO MP BELO HORIZONTE - COMARCA; DIR CRIACAO E MIDIAS 18.130,77 3.626,15 0,00 0,00 0,00 0,00 1.170,86 2.105,00 25.032,78 4.448,83 6.123,48 0,00 0,00 10.572,31 14.460,47 30/09/2023
72 623400 ALESSANDRO DE OLIVEIRA REZENDE ANALISTA DO MP BELO HORIZONTE - COMARCA; DIRET DE INFORMACAO E CONHECIMENTO-DINC/CEAF 11.577,56 1.157,76 0,00 0,00 0,00 0,00 0,00 2.105,00 14.840,32 1.818,60 2.117,14 0,00 0,00 3.935,74 10.904,58 30/09/2023
73 420600 ALESSANDRO SILVA OFICIAL DO MP VISCONDE DO RIO BRANCO - COMARCA; VISCONDE DO RIO BRANCO-PJ-02PJ 11.577,56 4.631,02 0,00 0,00 0,00 0,00 735,29 2.105,00 19.048,87 3.496,51 3.337,18 0,00 0,00 6.833,69 12.215,18 30/09/2023
74 375301 ALETHEIA PATRICIA ASSIS MORAIS MOREIRA ANALISTA DO MP ITABIRA - COMARCA; ITABIRA-PJ-02PJ 12.343,61 3.703,08 0,00 0,00 0,00 0,00 0,00 3.055,00 19.101,69 2.348,42 2.829,93 0,00 0,00 5.178,35 13.923,34 30/09/2023
75 382300 ALEX CARVALHO LIMA ANALISTA DO MP UBERLÂNDIA - COMARCA; UBERLANDIA-PJ-14PJ 18.720,84 5.616,25 0,00 0,00 0,00 0,00 1.515,98 3.055,00 28.908,07 5.217,97 7.240,73 0,00 0,00 12.458,70 16.449,37 30/09/2023
76 195201 ALEX DE CASTRO PEREIRA ANALISTA DO MP UBERABA - COMARCA; UBERABA-PJ-09PJ 23.070,31 9.228,12 0,00 0,00 0,00 0,00 64,06 2.105,00 34.467,49 5.795,34 9.010,96 0,00 0,00 14.806,30 19.661,19 30/09/2023
77 358900 ALEX DE PAULA LANZA ASSESSOR ADMINISTRATIVO IV BELO HORIZONTE - COMARCA; DIR CONTEUDO JORNALISTICO 0,00 0,00 14.488,22 0,00 0,00 0,00 0,00 3.055,00 17.543,22 876,95 3.270,64 0,00 0,00 4.147,59 13.395,63 30/09/2023
78 178400 ALEX RODRIGO SALDANHA GUIMARAES OFICIAL DO MP BELO HORIZONTE - COMARCA; DIRETORIA DE SISTEMAS DE INFORMACAO 7.506,70 3.002,68 0,00 0,00 0,00 0,00 0,00 2.105,00 12.614,38 1.462,45 1.602,95 0,00 0,00 3.065,40 9.548,98 30/09/2023
79 413500 ALEX VILELA OLIVEIRA ANALISTA DO MP GOVERNADOR VALADARES - COMARCA; COORD REG PJ DEF EDU DIR CRIANCA ADOL RIODOCE 18.130,77 3.626,15 0,00 0,00 0,00 0,00 1.343,85 2.105,00 25.205,77 4.768,38 6.591,63 0,00 0,00 11.360,01 13.845,76 30/09/2023
80 264300 ALEXANDRA FATIMA SARAIVA SOARES ANALISTA DO MP BELO HORIZONTE - COMARCA; CENTRAL DE APOIO TECN-SETOR DE MEIO AMBIENTE 23.070,31 9.228,12 0,00 0,00 0,00 0,00 1.736,23 2.105,00 36.139,66 5.795,34 9.583,33 0,00 0,00 15.378,67 20.760,99 30/09/2023
81 488000 ALEXANDRA LARA PAIS DE CARVALHO ANALISTA DO MP SABARÁ - COMARCA; SABARA-PJ-04PJ 12.343,61 2.468,72 0,00 0,00 0,00 0,00 0,00 2.105,00 16.917,33 2.150,92 2.440,52 0,00 0,00 4.591,44 12.325,89 30/09/2023
82 256300 ALEXANDRA SANTOS GOMES OFICIAL DO MP BELO HORIZONTE - COMARCA; DIRETORIA GESTAO COMPRAS LICITACOES 12.343,61 4.937,44 0,00 0,00 0,00 0,00 0,00 2.105,00 19.386,05 2.545,92 3.167,20 0,00 0,00 5.713,12 13.672,93 30/09/2023
83 403300 ALEXANDRE AUGUSTO RODRIGUES ANALISTA DO MP ÁGUAS FORMOSAS - COMARCA; AGUAS FORMOSAS-PJ-UNPJ 12.343,61 3.703,08 0,00 0,00 0,00 0,00 0,00 4.005,00 20.051,69 2.348,42 2.882,06 0,00 0,00 5.230,48 14.821,21 30/09/2023
84 640900 ALEXANDRE BARBOSA MASCARENHAS ANALISTA DO MP BETIM - COMARCA; BETIM-PJ-02PJ 9.393,95 939,40 0,00 0,00 0,00 0,00 220,91 2.105,00 12.659,26 982,16 1.360,22 0,00 0,00 2.342,38 10.316,88 30/09/2023
85 311700 ALEXANDRE BARCELOS RESENDE OFICIAL DO MP BELO HORIZONTE - COMARCA; BH-17PJ PATRIMONIO PUBLICO-SECRETARIA 10.858,90 3.257,67 0,00 0,00 0,00 0,00 0,00 3.055,00 17.171,57 2.039,60 2.436,21 0,00 0,00 4.475,81 12.695,76 30/09/2023
86 285600 ALEXANDRE CAMPOS DE OLIVEIRA OFICIAL DO MP UBERABA - COMARCA; COORD REG BACIAS PARANAIBA BAIXO RIO GRANDE 12.343,61 3.703,08 0,00 0,00 0,00 0,00 0,00 2.105,00 18.151,69 2.348,42 2.725,65 0,00 0,00 5.074,07 13.077,62 30/09/2023
87 509200 ALEXANDRE CAPUANO DE REZENDE ANALISTA DO MP BELO HORIZONTE - COMARCA; BH-07PJ 03 TRIBUNAL DO JURI-GAB 061PJ 12.343,61 2.468,72 0,00 0,00 0,00 0,00 0,00 2.105,00 16.917,33 2.150,92 2.544,79 0,00 0,00 4.695,71 12.221,62 30/09/2023
88 229400 ALEXANDRE CARLOS BOTREL SUPERINTENDENTE BELO HORIZONTE - COMARCA; SUPERINTENDENCIA DOS ORGAOS COLEGIADOS 28.013,39 11.205,36 0,00 0,00 933,78 0,00 5.939,97 2.553,21 48.645,71 4.952,81 10.205,33 1.628,79 -2.473,22 14.313,71 34.332,00 30/09/2023
89 411900 ALEXANDRE CARVALHO SANTOS RIBEIRO ANALISTA DO MP OLIVEIRA - COMARCA; OLIVEIRA-PJ-02PJ 18.130,77 3.626,15 0,00 0,00 0,00 0,00 1.436,39 3.055,00 26.248,31 4.573,20 6.303,04 0,00 0,00 10.876,24 15.372,07 30/09/2023
90 641600 ALEXANDRE DA SILVA ASSUNCAO OFICIAL DO MP BELO HORIZONTE - COMARCA; SERVICO MEDICO-DEPTO PERIC MEDICA SAUDE OCUP 6.603,76 660,38 0,00 0,00 0,00 0,00 0,00 3.055,00 10.319,14 944,43 852,96 0,00 0,00 1.797,39 8.521,75 30/09/2023
91 201200 ALEXANDRE DE ALENCAR CORDEIRO OFICIAL DO MP ÁGUAS FORMOSAS - COMARCA; AGUAS FORMOSAS-PJ-UNPJ 7.506,70 5.254,69 0,00 0,00 0,00 0,00 0,00 2.105,00 14.866,39 1.822,77 2.123,16 0,00 0,00 3.945,93 10.920,46 30/09/2023
92 288200 ALEXANDRE DE VASCONCELOS COSTA KER ANALISTA DO MP BELO HORIZONTE - COMARCA; BH-03PJ EMPRESARIAL-SECRETARIA 22.191,68 6.657,50 0,00 0,00 0,00 0,00 57,22 2.105,00 31.011,40 5.698,02 7.951,99 0,00 0,00 13.650,01 17.361,39 30/09/2023
93 445000 ALEXANDRE DIOGENES OLIVEIRA ANALISTA DO MP SALINAS - COMARCA; SALINAS-PJ-02PJ 13.588,97 2.717,79 0,00 0,00 0,00 0,00 1.063,54 3.055,00 20.425,30 2.954,52 3.757,13 0,00 0,00 6.711,65 13.713,65 30/09/2023
94 463400 ALEXANDRE LEAL WINKELSTROTER ANALISTA DO MP TEÓFILO OTONI - COMARCA; TEOFILO OTONI-PJ-04PJ 12.343,61 3.209,34 0,00 0,00 0,00 0,00 0,00 2.105,00 17.657,95 2.269,42 2.768,01 0,00 0,00 5.037,43 12.620,52 30/09/2023
95 615700 ALEXANDRE LUIZ DE CASTRO MACIEL ANALISTA DO MP BELO HORIZONTE - COMARCA; BH-08PJ JUIZADO ESPECIAL-SECRETARIA 11.577,56 1.852,41 0,00 0,00 0,00 0,00 0,00 3.055,00 16.484,97 1.929,74 2.225,47 0,00 0,00 4.155,21 12.329,76 30/09/2023
96 356900 ALEXANDRE MOISES MENDONCA E ARAUJO OFICIAL DO MP UBERABA - COMARCA; UBERABA-PJ-13PJ 9.699,77 2.909,93 0,00 0,00 0,00 0,00 0,00 3.055,00 15.664,70 1.798,50 2.088,12 0,00 0,00 3.886,62 11.778,08 30/09/2023
97 633300 ALEXANDRE NONATO MARTINS OFICIAL DO MP IGARAPÉ - COMARCA; IGARAPE-PJ-02PJ 6.603,76 660,38 0,00 0,00 0,00 0,00 0,00 2.105,00 9.369,14 944,43 800,82 0,00 0,00 1.745,25 7.623,89 30/09/2023
98 469900 ALEXANDRE PEREIRA GUEDES ANALISTA DO MP CATAGUASES - COMARCA; CATAGUASES-PJ-03PJ 12.343,61 2.468,72 0,00 0,00 0,00 0,00 0,00 2.105,00 16.917,33 2.150,92 2.596,93 0,00 0,00 4.747,85 12.169,48 30/09/2023
99 208700 ALEXANDRE RESENDE FRAGA ANALISTA DO MP BELO HORIZONTE - COMARCA; BH-19PJ SAUDE-SECRETARIA 130PJ 23.070,31 9.228,12 0,00 0,00 0,00 0,00 1.780,85 2.105,00 36.184,28 5.795,34 9.724,32 0,00 0,00 15.519,66 20.664,62 30/09/2023
100 216401 ALEXANDRE RIBEIRO DE LIMA MAIORINO ANALISTA DO MP UBERABA - COMARCA; UBERABA-PJ-03PJ 22.191,68 8.876,67 0,00 0,00 0,00 0,00 0,00 2.105,00 33.173,35 5.289,63 7.379,42 0,00 0,00 12.669,05 20.504,30 30/09/2023
101 475100 ALEXANDRE TEOTONIO COSTA ANALISTA DO MP ARAGUARI - COMARCA; ARAGUARI-PJ-01PJ 12.343,61 2.468,72 0,00 0,00 0,00 0,00 0,00 2.105,00 16.917,33 2.150,92 2.492,65 0,00 0,00 4.643,57 12.273,76 30/09/2023
102 339000 ALEXANDRE VITOR CARDOSO OFICIAL DO MP BELO HORIZONTE - COMARCA; BH-23PJ INFRACIONAL-SEC EXP 7.506,70 2.252,01 0,00 0,00 0,00 0,00 0,00 2.105,00 11.863,71 1.342,34 1.273,13 0,00 0,00 2.615,47 9.248,24 30/09/2023
103 623100 ALEXSANDER BATISTA AGUIAR COORDENADOR II BELO HORIZONTE - COMARCA; DIRETORIA DE SUPORTE E MANUTENCAO 20.533,67 2.053,37 0,00 0,00 0,00 0,00 1.371,56 3.055,00 27.013,60 1.981,83 4.905,61 0,00 0,00 6.887,44 20.126,16 30/09/2023
104 513300 ALFSON MIRANDA BRAGA ANALISTA DO MP BELO HORIZONTE - COMARCA; BH-12PJ JUIZO CRIMINAL-GAB 087PJ 12.343,61 2.468,72 0,00 0,00 0,00 0,00 0,00 2.105,00 16.917,33 2.150,92 2.596,93 0,00 0,00 4.747,85 12.169,48 30/09/2023
105 618400 ALICE MAGALHAES MACEDO DE CARVALHO ANALISTA DO MP IPATINGA - COMARCA; IPATINGA-PJ-10PJ 11.577,56 1.157,76 0,00 0,00 0,00 0,00 0,00 3.055,00 15.790,32 1.818,60 2.117,14 0,00 0,00 3.935,74 11.854,58 30/09/2023
106 707000 ALICE MARIA RIBEIRO DINIZ ASSESSOR PROMOTOR JUSTICA BELO HORIZONTE - COMARCA; PROC JUST ATUACAO TRIBUNAIS SUPERIORES-GAB003 0,00 0,00 8.810,89 0,00 0,00 0,00 0,00 2.105,00 10.915,89 876,95 1.709,37 0,00 0,00 2.586,32 8.329,57 30/09/2023
107 471000 ALICE TITONELI MOREIRA ANALISTA DO MP MIRADOURO - COMARCA; MIRADOURO-PJ-UNPJ 12.343,61 2.468,72 0,00 0,00 0,00 0,00 0,00 3.208,03 18.020,36 2.150,92 2.492,65 0,00 0,00 4.643,57 13.376,79 30/09/2023
108 731600 ALICIA PAULA RODRIGUES DE LIMA ASSESSOR PROMOTOR JUSTICA TIROS - COMARCA; TIROS-PJ-UNPJ 0,00 0,00 8.810,89 0,00 0,00 0,00 0,00 2.105,00 10.915,89 876,95 1.709,37 0,00 0,00 2.586,32 8.329,57 30/09/2023
109 725800 ALINE ALBIERI FRANCISCO ASSESSOR PROMOTOR JUSTICA BELO HORIZONTE - COMARCA; CAO-ORDEM ECONOMICA E TRIBUTARIA-ASSESS TECN 0,00 0,00 8.810,89 0,00 0,00 0,00 0,00 2.105,00 10.915,89 876,95 1.709,37 0,00 0,00 2.586,32 8.329,57 30/09/2023
110 733200 ALINE APARECIDA DO PRADO TERRITO ASSESSOR ADMINISTRATIVO II BELO HORIZONTE - COMARCA; ESCRITORIO DE PROTECAO DE DADOS PESSOAIS 0,00 0,00 7.506,70 0,00 0,00 0,00 0,00 2.105,00 9.611,70 876,95 1.350,72 0,00 0,00 2.227,67 7.384,03 30/09/2023
111 622400 ALINE BALBINO PORTUGAL LOPES ANALISTA DO MP TRÊS PONTAS - COMARCA; TRES PONTAS-PJ-03PJ 11.577,56 1.157,76 0,00 0,00 0,00 0,00 0,00 3.055,00 15.790,32 1.818,60 2.117,14 0,00 0,00 3.935,74 11.854,58 30/09/2023
112 373000 ALINE BOTELHO RESENDE OFICIAL DO MP JUIZ DE FORA - COMARCA; JUIZ DE FORA-PJ-22PJ 11.954,43 3.586,33 0,00 0,00 0,00 0,00 817,18 2.105,00 18.462,94 2.267,47 2.765,19 0,00 0,00 5.032,66 13.430,28 30/09/2023
113 699800 ALINE CRISTINA DE OLIVEIRA AMARAL BARBOSA ASSESSOR PROCURADOR JUSTICA BELO HORIZONTE - COMARCA; GABINETE DE PROCURADOR DE JUSTIÇA - SALA 904 0,00 0,00 8.810,89 0,00 0,00 0,00 0,00 2.105,00 10.915,89 876,95 1.605,10 0,00 0,00 2.482,05 8.433,84 30/09/2023
114 407700 ALINE CRISTINA RODRIGUES PEREIRA COORDENADOR II BELO HORIZONTE - COMARCA; DIRETORIA DE PROJETOS DE EDIFICACOES 20.533,67 4.106,73 0,00 0,00 0,00 0,00 1.373,84 2.105,00 28.119,24 2.668,68 6.047,17 0,00 0,00 8.715,85 19.403,39 30/09/2023
115 193100 ALINE CRISTINA SENA OLIVEIRA OFICIAL DO MP UBERLÂNDIA - COMARCA; UBERLANDIA-PJ-03PJ 20.533,67 8.213,47 0,00 0,00 0,00 0,00 0,00 3.055,00 31.802,14 4.380,49 6.694,32 0,00 0,00 11.074,81 20.727,33 30/09/2023
116 554200 ALINE CRISTINA SILVA SOUZA OFICIAL DO MP TIROS - COMARCA; TIROS-PJ-UNPJ 7.506,70 1.501,34 0,00 0,00 0,00 0,00 0,00 2.105,00 11.113,04 1.222,23 1.256,14 0,00 0,00 2.478,37 8.634,67 30/09/2023
117 505500 ALINE DA CUNHA MARREIROS OLIVEIRA ANALISTA DO MP EUGENÓPOLIS - COMARCA; EUGENOPOLIS-PJ-UNPJ 12.343,61 2.468,72 0,00 0,00 0,00 0,00 0,00 4.005,00 18.817,33 2.150,92 2.544,79 0,00 0,00 4.695,71 14.121,62 30/09/2023
118 433500 ALINE DE MELO QUEIROZ OFICIAL DO MP BELO HORIZONTE - COMARCA; ASSESSORIA JURIDICA DO PROCON-MG 11.212,54 2.242,51 4.020,58 0,00 0,00 0,00 0,00 3.055,00 20.530,63 1.933,76 3.389,05 0,00 0,00 5.322,81 15.207,82 30/09/2023
119 691100 ALINE DE MELO SOUZA ASSESSOR PROCURADOR JUSTICA BELO HORIZONTE - COMARCA; GABINETE DE PROCURADOR DE JUSTIÇA - SALA 401 0,00 0,00 8.810,89 0,00 0,00 0,00 0,00 2.105,00 10.915,89 876,95 1.709,37 0,00 0,00 2.586,32 8.329,57 30/09/2023
120 542700 ALINE DE SOUSA ALBINO ANALISTA DO MP CONTAGEM - COMARCA; CONTAGEM-PJ-09PJ 12.343,61 2.468,72 0,00 0,00 0,00 0,00 0,00 2.105,00 16.917,33 2.150,92 2.596,93 0,00 0,00 4.747,85 12.169,48 30/09/2023
121 330000 ALINE DIORIO MAYRINK OFICIAL DO MP BELO HORIZONTE - COMARCA; SUPER DE GESTAO DE PESSOAS-LOTACAO TEMPORARIA 10.015,59 2.003,12 0,00 0,00 0,00 0,00 0,00 2.105,00 14.123,71 1.703,94 1.951,60 0,00 0,00 3.655,54 10.468,17 30/09/2023
122 499000 ALINE FERREIRA LOPES ANALISTA DO MP TEÓFILO OTONI - COMARCA; TEOFILO OTONI-PJ-09PJ 12.343,61 2.468,72 0,00 0,00 0,00 0,00 0,00 2.105,00 16.917,33 2.150,92 2.544,79 0,00 0,00 4.695,71 12.221,62 30/09/2023
123 405300 ALINE LAIA CARDOZO SUPERINTENDENTE BELO HORIZONTE - COMARCA; SUPERINTENDENCIA LOGISTICA SERVICOS 28.013,39 5.602,68 0,00 0,00 0,00 0,00 2.199,20 2.105,00 37.920,27 5.702,72 11.124,73 0,00 0,00 16.827,45 21.092,82 30/09/2023
124 278200 ALINE MARCIA FARIA BARBOSA FERNANDES OFICIAL DO MP BARBACENA - COMARCA; BARBACENA-PJ-SECRETARIA 9.699,77 2.909,93 0,00 0,00 0,00 0,00 0,00 2.105,00 14.714,70 1.798,50 1.983,85 0,00 0,00 3.782,35 10.932,35 30/09/2023
125 389000 ALINE NERI NOBRE ANALISTA DO MP MONTES CLAROS - COMARCA; COORD REG PJ DEF EDUC DIR CRIANCA ADOL NORTE 18.720,84 7.488,34 0,00 0,00 0,00 0,00 0,00 2.105,00 28.314,18 4.298,45 5.697,42 0,00 0,00 9.995,87 18.318,31 30/09/2023
126 294600 ALINE PATRICIA SILVA VIEIRA OFICIAL DO MP UBERLÂNDIA - COMARCA; UBERLANDIA-PJ-03PJ 14.960,00 4.488,00 0,00 0,00 0,00 0,00 1.830,58 2.105,00 23.383,58 3.701,13 6.065,38 0,00 0,00 9.766,51 13.617,07 30/09/2023
127 420000 ALINE RODRIGUES CAMOROPIN ANALISTA DO MP SABARÁ - COMARCA; SABARA-PJ-02PJ 18.130,77 3.626,15 0,00 0,00 0,00 0,00 1.380,35 2.105,00 25.242,27 4.756,50 6.567,68 0,00 0,00 11.324,18 13.918,09 30/09/2023
128 715800 ALINE SANTOS PEDROSA MAIA BARBOSA ASSESSOR PROCURADOR JUSTICA BELO HORIZONTE - COMARCA; GABINETE DE PROCURADOR DE JUSTIÇA - SALA 1010 0,00 0,00 8.810,89 0,00 0,00 0,00 0,00 2.105,00 10.915,89 876,95 1.709,37 0,00 0,00 2.586,32 8.329,57 30/09/2023
129 699600 ALINE SEPULVEDA ROSA PIRES ASSESSOR PROCURADOR JUSTICA BELO HORIZONTE - COMARCA; GABINETE DE PROCURADOR DE JUSTIÇA - SALA 905 0,00 0,00 8.810,89 0,00 0,00 0,00 0,00 2.105,00 10.915,89 876,95 1.709,37 0,00 0,00 2.586,32 8.329,57 30/09/2023
130 408300 ALINE SILVA ARAUJO DE PAULA ANALISTA DO MP SÃO SEBASTIÃO DO PARAÍSO - COMARCA; SAO SEBASTIAO DO PARAISO-PJ-02PJ 18.130,77 3.626,15 0,00 0,00 0,00 0,00 1.309,72 2.105,00 25.171,64 982,16 7.389,32 0,00 0,00 8.371,48 16.800,16 30/09/2023
131 734300 ALINE TAVARES GURGEL ASSESSOR ADMINISTRATIVO III BELO HORIZONTE - COMARCA; SECRETARIA-GERAL 0,00 0,00 10.858,90 0,00 0,00 0,00 0,00 2.105,00 12.963,90 876,95 2.272,58 0,00 0,00 3.149,53 9.814,37 30/09/2023
132 425400 ALINE TRINDADE DE FREITAS CAMPOS OFICIAL DO MP BELO HORIZONTE - COMARCA; PROMOT ESTADUAL DE DEF PATRI CULT E TUR DE MG 11.212,54 2.242,51 0,00 0,00 0,00 0,00 0,00 2.105,00 15.560,05 1.933,76 2.283,39 0,00 0,00 4.217,15 11.342,90 30/09/2023
133 517200 ALISSOM PEREIRA DA SILVA ANALISTA DO MP BORDA DA MATA - COMARCA; BORDA DA MATA-PJ-UNPJ 12.343,61 3.703,08 0,00 0,00 0,00 0,00 0,00 3.055,00 19.101,69 2.348,42 2.882,06 0,00 0,00 5.230,48 13.871,21 30/09/2023
134 442400 ALISSON LABRE ANALISTA DO MP VARGINHA - COMARCA; VARGINHA-PJ-03PJ 13.160,57 2.632,11 0,00 0,00 0,00 0,00 1.106,69 2.105,00 19.004,37 982,16 4.316,09 0,00 0,00 5.298,25 13.706,12 30/09/2023
135 643800 ALLAN PAUL FONSECA DE CASTRO OFICIAL DO MP CONTAGEM - COMARCA; CONTAGEM-PJ-SECRETARIA 6.603,76 660,38 2.918,39 0,00 0,00 0,00 0,00 3.055,00 13.237,53 944,43 1.655,52 0,00 0,00 2.599,95 10.637,58 30/09/2023
136 612900 ALLAN VINICIUS VIEIRA ARAUJO COORDENADOR II BELO HORIZONTE - COMARCA; DIRETORIA DE GESTAO DOCUMENTAL 20.533,67 2.053,37 0,00 0,00 0,00 0,00 1.392,63 2.105,00 26.084,67 1.346,05 5.375,56 0,00 0,00 6.721,61 19.363,06 30/09/2023
137 349000 ALLEC RODRIGUES VIEIRA OFICIAL DO MP CAPINÓPOLIS - COMARCA; CAO-CIVEL 12.343,61 3.703,08 0,00 0,00 0,00 0,00 0,00 2.105,00 18.151,69 2.348,42 2.882,06 0,00 0,00 5.230,48 12.921,21 30/09/2023
138 297300 ALLYSON SALIBA MONTEIRO LAIZO ANALISTA DO MP CONSELHEIRO LAFAIETE - COMARCA; CONSELHEIRO LAFAIETE-PJ-03PJ 23.070,31 6.921,09 0,00 0,00 0,00 0,00 1.949,23 3.055,00 34.995,63 5.795,34 8.743,00 0,00 0,00 14.538,34 20.457,29 30/09/2023
139 303700 ALMIR LOPES LOURES ANALISTA DO MP BELO HORIZONTE - COMARCA; CENTRAL DE APOIO TECN-SETOR DE MEIO AMBIENTE 23.070,31 6.921,09 0,00 0,00 0,00 0,00 2.057,84 2.105,00 34.154,24 5.795,34 9.040,40 0,00 0,00 14.835,74 19.318,50 30/09/2023
140 743900 ALMIR MOREIRA DOS SANTOS ANALISTA DO MP BELO HORIZONTE - COMARCA; DIRETORIA DE ADMINISTRACAO FINANCEIRA 7.040,78 0,00 0,00 0,00 0,00 0,00 0,00 2.105,00 9.145,78 909,81 696,78 0,00 0,00 1.606,59 7.539,19 30/09/2023
141 696600 ALOIZIO MARTINS JALES JUNIOR ASSESSOR PROMOTOR JUSTICA CAMPESTRE - COMARCA; CAMPESTRE-PJ-SECRETARIA 0,00 0,00 8.810,89 0,00 0,00 0,00 0,00 2.105,00 10.915,89 876,95 1.709,37 0,00 0,00 2.586,32 8.329,57 30/09/2023
142 515900 ALTAIR NEVES JUNIOR OFICIAL DO MP BELO HORIZONTE - COMARCA; BH-01PJ FAZENDA PUBLICA-SECRETARIA 9.699,77 1.939,95 0,00 0,00 0,00 0,00 0,00 2.105,00 13.744,72 1.643,30 1.864,06 0,00 0,00 3.507,36 10.237,36 30/09/2023
143 233300 ALVARINDO BATISTA ANALISTA DO MP BELO HORIZONTE - COMARCA; NUCLEO APOIO TECNICO ESP COMUNICACAO 23.070,31 9.228,12 0,00 0,00 760,40 0,00 2.307,03 3.055,00 38.420,86 5.717,13 7.902,62 0,00 0,00 13.619,75 24.801,11 30/09/2023
144 274100 ALYSSON CARVALHO VIDAL DE LACERDA OFICIAL DO MP MANHUAÇU - COMARCA; MANHUACU-PJ-01PJ 12.343,61 4.937,44 0,00 0,00 0,00 0,00 1.234,36 2.105,00 20.620,41 2.743,41 3.452,34 0,00 0,00 6.195,75 14.424,66 30/09/2023
145 621000 AMANDA BASTOS ALVES ANALISTA DO MP BELO HORIZONTE - COMARCA; BH-07PJ 02 TRIBUNAL DO JURI-GAB 066PJ 11.577,56 1.157,76 0,00 0,00 0,00 0,00 0,00 2.105,00 14.840,32 982,16 2.239,33 0,00 0,00 3.221,49 11.618,83 30/09/2023
146 521700 AMANDA CRISTINA AGUIAR MACHADO OFICIAL DO MP CONGONHAS - COMARCA; CONGONHAS-PJ-01PJ 7.506,70 1.501,34 0,00 0,00 0,00 0,00 0,00 2.105,00 11.113,04 1.222,23 1.204,00 0,00 0,00 2.426,23 8.686,81 30/09/2023
147 733500 AMANDA CRISTINA GONCALVES ASSESSOR ADMINISTRATIVO I PARACATU - COMARCA; COORD REG AP COM INCL MOB SOCIAIS NOROESTE MG 0,00 0,00 4.872,71 0,00 0,00 0,00 0,00 2.105,00 6.977,71 718,08 670,06 0,00 0,00 1.388,14 5.589,57 30/09/2023
148 713900 AMANDA DE ARAUJO CARVALHO ASSESSOR PROMOTOR JUSTICA ARAÇUAÍ - COMARCA; ARACUAI-PJ-01PJ 0,00 0,00 8.810,89 0,00 0,00 0,00 0,00 2.105,00 10.915,89 876,95 1.709,37 0,00 0,00 2.586,32 8.329,57 30/09/2023
149 613400 AMANDA DE ASSIS IUNES SANTOS ANALISTA DO MP CONGONHAS - COMARCA; CONGONHAS-PJ-01PJ 11.577,56 1.157,76 0,00 0,00 0,00 0,00 0,00 2.105,00 14.840,32 1.818,60 2.117,14 0,00 0,00 3.935,74 10.904,58 30/09/2023
150 695900 AMANDA DE OLIVEIRA ASSESSOR PROCURADOR JUSTICA BELO HORIZONTE - COMARCA; PROC JUST ATUACAO TRIBUNAIS SUPERIORES-GAB004 0,00 0,00 8.810,89 0,00 2.936,96 0,00 549,21 8.096,41 20.393,47 876,95 2.517,04 0,00 0,00 3.393,99 16.999,48 30/09/2023
151 520800 AMANDA DE SOUZA MACHADO ANALISTA DO MP BAEPENDI - COMARCA; BAEPENDI-PJ-UNPJ 12.343,61 2.468,72 0,00 0,00 0,00 0,00 0,00 2.105,00 16.917,33 2.150,92 2.492,65 0,00 0,00 4.643,57 12.273,76 30/09/2023
152 663900 AMANDA DENISE GONCALVES DA SILVA ASSESSOR ADMINISTRATIVO I BELO HORIZONTE - COMARCA; SECRETARIA DO PROCON-MG 0,00 0,00 4.872,71 0,00 0,00 0,00 0,00 2.105,00 6.977,71 742,68 663,30 0,00 0,00 1.405,98 5.571,73 30/09/2023
153 543100 AMANDA VIEIRA FREITAS BRESSANE ANALISTA DO MP VARGINHA - COMARCA; COORD REG DEF ORDEM ECON TRIB VARGINHA 12.343,61 2.468,72 0,00 0,00 0,00 0,00 0,00 2.105,00 16.917,33 2.150,92 2.596,93 0,00 0,00 4.747,85 12.169,48 30/09/2023
154 434400 AMARILIS ASSIS SIMAO CURCIO ANALISTA DO MP BELO HORIZONTE - COMARCA; DIRETORIA GESTAO COMPRAS LICITACOES 12.343,61 2.468,72 0,00 0,00 0,00 0,00 0,00 2.105,00 16.917,33 2.150,92 2.596,93 0,00 0,00 4.747,85 12.169,48 30/09/2023
155 652000 AMAURI SILVA ALVES ASSESSOR ADMINISTRATIVO III BELO HORIZONTE - COMARCA; BH-23PJ INFRACIONAL-COORD ADM INFRACIONAL 10.858,90 1.085,89 0,00 0,00 0,00 0,00 1.996,13 2.105,00 16.045,92 858,16 2.712,80 0,00 0,00 3.570,96 12.474,96 30/09/2023
156 58000 AMELIA GUARIZE DE CASTRO OFICIAL DO MP JUIZ DE FORA - COMARCA; JUIZ DE FORA-PJ-SECRETARIA 8.264,07 9.090,49 0,00 0,00 0,00 2.985,66 1.109,17 2.105,00 23.554,39 2.862,16 4.410,87 0,00 0,00 7.273,03 16.281,36 30/09/2023
157 324301 AMERICA SUELI FERREIRA DA SILVA ANALISTA DO MP UBERLÂNDIA - COMARCA; UBERLANDIA-PJ-02PJ 12.343,61 3.703,08 0,00 0,00 0,00 0,00 0,00 2.105,00 18.151,69 2.348,42 2.829,93 0,00 0,00 5.178,35 12.973,34 30/09/2023
158 273300 AMUJACY DE BRITO ASSIZ OFICIAL DO MP BELO HORIZONTE - COMARCA; BH-12PJ JUIZO CRIMINAL-SECRETARIA 12.343,61 4.937,44 0,00 0,00 0,00 0,00 1.234,36 2.105,00 20.620,41 2.743,41 3.243,79 0,00 0,00 5.987,20 14.633,21 30/09/2023
159 482200 ANA ALICE LOPES ACHTSCHIN ANALISTA DO MP BELO HORIZONTE - COMARCA; PROC JUST ATUACAO TRIBUNAIS SUPERIORES-GAB005 14.960,00 2.992,00 0,00 0,00 0,00 0,00 256,49 2.105,00 20.313,49 3.896,16 5.294,64 0,00 0,00 9.190,80 11.122,69 30/09/2023
160 490400 ANA AMELIA PAULINO GARCIA OFICIAL DO MP CONTAGEM - COMARCA; CONTAGEM-PJ-SECRETARIA 10.516,49 2.103,30 0,00 0,00 0,00 0,00 672,10 3.055,00 16.346,89 2.373,23 2.865,74 0,00 0,00 5.238,97 11.107,92 30/09/2023
161 714900 ANA BEATRIZ LOBATO ALVES DE CARVALHO ASSESSOR PROCURADOR JUSTICA BELO HORIZONTE - COMARCA; GABINETE DE PROCURADOR DE JUSTIÇA - SALA 414 0,00 3.524,36 8.810,89 0,00 0,00 0,00 0,00 2.105,00 14.440,25 876,95 2.678,57 0,00 0,00 3.555,52 10.884,73 30/09/2023
162 715000 ANA CARLA RODRIGUES DE SOUZA ASSESSOR PROMOTOR JUSTICA TRÊS CORACOES - COMARCA; TRES CORACOES-PJ-01PJ 0,00 0,00 8.810,89 0,00 0,00 0,00 0,00 2.105,00 10.915,89 876,95 1.709,37 0,00 0,00 2.586,32 8.329,57 30/09/2023
163 279100 ANA CAROLINA ARAUJO PEREIRA ANALISTA DO MP BELO HORIZONTE - COMARCA; DIRETORIA DE PROJETOS DE EDIFICACOES 23.070,31 6.921,09 0,00 0,00 0,00 0,00 1.963,04 2.105,00 34.059,44 5.795,34 9.065,58 0,00 0,00 14.860,92 19.198,52 30/09/2023
164 653300 ANA CAROLINA CYRNE DINIZ ASSESSOR ADMINISTRATIVO III BELO HORIZONTE - COMARCA; CENTRAL DE APOIO TECNICO-SETOR CONTABIL 0,00 0,00 10.858,90 0,00 0,00 0,00 0,00 2.105,00 12.963,90 876,95 2.272,58 0,00 0,00 3.149,53 9.814,37 30/09/2023
165 359400 ANA CAROLINA DE ABREU FARIA ASSESSOR ADMINISTRATIVO IV BELO HORIZONTE - COMARCA; SUPERINTENDÊNCIA DE ENGENHARIA E ARQUITETURA 0,00 0,00 14.488,22 0,00 0,00 0,00 0,00 3.055,00 17.543,22 876,95 3.218,50 0,00 0,00 4.095,45 13.447,77 30/09/2023
166 408500 ANA CAROLINA DE CASTRO CARVALHO ANALISTA DO MP BARBACENA - COMARCA; BARBACENA - SECRETARIA DAS PJS CRIMINAIS 18.130,77 3.626,15 0,00 0,00 0,00 0,00 1.184,91 3.055,00 25.996,83 4.768,38 6.591,63 0,00 0,00 11.360,01 14.636,82 30/09/2023
167 688000 ANA CAROLINA DE OLIVEIRA PINTO ASSESSOR PROCURADOR JUSTICA BELO HORIZONTE - COMARCA; GABINETE DE PROCURADOR DE JUSTIÇA - SALA 1005 0,00 0,00 8.810,89 0,00 0,00 0,00 0,00 2.105,00 10.915,89 876,95 1.709,37 0,00 0,00 2.586,32 8.329,57 30/09/2023
168 420200 ANA CAROLINA FERNANDES SILVA ANALISTA DO MP BELO HORIZONTE - COMARCA; GABINETE DE PROCURADOR DE JUSTIÇA - SALA 704 17.559,01 3.511,80 0,00 0,00 0,00 0,00 0,00 2.105,00 23.175,81 3.893,11 6.010,04 0,00 0,00 9.903,15 13.272,66 30/09/2023
169 522100 ANA CAROLINA FERNANDINO VIDAL PEREIRA SANTOS OFICIAL DO MP BELO HORIZONTE - COMARCA; CAO-CRIANCAS E ADOLESCENTES-SECRETARIA 9.699,77 1.939,95 0,00 0,00 0,00 0,00 0,00 2.105,00 13.744,72 982,16 1.960,64 0,00 0,00 2.942,80 10.801,92 30/09/2023
170 716001 ANA CAROLINA FIGUEIREDO SILVA ASSESSOR ADMINISTRATIVO II BELO HORIZONTE - COMARCA; PROC JUST ATUACAO TRIBUNAIS SUPERIORES-GAB003 0,00 0,00 7.506,70 0,00 0,00 0,00 0,00 2.105,00 9.611,70 876,95 1.350,72 0,00 0,00 2.227,67 7.384,03 30/09/2023
171 502400 ANA CAROLINA GONCALVES FERNANDES ANALISTA DO MP IPATINGA - COMARCA; IPATINGA-PJ-01PJ 12.343,61 2.468,72 0,00 0,00 0,00 0,00 0,00 4.005,00 18.817,33 982,16 2.767,68 0,00 0,00 3.749,84 15.067,49 30/09/2023
172 529900 ANA CAROLINA GONCALVES PECANHA CHEQUER ANALISTA DO MP MANHUAÇU - COMARCA; MANHUACU-PJ-04PJ 12.343,61 2.468,72 0,00 0,00 0,00 0,00 0,00 4.005,00 18.817,33 2.150,92 2.596,93 0,00 0,00 4.747,85 14.069,48 30/09/2023
173 431900 ANA CAROLINA MOTTA GUATIMOSIM ANALISTA DO MP BELO HORIZONTE - COMARCA; ASSESSORIA JURIDICO-ADMINISTRATIVA 17.559,01 3.511,80 0,00 0,00 0,00 0,00 0,00 3.055,00 24.125,81 3.915,44 6.042,27 0,00 0,00 9.957,71 14.168,10 30/09/2023
174 490600 ANA CAROLINA XAVIER GODOY ANALISTA DO MP BELO HORIZONTE - COMARCA; BH-18PJ VIOLENCIA DOMESTICA-GAB 007PJ 12.343,61 2.468,72 0,00 0,00 0,00 0,00 0,00 4.005,00 18.817,33 2.150,92 2.492,65 0,00 0,00 4.643,57 14.173,76 30/09/2023
175 600300 ANA CAROLINE PEREIRA DINIZ ANALISTA DO MP BELO HORIZONTE - COMARCA; PROC JUST ESP ACOES COMP ORIG CRIMINAL-SEC 12.343,61 2.468,72 0,00 0,00 0,00 0,00 939,63 3.055,00 18.806,96 2.855,96 3.637,22 0,00 0,00 6.493,18 12.313,78 30/09/2023
176 615800 ANA CAROLINE PEREIRA OLIVEIRA OFICIAL DO MP ALFENAS - COMARCA; ALFENAS-PJ-06PJ 7.506,70 750,67 0,00 0,00 0,00 0,00 0,00 2.105,00 10.362,37 1.102,13 1.082,73 0,00 0,00 2.184,86 8.177,51 30/09/2023
177 324800 ANA CECILIA MENDES DA SILVA OFICIAL DO MP OURO FINO - COMARCA; OURO FINO-PJ-01PJ 12.343,61 4.937,44 0,00 0,00 0,00 0,00 0,00 2.105,00 19.386,05 2.545,92 3.115,06 0,00 0,00 5.660,98 13.725,07 30/09/2023
178 736000 ANA CLARA FERREIRA AMARAL ASSESSOR ADMINISTRATIVO I BELO HORIZONTE - COMARCA; PROCURADOR-GERAL DE JUSTICA- GABINETE 0,00 0,00 4.872,71 0,00 0,00 0,00 0,00 2.105,00 6.977,71 718,08 670,06 0,00 0,00 1.388,14 5.589,57 30/09/2023
179 704100 ANA CLARA MARTINS ALBUQUERQUE ASSESSOR DE CAO BELO HORIZONTE - COMARCA; CAO-CRIANCAS E ADOLESCENTES-ASS TECNICA 0,00 0,00 7.506,70 0,00 0,00 0,00 0,00 2.105,00 9.611,70 876,95 1.350,72 0,00 0,00 2.227,67 7.384,03 30/09/2023
180 698700 ANA CLARA SANTOS ALMEIDA ASSESSOR PROMOTOR JUSTICA SABINÓPOLIS - COMARCA; SABINOPOLIS-PJ-UNPJ 0,00 0,00 8.810,89 0,00 0,00 0,00 0,00 2.105,00 10.915,89 876,95 1.709,37 0,00 0,00 2.586,32 8.329,57 30/09/2023
181 441300 ANA CLAUDIA ALKIMIM MIRANDA BOMTEMPO ANALISTA DO MP MONTES CLAROS - COMARCA; MONTES CLAROS-PJ-11PJ 17.559,01 3.511,80 0,00 0,00 0,00 0,00 0,00 2.105,00 23.175,81 4.430,36 6.681,42 0,00 0,00 11.111,78 12.064,03 30/09/2023
182 642500 ANA CLAUDIA DA COSTA NAVES OFICIAL DO MP MONTE CARMELO - COMARCA; MONTE CARMELO-PJ-02PJ 6.097,80 609,78 0,00 0,00 0,00 0,00 0,00 3.186,40 9.893,98 858,16 723,63 0,00 0,00 1.581,79 8.312,19 30/09/2023
183 604900 ANA CLAUDIA OLIVEIRA DE MIRANDA OFICIAL DO MP PONTE NOVA - COMARCA; PONTE NOVA-PJ-04PJ 7.506,70 750,67 0,00 0,00 0,00 0,00 0,00 2.105,00 10.362,37 1.102,13 1.030,59 0,00 0,00 2.132,72 8.229,65 30/09/2023
184 379300 ANA CRISTINA ALVES FLAVIO ANALISTA DO MP SÃO GOTARDO - COMARCA; SAO GOTARDO-PJ-01PJ 18.720,84 5.616,25 0,00 0,00 0,00 0,00 1.796,18 8.895,90 35.029,17 5.282,78 7.282,16 0,00 0,00 12.564,94 22.464,23 30/09/2023
185 461200 ANA CRISTINA ALVES PASCHOAL ANALISTA DO MP BELO HORIZONTE - COMARCA; BH-07PJ 03 TRIBUNAL DO JURI-GAB 064PJ 12.343,61 2.468,72 0,00 0,00 0,00 0,00 271,56 5.067,47 20.151,36 2.150,92 2.544,79 0,00 0,00 4.695,71 15.455,65 30/09/2023
186 514100 ANA CRISTINA ARAUJO ASSUNCAO ANALISTA DO MP BELO HORIZONTE - COMARCA; ASSESS JUR DO CONS SUPERIOR DO MINISTERIO PUB 12.343,61 3.184,65 0,00 0,00 0,00 0,00 0,00 3.055,00 18.583,26 2.265,47 2.710,17 0,00 0,00 4.975,64 13.607,62 30/09/2023
187 113401 ANA CRISTINA BRAGA ALBUQUERQUE ASSESSOR ADM. ESPECIAL BELO HORIZONTE - COMARCA; DIRETORIA-GERAL 0,00 0,00 28.013,39 0,00 0,00 0,00 1.584,86 1.500,00 31.098,25 876,95 9.097,72 0,00 0,00 9.974,67 21.123,58 30/09/2023
188 233800 ANA CRISTINA BRAGA SOARES OFICIAL DO MP BELO HORIZONTE - COMARCA; DIRETORIA DE CONTABILIDADE 14.960,00 5.984,00 0,00 0,00 0,00 0,00 0,00 2.105,00 23.049,00 4.484,64 6.054,81 0,00 0,00 10.539,45 12.509,55 30/09/2023
189 186400 ANA CRISTINA DE AZEVEDO LOPES OFICIAL DO MP UBÁ - COMARCA; UBA-PJ-01PJ 20.533,67 8.213,47 0,00 0,00 0,00 0,00 0,00 2.105,00 30.852,14 4.380,49 5.815,87 0,00 0,00 10.196,36 20.655,78 30/09/2023
190 465100 ANA CRISTINA DE OLIVEIRA GUIMARAES ANALISTA DO MP ITAJUBA - COMARCA; ITAJUBA-PJ-05PJ 12.343,61 2.468,72 0,00 0,00 0,00 0,00 0,00 3.055,00 17.867,33 2.150,92 2.492,65 0,00 0,00 4.643,57 13.223,76 30/09/2023
191 500600 ANA CRISTINA LATADO SUDARIO ANALISTA DO MP UBERLÂNDIA - COMARCA; UBERLANDIA-PJ-09PJ 12.343,61 2.468,72 0,00 0,00 0,00 0,00 0,00 2.105,00 16.917,33 2.150,92 2.596,93 0,00 0,00 4.747,85 12.169,48 30/09/2023
192 331400 ANA CRISTINA RIBEIRO ALVES OFICIAL DO MP BAMBUÍ - COMARCA; BAMBUI-PJ-UNPJ 12.343,61 3.703,08 0,00 0,00 0,00 0,00 0,00 2.105,00 18.151,69 2.348,42 2.829,93 0,00 0,00 5.178,35 12.973,34 30/09/2023
193 249300 ANA ELOINA MARTINS OFICIAL DO MP BETIM - COMARCA; BETIM-PJ-02PJ 17.559,01 8.779,51 0,00 0,00 0,00 0,00 0,00 2.105,00 28.443,52 3.995,11 5.548,53 0,00 0,00 9.543,64 18.899,88 30/09/2023
194 257400 ANA FLAVIA CAMBRAIA ANALISTA DO MP BELO HORIZONTE - COMARCA; BH-19PJ SAUDE-SECRETARIA 150PJ 23.070,31 9.228,12 0,00 0,00 0,00 0,00 2.201,69 7.272,75 41.772,87 5.795,34 10.354,77 0,00 0,00 16.150,11 25.622,76 30/09/2023
195 248201 ANA FLAVIA DE MORAIS SOUZA ANALISTA DO MP DIVINÓPOLIS - COMARCA; DIVINOPOLIS-PJ-01PJ 14.960,00 5.984,00 0,00 0,00 0,00 0,00 0,00 3.055,00 23.999,00 3.131,99 4.562,59 0,00 0,00 7.694,58 16.304,42 30/09/2023
196 621100 ANA FLAVIA DINIZ TEODORO OFICIAL DO MP SANTA LUZIA - COMARCA; SANTA LUZIA-PJ-06PJ 7.506,70 750,67 0,00 0,00 0,00 0,00 0,00 2.105,00 10.362,37 1.102,13 1.082,73 0,00 0,00 2.184,86 8.177,51 30/09/2023
197 238600 ANA FLAVIA FRANCO OFICIAL DO MP BELO HORIZONTE - COMARCA; DIRETORIA DE PESSOAL ADMINISTRATIVO - DPAD 18.130,77 7.252,31 0,00 0,00 0,00 0,00 1.653,04 2.105,00 29.141,12 5.585,76 7.799,75 0,00 0,00 13.385,51 15.755,61 30/09/2023
198 402900 ANA FLAVIA PORTES DE CARVALHO ANALISTA DO MP BELO HORIZONTE - COMARCA; DIRET DE PLANOS PROJETOS E PROGRAMAS INST 18.720,84 5.616,25 0,00 0,00 0,00 0,00 1.483,17 2.105,00 27.925,26 5.217,97 7.188,60 0,00 0,00 12.406,57 15.518,69 30/09/2023
199 382700 ANA KARENINA SALDANHA GONTIJO ANALISTA DO MP BELO HORIZONTE - COMARCA; ASSESS TECNICO-JUR JUNTO AS PROC. DE JUST 18.999,41 5.699,82 0,00 0,00 0,00 0,00 271,69 5.068,91 30.039,83 5.347,16 7.420,44 0,00 0,00 12.767,60 17.272,23 30/09/2023
200 620500 ANA KARINE DE ANDRADE OLIVEIRA ANALISTA DO MP RIBEIRÃO DAS NEVES - COMARCA; RIBEIRAO NEVES-SEC PJ EXECUCAO PENAL 10.516,49 1.051,65 0,00 0,00 0,00 0,00 0,00 2.105,00 13.673,14 1.631,85 1.847,52 0,00 0,00 3.479,37 10.193,77 30/09/2023
201 462200 ANA LUCIA ANDRADE TOMICH OTTONI ANALISTA DO MP TEÓFILO OTONI - COMARCA; TEOFILO OTONI-PJ-07PJ 12.343,61 2.468,72 0,00 0,00 0,00 0,00 0,00 3.055,00 17.867,33 2.150,92 2.492,65 0,00 0,00 4.643,57 13.223,76 30/09/2023
202 504100 ANA LUCIA CATAO DE CARVALHO OFICIAL DO MP BELO HORIZONTE - COMARCA; DIR RELACOES INSTITUCIONAIS 10.516,49 2.103,30 4.020,58 0,00 0,00 0,00 763,16 2.105,00 19.508,53 2.400,16 4.010,28 0,00 0,00 6.410,44 13.098,09 30/09/2023
203 274700 ANA LUCIA DE ALENCAR BRAGATO OFICIAL DO MP UBERABA - COMARCA; UBERABA-PJ-07PJ 12.343,61 4.937,44 0,00 0,00 0,00 0,00 1.234,36 2.105,00 20.620,41 2.743,41 3.452,34 0,00 0,00 6.195,75 14.424,66 30/09/2023
204 509400 ANA LUCIA DORNELAS MALLOSTO ANALISTA DO MP JUIZ DE FORA - COMARCA; JUIZ DE FORA-PJ-25PJ 12.343,61 2.468,72 0,00 0,00 0,00 0,00 0,00 2.105,00 16.917,33 2.150,92 2.544,79 0,00 0,00 4.695,71 12.221,62 30/09/2023
205 302600 ANA LUCIA LOPES SANTOS OFICIAL DO MP BELO HORIZONTE - COMARCA; DIVISÃO DE FISCALIZAÇÃO DAS RELAÇÕES DE CONSU 12.343,61 3.703,08 0,00 0,00 0,00 0,00 1.771,66 2.105,00 19.923,35 2.348,42 3.317,13 0,00 0,00 5.665,55 14.257,80 30/09/2023
206 716700 ANA LUISA DE LANA COELHO ASSESSOR PROCURADOR JUSTICA BELO HORIZONTE - COMARCA; PROC. JUSTICA CIVEL 0,00 0,00 8.810,89 0,00 0,00 0,00 0,00 2.105,00 10.915,89 876,95 1.709,37 0,00 0,00 2.586,32 8.329,57 30/09/2023
207 702000 ANA LUISA DE OLIVEIRA RIBEIRO ASSESSOR PROCURADOR JUSTICA BELO HORIZONTE - COMARCA; ASSESS TECNICO-JUR JUNTO AS PROC. DE JUST 0,00 0,00 8.810,89 0,00 0,00 0,00 0,00 2.105,00 10.915,89 876,95 1.709,37 0,00 0,00 2.586,32 8.329,57 30/09/2023
208 493400 ANA LUISA NOGUEIRA MOREIRA ANALISTA DO MP BELO HORIZONTE - COMARCA; BH-19PJ SAUDE-SECRETARIA 130PJ 12.343,61 2.468,72 0,00 0,00 0,00 0,00 0,00 2.105,00 16.917,33 2.150,92 2.596,93 0,00 0,00 4.747,85 12.169,48 30/09/2023
209 389300 ANA LUISA REUTER LIMA ANALISTA DO MP BELO HORIZONTE - COMARCA; DIRETORIA DE SISTEMAS DE INFORMACAO 18.720,84 5.616,25 5.538,92 0,00 0,00 0,00 1.520,66 2.105,00 33.501,67 5.282,78 9.571,54 0,00 0,00 14.854,32 18.647,35 30/09/2023
210 480600 ANA LUIZA FERNANDES FRAGA E GRECO COORDENADOR I BELO HORIZONTE - COMARCA; OUVIDORIA DO MPMG 16.469,17 3.293,83 0,00 0,00 0,00 0,00 168,51 2.105,00 22.036,51 1.643,30 4.097,96 0,00 0,00 5.741,26 16.295,25 30/09/2023
211 726800 ANA LUIZA GOMES PEREIRA ASSESSOR ADMINISTRATIVO I BELO HORIZONTE - COMARCA; OUVIDORIA DO MPMG 0,00 0,00 4.872,71 0,00 0,00 0,00 0,00 2.105,00 6.977,71 718,08 670,06 0,00 0,00 1.388,14 5.589,57 30/09/2023
212 733600 ANA LUIZA MACHADO RODRIGUES ASSESSOR PROMOTOR JUSTICA CARMO DA MATA - COMARCA; CARMO DA MATA-PJ-UNPJ 0,00 0,00 8.810,89 0,00 0,00 0,00 0,00 2.105,00 10.915,89 876,95 1.709,37 0,00 0,00 2.586,32 8.329,57 30/09/2023
213 517800 ANA LUIZA MAGALHAES CIRINO PIOTO DE MELO OFICIAL DO MP BELO HORIZONTE - COMARCA; DIVISAO DE MATERIAIS 6.818,83 681,88 0,00 0,00 0,00 0,00 0,00 4.005,00 11.505,71 981,10 907,93 0,00 0,00 1.889,03 9.616,68 30/09/2023
214 481400 ANA MARCIA CANDIDA FERREIRA OFICIAL DO MP BRUMADINHO - COMARCA; BRUMADINHO-PJ-02PJ 7.506,70 1.501,34 0,00 0,00 0,00 0,00 0,00 2.105,00 11.113,04 1.222,23 1.256,14 0,00 0,00 2.478,37 8.634,67 30/09/2023
215 643100 ANA MARIA LOPES MIRANDA ANALISTA DO MP BELO HORIZONTE - COMARCA; CAO-FUNDACOES 10.341,72 1.034,17 0,00 0,00 3.791,96 0,00 542,25 8.970,46 24.680,56 982,16 2.856,53 0,00 0,00 3.838,69 20.841,87 30/09/2023
216 556400 ANA MARIA OLIVEIRA SOUZA OFICIAL DO MP ITAPECERICA - COMARCA; ITAPECERICA-PJ-UNPJ 8.003,54 1.600,71 0,00 0,00 0,00 0,00 0,00 2.105,00 11.709,25 1.317,63 1.393,86 0,00 0,00 2.711,49 8.997,76 30/09/2023
217 409600 ANA OLIVIA FARIA ROSENBURG ANALISTA DO MP BELO HORIZONTE - COMARCA; DIRETORIA DO COLEGIO E DA CAMARA DE PJ 18.130,77 7.252,31 0,00 0,00 0,00 0,00 0,00 2.105,00 27.488,08 3.842,24 5.038,77 0,00 0,00 8.881,01 18.607,07 30/09/2023
218 461500 ANA PAULA ALVES CARVALHO ANALISTA DO MP UBERLÂNDIA - COMARCA; UBERLANDIA-PJ-25PJ 13.160,57 2.632,11 0,00 0,00 0,00 0,00 972,13 3.055,00 19.819,81 2.540,14 3.054,58 0,00 0,00 5.594,72 14.225,09 30/09/2023
219 523200 ANA PAULA ALVES DA SILVA OFICIAL DO MP GOVERNADOR VALADARES - COMARCA; GOVERNADOR VALADARES-PJ-10PJ 9.699,77 1.939,95 0,00 0,00 0,00 0,00 0,00 5.905,00 17.544,72 982,16 1.856,37 0,00 0,00 2.838,53 14.706,19 30/09/2023
220 381200 ANA PAULA BARROS PEREIRA RIGHI ANALISTA DO MP BELO HORIZONTE - COMARCA; PROC JUST ATUACAO TRIBUNAIS SUPERIORES-GAB004 18.720,84 5.616,25 0,00 0,00 0,00 0,00 1.258,05 3.055,00 28.650,14 982,16 7.910,34 0,00 0,00 8.892,50 19.757,64 30/09/2023
221 696400 ANA PAULA CARVALHO SILVA ASSESSOR PROMOTOR JUSTICA PERDÕES - COMARCA; PERDOES-PJ-UNPJ 0,00 0,00 8.810,89 0,00 0,00 0,00 0,00 3.055,00 11.865,89 876,95 1.657,24 0,00 0,00 2.534,19 9.331,70 30/09/2023
222 700900 ANA PAULA CRAVO SALOME ASSESSOR ADMINISTRATIVO I BELO HORIZONTE - COMARCA; PROCURADOR-GERAL DE JUSTIÇA 0,00 0,00 4.872,71 0,00 0,00 0,00 0,00 2.105,00 6.977,71 742,68 663,30 0,00 0,00 1.405,98 5.571,73 30/09/2023
223 227200 ANA PAULA DA SILVA CAMPOLINA ANALISTA DO MP BELO HORIZONTE - COMARCA; DIRETORIA DE ORCAMENTO-DIOR/SPC 23.070,31 11.535,16 0,00 0,00 0,00 0,00 2.208,23 2.105,00 38.918,70 5.795,34 10.867,01 0,00 0,00 16.662,35 22.256,35 30/09/2023
224 278500 ANA PAULA DIAS CAPANEMA OFICIAL DO MP BELO HORIZONTE - COMARCA; DIRETORIA DE SEGURANCA 13.160,57 3.948,17 0,00 0,00 0,00 0,00 1.244,99 2.105,00 20.458,73 3.478,93 4.514,24 0,00 0,00 7.993,17 12.465,56 30/09/2023
225 327300 ANA PAULA GARCIA MAXIMO OFICIAL DO MP UNAÍ - COMARCA; UNAI-PJ-01PJ 15.447,01 7.723,51 0,00 0,00 0,00 0,00 1.453,66 2.105,00 26.729,18 5.027,15 6.800,76 0,00 0,00 11.827,91 14.901,27 30/09/2023
226 738700 ANA PAULA GOMES ANTUNES ASSESSOR PROMOTOR JUSTICA CORAÇÃO DE JESUS - COMARCA; CORACAO DE JESUS-PJ-UNPJ 0,00 0,00 8.810,89 0,00 0,00 0,00 0,00 2.105,00 10.915,89 876,95 1.709,37 0,00 0,00 2.586,32 8.329,57 30/09/2023
227 270000 ANA PAULA GOULART CRUZ DE MAGALHAES ANALISTA DO MP BELO HORIZONTE - COMARCA; ASSESSORIA ESPECIAL DO PGJ 23.070,31 6.921,09 0,00 0,00 0,00 0,00 1.911,34 2.105,00 34.007,74 5.795,34 8.522,91 0,00 0,00 14.318,25 19.689,49 30/09/2023
228 262100 ANA PAULA KOMATSUZAKI ABIJAUDI ANALISTA DO MP BELO HORIZONTE - COMARCA; BH-17PJ PATRIMONIO PUBLICO-SECRETARIA 23.070,31 11.535,16 0,00 0,00 0,00 0,00 54,91 2.105,00 36.765,38 5.795,34 10.586,41 0,00 0,00 16.381,75 20.383,63 30/09/2023
229 278900 ANA PAULA MOREIRA GURGEL ANALISTA DO MP BELO HORIZONTE - COMARCA; ASSESSORIA JURIDICO-ADMINISTRATIVA 23.070,31 11.535,16 8.404,02 0,00 0,00 0,00 0,00 2.105,00 45.114,49 5.317,82 7.989,88 5.419,53 0,00 18.727,23 26.387,26 30/09/2023
230 745500 ANA PAULA OLIVEIRA MENDES OFICIAL DO MP TARUMIRIM - COMARCA; TARUMIRIM-PJ-UNPJ 4.570,25 0,00 0,00 0,00 0,00 0,00 0,00 2.105,00 6.675,25 526,88 257,78 0,00 0,00 784,66 5.890,59 30/09/2023
231 425701 ANA PAULA ROCHA ANALISTA DO MP BELO HORIZONTE - COMARCA; ASSESSORIA DE COMUNICACAO INTEGRADA 12.343,61 2.468,72 0,00 0,00 0,00 0,00 0,00 3.055,00 17.867,33 2.150,92 2.596,93 0,00 0,00 4.747,85 13.119,48 30/09/2023
232 395601 ANA PAULA SALGE OLIVEIRA ANALISTA DO MP UBERABA - COMARCA; UBERABA-PJ-15PJ 12.343,61 4.937,44 0,00 0,00 0,00 0,00 0,00 2.105,00 19.386,05 2.545,92 3.167,20 0,00 0,00 5.713,12 13.672,93 30/09/2023
233 473200 ANA PAULA SCOTTON BRASIL ANALISTA DO MP JUIZ DE FORA - COMARCA; JUIZ DE FORA-PJ-09PJ 12.343,61 2.468,72 0,00 0,00 0,00 0,00 0,00 2.105,00 16.917,33 2.150,92 2.596,93 0,00 0,00 4.747,85 12.169,48 30/09/2023
234 633600 ANA PAULA SILVA FERNANDES OFICIAL DO MP CATAGUASES - COMARCA; CATAGUASES-PJ-04PJ 7.270,07 727,01 0,00 0,00 0,00 0,00 0,00 2.105,00 10.102,08 1.060,48 1.022,61 0,00 0,00 2.083,09 8.018,99 30/09/2023
235 470900 ANA PAULA VALADARES ANALISTA DO MP PITANGUI - COMARCA; PITANGUI-PJ-01PJ 12.343,61 2.468,72 0,00 0,00 0,00 0,00 0,00 2.105,00 16.917,33 2.150,92 2.492,65 0,00 0,00 4.643,57 12.273,76 30/09/2023
236 447000 ANA PAULA VALENTIM DE ARAUJO ANALISTA DO MP BELO HORIZONTE - COMARCA; PROC JUST ESP ACOES COMP ORIG CRIMINAL-ASSESS 13.588,97 2.717,79 0,00 0,00 0,00 0,00 1.184,18 5.366,35 22.857,29 2.776,80 3.500,53 0,00 0,00 6.277,33 16.579,96 30/09/2023
237 604200 ANA PAULA VIANA E SILVA OFICIAL DO MP BELO HORIZONTE - COMARCA; BH-17PJ PATRIMONIO PUBLICO-SECRETARIA 7.506,70 750,67 0,00 0,00 0,00 0,00 0,00 2.105,00 10.362,37 1.102,13 1.082,73 0,00 0,00 2.184,86 8.177,51 30/09/2023
238 505400 ANA PAULA VIEIRA SOUTO OFICIAL DO MP ALMENARA - COMARCA; ALMENARA-PJ-01PJ 7.506,70 3.002,68 0,00 0,00 0,00 0,00 0,00 2.105,00 12.614,38 1.462,45 1.550,81 0,00 0,00 3.013,26 9.601,12 30/09/2023
239 280200 ANA RACHEL BRANDAO LADEIRA ROLAND ANALISTA DO MP BELO HORIZONTE - COMARCA; SUPERINTENDENCIA GESTÃO DE PESSOAS 23.070,31 6.921,09 8.404,02 0,00 0,00 0,00 884,89 2.105,00 41.385,31 5.795,34 9.312,83 805,46 0,00 15.913,63 25.471,68 30/09/2023
240 601200 ANA REGINA RIBEIRO ANALISTA DO MP BELO HORIZONTE - COMARCA; DIV FISCAL ADM CONT TERCEIRIZACAO 12.343,61 2.468,72 4.940,75 0,00 0,00 0,00 2.559,47 2.105,00 24.417,55 982,16 6.393,62 0,00 0,00 7.375,78 17.041,77 30/09/2023
241 384700 ANA RODRIGUES PEREIRA MARRA ANALISTA DO MP COROMANDEL - COMARCA; COROMANDEL-PJ-01PJ 12.343,61 3.703,08 0,00 0,00 0,00 0,00 0,00 3.055,00 19.101,69 2.348,42 2.777,79 0,00 0,00 5.126,21 13.975,48 30/09/2023
242 232700 ANA SILVIA SEMBLANO NAKAMURA OFICIAL DO MP BELO HORIZONTE - COMARCA; CENT DE APOIO TEC-SETOR DEF,IDOSO E INFANC 12.343,61 4.937,44 4.020,58 0,00 0,00 0,00 1.218,13 2.105,00 24.624,76 3.699,62 6.615,95 0,00 0,00 10.315,57 14.309,19 30/09/2023
243 602100 ANACLETO FRANCISCO MARCIER PIMENTA OFICIAL DO MP SÃO JOÃO DEL REI - COMARCA; SAO JOAO DEL REI-PJ-03PJ 7.506,70 750,67 0,00 0,00 0,00 0,00 0,00 4.005,00 12.262,37 1.102,13 822,04 0,00 0,00 1.924,17 10.338,20 30/09/2023
244 310400 ANADEJE DO CARMO DINIZ ARAUJO OFICIAL DO MP BELO HORIZONTE - COMARCA; DIRETORIA DE PESSOAL ADMINISTRATIVO - DPAD 12.343,61 3.703,08 0,00 0,00 0,00 0,00 0,00 2.105,00 18.151,69 2.348,42 2.882,06 0,00 0,00 5.230,48 12.921,21 30/09/2023
245 337000 ANAILDES MARIA MENDES OFICIAL DO MP JANAÚBA - COMARCA; JANAUBA-PJ-02PJ 12.343,61 3.703,08 0,00 0,00 0,00 0,00 0,00 3.055,00 19.101,69 2.348,42 2.882,06 0,00 0,00 5.230,48 13.871,21 30/09/2023
246 750200 ANALU BATISTA TORQUATO ARAUJO ASSESSOR DE CAO BELO HORIZONTE - COMARCA; CAO-ORDEM ECONOMICA E TRIBUTARIA 0,00 0,00 6.756,03 0,00 0,00 0,00 0,00 2.036,82 8.792,85 876,95 1.125,54 0,00 0,00 2.002,49 6.790,36 30/09/2023
247 377400 ANDEIRSON DA MATTA BARBOSA ANALISTA DO MP POUSO ALEGRE - COMARCA; POUSO ALEGRE-PJ-01PJ 12.343,61 3.703,08 0,00 0,00 0,00 0,00 0,00 3.055,00 19.101,69 2.348,42 2.882,06 0,00 0,00 5.230,48 13.871,21 30/09/2023
248 317400 ANDERSON DA SILVA BICALHO OFICIAL DO MP CONTAGEM - COMARCA; CONTAGEM-PJ-SECRETARIA 11.954,43 3.586,33 0,00 0,00 0,00 0,00 843,68 2.105,00 18.489,44 2.328,00 2.696,18 0,00 0,00 5.024,18 13.465,26 30/09/2023
249 506900 ANDERSON DE SOUZA DAMIANI ANALISTA DO MP BELO HORIZONTE - COMARCA; DIRETORIA DE PAGAMENTO DE PESSOAL-DPAG 12.343,61 4.937,44 5.538,92 0,00 0,00 0,00 1.550,60 2.105,00 26.475,57 3.699,62 7.177,09 0,00 0,00 10.876,71 15.598,86 30/09/2023
250 410000 ANDERSON DE SOUZA NETO ASSESSOR ADMINISTRATIVO II BELO HORIZONTE - COMARCA; DIRETORIA DE ADMINISTRACAO FINANCEIRA 0,00 0,00 7.506,70 0,00 0,00 0,00 0,00 2.105,00 9.611,70 876,95 1.350,72 0,00 0,00 2.227,67 7.384,03 30/09/2023
251 181900 ANDERSON FLAVIO DE OLIVEIRA OFICIAL DO MP ITAGUARA - COMARCA; ITAGUARA-PJ-SECRETARIA 18.130,77 7.252,31 0,00 0,00 0,00 0,00 1.414,80 2.105,00 28.902,88 5.599,62 7.827,69 0,00 0,00 13.427,31 15.475,57 30/09/2023
252 333200 ANDERSON JOSE DE FREITAS OFICIAL DO MP IPATINGA - COMARCA; IPATINGA-PJ-04PJ 12.343,61 3.703,08 0,00 0,00 0,00 0,00 1.771,66 3.055,00 20.873,35 2.348,42 3.212,86 0,00 0,00 5.561,28 15.312,07 30/09/2023
253 699400 ANDERSON LUIZ CABRAL ASSESSOR PROMOTOR JUSTICA ALÉM PARAÍBA - COMARCA; ALEM PARAIBA-PJ-03PJ 0,00 0,00 8.810,89 0,00 2.936,96 0,00 0,00 2.105,00 13.852,85 876,95 2.517,04 0,00 0,00 3.393,99 10.458,86 30/09/2023
254 462100 ANDERSON LUIZ GUIMARAES CARDOSO ANALISTA DO MP BARBACENA - COMARCA; BARBACENA-PJ-02PJ 14.960,00 3.889,60 0,00 0,00 0,00 0,00 128,17 2.105,00 21.082,77 3.836,54 5.208,56 0,00 0,00 9.045,10 12.037,67 30/09/2023
255 429700 ANDERSON MELO DE SOUZA COORDENADOR II BELO HORIZONTE - COMARCA; DIRET DE ESTAGIOS E CONVENIOS ACADEMICOS 20.533,67 4.106,73 0,00 0,00 0,00 0,00 0,00 2.105,00 26.745,40 1.222,23 5.555,04 0,00 0,00 6.777,27 19.968,13 30/09/2023
256 545600 ANDERSON MENDES PROCOPIO FERREIRA ANALISTA DO MP BELO HORIZONTE - COMARCA; BH-12PJ JUIZO CRIMINAL-GAB 089PJ 12.343,61 2.468,72 0,00 0,00 0,00 0,00 0,00 2.105,00 16.917,33 2.150,92 2.596,93 0,00 0,00 4.747,85 12.169,48 30/09/2023
257 519900 ANDERSON MOREIRA DOEHLER ANALISTA DO MP TEÓFILO OTONI - COMARCA; COORD REG SAUDE MACRORREGIAO SANIT NORDESTE 12.343,61 4.937,44 0,00 0,00 5.760,35 0,00 1.465,88 8.326,18 32.833,46 3.421,88 6.068,53 0,00 0,00 9.490,41 23.343,05 30/09/2023
258 103000 ANDERSON TADEU DE DEUS ASSESSOR ADMINISTRATIVO II BELO HORIZONTE - COMARCA; BH-26 CRIME CONT CRIAN ADOL-SECRETARIA 0,00 6.005,36 7.506,70 0,00 0,00 0,00 0,00 6.609,02 20.121,08 876,95 3.002,20 0,00 0,00 3.879,15 16.241,93 30/09/2023
259 309200 ANDITYAS SOARES DE MOURA COSTA MATOS ANALISTA DO MP BELO HORIZONTE - COMARCA; GABINETE DE PROCURADOR DE JUSTIÇA - SALA 909 20.533,67 8.213,47 0,00 0,00 0,00 0,00 0,00 2.105,00 30.852,14 4.380,49 6.679,98 0,00 0,00 11.060,47 19.791,67 30/09/2023
260 519200 ANDRE BORJA LANA ANALISTA DO MP BELO HORIZONTE - COMARCA; DIR CONTEUDO JORNALISTICO 12.343,61 2.468,72 0,00 0,00 0,00 0,00 0,00 3.055,00 17.867,33 2.150,92 2.596,93 0,00 0,00 4.747,85 13.119,48 30/09/2023
261 637200 ANDRE FERNANDES DA CUNHA OFICIAL DO MP MORADA NOVA DE MINAS - COMARCA; MORADA NOVA DE MINAS-PJ-UNPJ 7.270,07 727,01 0,00 0,00 0,00 0,00 0,00 2.105,00 10.102,08 982,16 1.044,14 0,00 0,00 2.026,30 8.075,78 30/09/2023
262 651500 ANDRE GONCALVES MARANHAO OFICIAL DO MP ANDRADAS - COMARCA; ANDRADAS-PJ-02PJ 6.097,80 609,78 0,00 0,00 0,00 0,00 0,00 2.105,00 8.812,58 858,46 723,55 0,00 0,00 1.582,01 7.230,57 30/09/2023
263 521900 ANDRE LUIS GOMES SILVA ANALISTA DO MP FORMIGA - COMARCA; FORMIGA-PJ-02PJ 12.343,61 2.468,72 0,00 0,00 0,00 0,00 0,00 4.480,00 19.292,33 2.150,92 2.043,38 0,00 0,00 4.194,30 15.098,03 30/09/2023
264 304300 ANDRE LUIZ AVELAR ANALISTA DO MP BELO HORIZONTE - COMARCA; DIRETORIA DE REDES E BANCOS DE DADOS 10.341,72 3.102,52 0,00 0,00 0,00 0,00 0,00 2.105,00 15.549,24 1.932,03 2.228,76 0,00 0,00 4.160,79 11.388,45 30/09/2023
265 397400 ANDRE PATARO MYRRHA DE PAULA E SILVA ANALISTA DO MP BELO HORIZONTE - COMARCA; ASSESSORIA JURIDICO-ADMINISTRATIVA 18.720,84 5.616,25 0,00 0,00 0,00 0,00 1.434,60 3.055,00 28.826,69 5.217,97 7.240,73 0,00 0,00 12.458,70 16.367,99 30/09/2023
266 650100 ANDRE THOME VARGAS OFICIAL DO MP LEOPOLDINA - COMARCA; LEOPOLDINA-PJ-04PJ 6.603,76 660,38 0,00 0,00 0,00 0,00 0,00 2.105,00 9.369,14 944,43 852,96 0,00 0,00 1.797,39 7.571,75 30/09/2023
267 548500 ANDRE VINICIUS CARVALHO MEIRA ANALISTA DO MP JUIZ DE FORA - COMARCA; JUIZ DE FORA-PJ-24PJ 12.343,61 2.468,72 0,00 0,00 0,00 0,00 802,48 2.105,00 17.719,81 982,16 4.365,62 0,00 0,00 5.347,78 12.372,03 30/09/2023
268 297200 ANDRE WILLE ROSARIO ANALISTA DO MP BELO HORIZONTE - COMARCA; ASSESSORIA ESPECIAL DO PGJ 23.070,31 6.921,09 0,00 0,00 0,00 0,00 118,96 2.105,00 32.215,36 5.795,34 9.189,14 0,00 0,00 14.984,48 17.230,88 30/09/2023
269 423600 ANDREA COSTA GUALBERTO ALVES ANALISTA DO MP GOVERNADOR VALADARES - COMARCA; COORD REG PJ DEF EDU DIR CRIANCA ADOL RIODOCE 17.559,01 14.047,21 0,00 437,69 0,00 8.885,13 0,00 2.105,00 43.034,04 4.837,94 7.754,61 0,00 0,00 12.592,55 30.441,49 30/09/2023
270 467300 ANDREA DE CASSIA PENNA ALVERNAZ ANALISTA DO MP PONTE NOVA - COMARCA; PONTE NOVA-PJ-01PJ 12.343,61 2.468,72 0,00 0,00 0,00 0,00 0,00 2.105,00 16.917,33 2.150,92 2.544,79 0,00 0,00 4.695,71 12.221,62 30/09/2023
271 308000 ANDREA DE CASSIA SANTOS OLIVEIRA ANALISTA DO MP BELO HORIZONTE - COMARCA; COORD DE GABINETE DO PGJ 22.191,68 6.657,50 0,00 0,00 0,00 0,00 0,00 2.105,00 30.954,18 5.723,26 7.988,43 0,00 0,00 13.711,69 17.242,49 30/09/2023
272 349500 ANDREA DE OLIVEIRA LOIOLA REGIS OFICIAL DO MP IGUATAMA - COMARCA; IGUATAMA-PJ-UNPJ 12.343,61 3.703,08 0,00 0,00 0,00 0,00 0,00 2.105,00 18.151,69 2.348,42 2.777,79 0,00 0,00 5.126,21 13.025,48 30/09/2023
273 287900 ANDREA FERNANDES PENA MARTINS OFICIAL DO MP MONTES CLAROS - COMARCA; MONTES CLAROS-PJ-09PJ 12.343,61 3.703,08 0,00 0,00 0,00 0,00 0,00 2.105,00 18.151,69 2.348,42 2.777,79 0,00 0,00 5.126,21 13.025,48 30/09/2023
274 300800 ANDREA FERREIRA ANALISTA DO MP LAVRAS - COMARCA; LAVRAS-PJ-04PJ 21.346,53 6.403,96 0,00 0,00 0,00 0,00 0,00 2.105,00 29.855,49 5.646,94 7.919,49 0,00 0,00 13.566,43 16.289,06 30/09/2023
275 395100 ANDREA LANNA MENDES NOVAIS ANALISTA DO MP BELO HORIZONTE - COMARCA; PROMOT ESTADUAL DE DEF PATRI CULT E TUR DE MG 18.720,84 5.616,25 0,00 0,00 0,00 0,00 1.219,56 2.105,00 27.661,65 5.230,23 7.213,31 0,00 0,00 12.443,54 15.218,11 30/09/2023
276 67300 ANDREA LEAO MAGALHAES ROQUE ASSESSOR ADMINISTRATIVO IV BELO HORIZONTE - COMARCA; GRUPO ATUACAO ESP COMB CRIMES CIBER 0,00 11.590,57 14.488,22 0,00 482,94 0,00 1.357,43 2.105,00 30.024,16 876,95 9.667,22 0,00 0,00 10.544,17 19.479,99 30/09/2023
277 335700 ANDREA LOPES PEREIRA ANALISTA DO MP GOVERNADOR VALADARES - COMARCA; COORD REG DO MA DA BACIA DO RIO DOCE 22.191,68 6.657,50 0,00 0,00 0,00 0,00 0,00 2.105,00 30.954,18 5.795,34 9.130,27 0,00 0,00 14.925,61 16.028,57 30/09/2023
278 419000 ANDREIA BARBOSA DE ALMEIDA ANALISTA DO MP BELO HORIZONTE - COMARCA; CENT ESTAD COOPERACAO TECNICO-JURIDICA 17.559,01 3.511,80 0,00 0,00 0,00 0,00 0,00 2.105,00 23.175,81 3.310,28 4.270,75 0,00 0,00 7.581,03 15.594,78 30/09/2023
279 281501 ANDREIA CARLA COSTA ANALISTA DO MP UBÁ - COMARCA; UBA-PJ-02PJ 18.130,77 4.714,00 0,00 0,00 0,00 0,00 1.446,64 2.105,00 26.396,41 4.942,43 6.842,93 0,00 0,00 11.785,36 14.611,05 30/09/2023
280 477100 ANDREIA DE ALMEIDA RIBEIRO MELO OFICIAL DO MP CONTAGEM - COMARCA; CONTAGEM-PJ-SECRETARIA 10.516,49 3.154,95 0,00 0,00 0,00 0,00 695,40 2.105,00 16.471,84 2.838,25 3.704,67 0,00 0,00 6.542,92 9.928,92 30/09/2023
281 619000 ANDREIA FERREIRA NORONHA COORDENADOR II BELO HORIZONTE - COMARCA; DIRETORIA DE SERVICO CRIMINAL 20.533,67 2.053,37 0,00 0,00 0,00 0,00 1.371,56 2.105,00 26.063,60 1.265,36 5.259,05 0,00 0,00 6.524,41 19.539,19 30/09/2023
282 747000 ANDREIA FERREIRA TIAGO OFICIAL DO MP SÃO JOÃO DA PONTE - COMARCA; SAO JOAO DA PONTE-PJ-UNPJ 4.570,25 0,00 0,00 0,00 0,00 0,00 0,00 3.055,00 7.625,25 526,88 257,78 0,00 0,00 784,66 6.840,59 30/09/2023
283 424000 ANDREIA LUCIA COUTO ANALISTA DO MP BELO HORIZONTE - COMARCA; BH-18PJ DIREITOS HUMANOS-SECRETARIA 18.130,77 3.626,15 0,00 0,00 0,00 0,00 1.181,09 2.105,00 25.043,01 4.768,38 6.591,63 0,00 0,00 11.360,01 13.683,00 30/09/2023
284 370100 ANDREIA MARIA SILVA PINTO OFICIAL DO MP CORONEL FABRICIANO - COMARCA; CORONEL FABRICIANO-PJ-01PJ 12.343,61 3.703,08 0,00 0,00 0,00 0,00 0,00 3.055,00 19.101,69 982,16 3.081,66 0,00 0,00 4.063,82 15.037,87 30/09/2023
285 382100 ANDREIA NATALI PEREIRA DE OLIVEIRA OFICIAL DO MP PRADOS - COMARCA; PRADOS-PJ-UNPJ 12.343,61 3.703,08 0,00 0,00 0,00 0,00 809,52 2.105,00 18.961,21 3.416,67 4.571,23 0,00 0,00 7.987,90 10.973,31 30/09/2023
286 275200 ANDREIA RIBEIRO FREITAS OFICIAL DO MP VIÇOSA - COMARCA; VICOSA-PJ-04PJ 13.160,57 5.264,23 0,00 0,00 0,00 0,00 986,55 2.105,00 21.516,35 4.148,62 5.593,27 0,00 0,00 9.741,89 11.774,46 30/09/2023
287 352200 ANDREIA XAVIER PEREIRA OFICIAL DO MP DIVINÓPOLIS - COMARCA; DIVINOPOLIS-PJ-08PJ 12.343,61 3.703,08 0,00 0,00 0,00 0,00 0,00 3.530,00 19.576,69 2.348,42 2.882,06 0,00 0,00 5.230,48 14.346,21 30/09/2023
288 638500 ANDRESA ALVES FEITOSA CASAGRANDE ANALISTA DO MP LAVRAS - COMARCA; COORD REG DO MA DA BACIA DO RIO GRANDE 11.212,54 1.121,25 0,00 0,00 0,00 0,00 691,77 2.105,00 15.130,56 982,16 3.771,77 0,00 0,00 4.753,93 10.376,63 30/09/2023
289 383700 ANDRESSA EDUARDO SOUZA ANALISTA DO MP OURO BRANCO - COMARCA; OURO BRANCO-PJ-SECRETARIA 18.720,84 5.616,25 0,00 0,00 0,00 0,00 1.258,10 3.055,00 28.650,19 5.245,88 7.281,02 0,00 0,00 12.526,90 16.123,29 30/09/2023
290 678400 ANDRESSA LUIZA SILVA LOPES ASSESSOR PROMOTOR JUSTICA CARMO DO PARANAÍBA - COMARCA; CARMO DO PARANAIBA-PJ-02PJ 0,00 0,00 8.810,89 0,00 0,00 0,00 0,00 2.105,00 10.915,89 876,95 1.709,37 0,00 0,00 2.586,32 8.329,57 30/09/2023
291 426200 ANDRESSA MENDES CASAL OFICIAL DO MP BELO HORIZONTE - COMARCA; DIR ESTRUTURA E PROCESSOS ORGANIZACIONAIS 9.699,77 1.939,95 0,00 0,00 0,00 0,00 0,00 3.055,00 14.694,72 1.643,30 1.811,92 0,00 0,00 3.455,22 11.239,50 30/09/2023
292 390100 ANDRESSA RIBEIRO PUCCI OFICIAL DO MP UBERABA - COMARCA; UBERABA-PJ-14PJ 9.393,95 1.878,79 0,00 0,00 0,00 0,00 771,79 2.105,00 14.149,53 2.349,94 3.107,83 0,00 0,00 5.457,77 8.691,76 30/09/2023
293 462500 ANDREZA APARECIDA COSTA E SILVA ANALISTA DO MP CONSELHEIRO LAFAIETE - COMARCA; CONSELHEIRO LAFAIETE-PJ-02PJ 12.343,61 2.468,72 0,00 0,00 0,00 0,00 0,00 4.005,00 18.817,33 982,16 2.767,68 0,00 0,00 3.749,84 15.067,49 30/09/2023
294 677700 ANDREZA DE LOURDES FERREIRA DE PAIVA ASSESSOR PROMOTOR JUSTICA ABRE CAMPO - COMARCA; ABRE CAMPO-PJ-01PJ 0,00 0,00 8.810,89 0,00 0,00 0,00 0,00 2.105,00 10.915,89 876,95 1.709,37 0,00 0,00 2.586,32 8.329,57 30/09/2023
295 537800 ANDREZZA LUZIA DE OLIVEIRA ALVES ANALISTA DO MP PATOS DE MINAS - COMARCA; COORD REG PJ DEF EDU DIR CRI ADO AL PAR NOROE 12.343,61 2.468,72 0,00 0,00 0,00 0,00 0,00 2.105,00 16.917,33 2.150,92 2.544,79 0,00 0,00 4.695,71 12.221,62 30/09/2023
296 491600 ANE PATRICIA RIBEIRO DUARTE ANALISTA DO MP SETE LAGOAS - COMARCA; SETE LAGOAS-PJ-11PJ 12.343,61 2.468,72 0,00 0,00 0,00 0,00 0,00 2.105,00 16.917,33 2.150,92 2.544,79 0,00 0,00 4.695,71 12.221,62 30/09/2023
297 465800 ANELISE GAMA ASSESSOR ADMINISTRATIVO III BELO HORIZONTE - COMARCA; BH-18PJ VIOLENCIA DOMESTICA-SECRETARIA 0,00 0,00 10.858,90 0,00 0,00 0,00 0,00 2.105,00 12.963,90 876,95 2.272,58 0,00 0,00 3.149,53 9.814,37 30/09/2023
298 535200 ANELIZE FERNANDA ALVES VILARINHO OFICIAL DO MP CAPINÓPOLIS - COMARCA; CAPINOPOLIS-PJ-UNPJ 7.506,70 1.501,34 0,00 0,00 0,00 0,00 0,00 4.005,00 13.013,04 1.222,23 1.256,14 0,00 0,00 2.478,37 10.534,67 30/09/2023
299 197200 ANGELA COELHO SALDANHA OFICIAL DO MP PARÁ DE MINAS - COMARCA; PARA DE MINAS-PJ-03PJ 21.346,53 10.673,27 0,00 0,00 0,00 0,00 0,00 2.105,00 34.124,80 5.795,34 9.433,15 0,00 0,00 15.228,49 18.896,31 30/09/2023
300 307400 ANGELA CRISTINA GONCALVES MUNIZ ANALISTA DO MP UBERLÂNDIA - COMARCA; UBERLANDIA-PJ-SEC FAMILIA 23.070,31 9.228,12 0,00 0,00 0,00 0,00 473,71 7.272,75 40.044,89 5.795,34 9.837,00 0,00 0,00 15.632,34 24.412,55 30/09/2023
301 191800 ANGELA MARIA DE OLIVEIRA OFICIAL DO MP GUARANÉSIA - COMARCA; GUARANESIA-PJ-SECRETARIA 21.346,53 17.077,22 0,00 223,79 0,00 9.449,01 477,24 7.311,24 55.885,03 5.795,34 10.150,82 833,79 0,00 16.779,95 39.105,08 30/09/2023
302 497400 ANGELA MARIA HENRIQUES ANALISTA DO MP BELO HORIZONTE - COMARCA; COORD REG BACIAS RIO VELHAS E PARAOPEBA 12.343,61 2.468,72 0,00 0,00 0,00 0,00 0,00 2.105,00 16.917,33 2.150,92 2.596,93 0,00 0,00 4.747,85 12.169,48 30/09/2023
303 260700 ANGELICA CRISTINA AZEVEDO MOREIRA MOUCO OFICIAL DO MP UBÁ - COMARCA; UBA-PJ-05PJ 17.559,01 7.023,60 0,00 0,00 0,00 0,00 0,00 2.105,00 26.687,61 3.990,23 6.019,47 0,00 0,00 10.009,70 16.677,91 30/09/2023
304 708300 ANGELICA NUNES VIEIRA DA SILVA ASSESSOR PROMOTOR JUSTICA IBIRITÉ - COMARCA; IBIRITE-PJ-02PJ 0,00 0,00 8.810,89 0,00 0,00 0,00 0,00 2.105,00 10.915,89 876,95 1.709,37 0,00 0,00 2.586,32 8.329,57 30/09/2023
305 334600 ANGELICA PANISSA DE FREITAS GALLATI OFICIAL DO MP GUAXUPÉ - COMARCA; GUAXUPE-PJ-02PJ 12.343,61 4.937,44 0,00 0,00 0,00 0,00 1.136,08 3.055,00 21.472,13 3.485,97 4.631,39 0,00 0,00 8.117,36 13.354,77 30/09/2023
306 521100 ANGELICA SALES MOREIRA OFICIAL DO MP BELO HORIZONTE - COMARCA; BH-02PJ FAMILIA-SECRETARIA 9.699,77 1.939,95 0,00 0,00 0,00 0,00 0,00 2.105,00 13.744,72 1.643,30 1.864,06 0,00 0,00 3.507,36 10.237,36 30/09/2023
307 466500 ANGELLO MARQUES AGRELLI ANALISTA DO MP MAR DE ESPANHA - COMARCA; MAR DE ESPANHA-PJ-UNPJ 12.343,61 2.468,72 0,00 0,00 0,00 0,00 0,00 3.055,00 17.867,33 2.150,92 2.596,93 0,00 0,00 4.747,85 13.119,48 30/09/2023
308 363300 ANGELO VERDOLIN HENRIQUES ANALISTA DO MP SETE LAGOAS - COMARCA; SETE LAGOAS-PJ-04PJ 21.346,53 8.538,61 0,00 0,00 0,00 0,00 59,27 2.105,00 32.049,41 5.795,34 8.826,21 0,00 0,00 14.621,55 17.427,86 30/09/2023
309 250900 ANISIO APARECIDO SANTOS OFICIAL DO MP BETIM - COMARCA; BETIM - SECRETARIA DAS PJS CRIMINAIS 7.506,70 3.002,68 0,00 0,00 0,00 0,00 0,00 2.105,00 12.614,38 1.462,45 932,38 0,00 0,00 2.394,83 10.219,55 30/09/2023
310 698100 ANNA CAROLINA POLICARIO BERTOLIN ASSESSOR PROCURADOR JUSTICA BELO HORIZONTE - COMARCA; PROC. JUSTICA DIR. DIFUSOS E COLETIVOS-SEC 0,00 0,00 8.810,89 0,00 0,00 0,00 0,00 2.105,00 10.915,89 876,95 1.709,37 0,00 0,00 2.586,32 8.329,57 30/09/2023
311 253400 ANNA FLAVIA LEHMAN ANALISTA DO MP BELO HORIZONTE - COMARCA; SUPRIN DE PLANEJAMENTO E COORDENACAO 23.070,31 9.228,12 8.404,02 0,00 0,00 0,00 275,66 5.112,20 46.090,31 4.948,70 6.321,73 3.112,49 0,00 14.382,92 31.707,39 30/09/2023
312 688800 ANNA LUIZA MATTOS DUARTE ASSESSOR PROCURADOR JUSTICA BELO HORIZONTE - COMARCA; GABINETE DE PROCURADOR DE JUSTICA - SALA 311 0,00 0,00 8.810,89 0,00 0,00 0,00 0,00 2.105,00 10.915,89 876,95 1.709,37 0,00 0,00 2.586,32 8.329,57 30/09/2023
313 447600 ANNGELUCE ALCANTARA DE CAMPOS OFICIAL DO MP DIVINÓPOLIS - COMARCA; DIVINOPOLIS-PJ-07PJ 10.341,72 3.102,52 0,00 0,00 0,00 0,00 847,74 2.105,00 16.396,98 2.243,44 2.730,50 0,00 0,00 4.973,94 11.423,04 30/09/2023
314 630300 ANTONIA GOMES RAMALHO OFICIAL DO MP NOVO CRUZEIRO - COMARCA; NOVO CRUZEIRO-PJ-UNPJ 7.506,70 750,67 0,00 0,00 0,00 0,00 0,00 4.005,00 12.262,37 1.102,13 1.082,73 0,00 0,00 2.184,86 10.077,51 30/09/2023
315 401600 ANTONIO CARLOS GUEDES AROUCA ANALISTA DO MP BELO HORIZONTE - COMARCA; ASSESSORIA JURIDICO-ADMINISTRATIVA 16.469,17 3.293,83 0,00 0,00 0,00 0,00 1.102,08 2.105,00 22.970,08 3.969,23 5.614,07 0,00 0,00 9.583,30 13.386,78 30/09/2023
316 333900 ANTONIO GONCALVES DE SOUZA FILHO OFICIAL DO MP BELO HORIZONTE - COMARCA; DIRETORIA DE CONTABILIDADE 12.343,61 3.703,08 0,00 0,00 0,00 0,00 0,00 2.105,00 18.151,69 2.348,42 2.882,06 0,00 0,00 5.230,48 12.921,21 30/09/2023
317 176100 ANTONIO MARCELO CAMPOS CAMPANELLA OFICIAL DO MP BELO HORIZONTE - COMARCA; COORD DE GABINETE DO PGJ 21.346,53 10.673,27 0,00 0,00 0,00 0,00 0,00 2.105,00 34.124,80 5.273,59 7.105,28 0,00 0,00 12.378,87 21.745,93 30/09/2023
318 321001 ANTONIO OLINTO VIEIRA MACHADO ANALISTA DO MP BELO HORIZONTE - COMARCA; CENTRAL DE APOIO TECN-SETOR DE MEIO AMBIENTE 18.720,84 5.616,25 0,00 388,83 0,00 5.833,77 1.497,38 2.105,00 34.162,07 5.230,23 8.632,83 0,00 0,00 13.863,06 20.299,01 30/09/2023
319 356200 ANTONIO PAULA DA SILVA OFICIAL DO MP JUIZ DE FORA - COMARCA; JUIZ DE FORA-PJ-20PJ 11.954,43 4.781,77 0,00 0,00 0,00 0,00 1.145,84 2.105,00 19.987,04 3.617,45 4.880,20 0,00 0,00 8.497,65 11.489,39 30/09/2023
320 119900 ANTONIO RODRIGUES DE PINHO OFICIAL DO MP GUANHÃES - COMARCA; GUANHAES-PJ-01PJ 20.533,67 16.426,94 0,00 0,00 0,00 0,00 3.186,73 2.433,54 42.580,88 5.795,34 8.501,42 0,00 0,00 14.296,76 28.284,12 30/09/2023
321 373300 ANTONIO SERGIO ANANIAS OFICIAL DO MP SÃO JOÃO NEPOMUCENO - COMARCA; SAO JOAO NEPOMUCENO-PJ-01PJ 11.212,54 3.363,76 0,00 0,00 0,00 0,00 0,00 2.105,00 16.681,30 982,16 2.801,29 0,00 0,00 3.783,45 12.897,85 30/09/2023
322 608100 ANTONIO SIDINEY VIEIRA LEMOS ANALISTA DO MP PIRAPORA - COMARCA; PIRAPORA-PJ-01PJ 11.577,56 5.788,78 0,00 0,00 0,00 0,00 1.123,18 3.055,00 21.544,52 3.150,82 3.988,39 0,00 0,00 7.139,21 14.405,31 30/09/2023
323 374700 ANTONIO SILVA NETO OFICIAL DO MP BELO HORIZONTE - COMARCA; GAECO - SECRETARIA 12.343,61 3.703,08 0,00 0,00 0,00 0,00 770,62 3.055,00 19.872,31 3.393,17 4.523,85 0,00 0,00 7.917,02 11.955,29 30/09/2023
324 636700 ANTONIUS VITORIANO FERNANDES OFICIAL DO MP BELO HORIZONTE - COMARCA; ASSESSORIA JURIDICA DO PROCON-MG 6.603,76 660,38 0,00 0,00 0,00 0,00 0,00 2.105,00 9.369,14 944,43 852,96 0,00 0,00 1.797,39 7.571,75 30/09/2023
325 413200 ANY PEREIRA SILVA ANALISTA DO MP TRÊS PONTAS - COMARCA; TRES PONTAS-PJ-01PJ 17.559,01 3.511,80 0,00 0,00 0,00 0,00 38,48 2.105,00 23.214,29 3.848,27 5.945,29 0,00 0,00 9.793,56 13.420,73 30/09/2023
326 151401 APARECIDA DE FATIMA MENDES DE ALMEIDA ASSESSOR ADMINISTRATIVO II JUIZ DE FORA - COMARCA; JUIZ DE FORA-PJ-SECRETARIA 0,00 0,00 7.506,70 0,00 0,00 0,00 0,00 2.105,00 9.611,70 876,95 1.350,72 0,00 0,00 2.227,67 7.384,03 30/09/2023
327 329300 APARECIDA MARIA MELO DE ASSIS OFICIAL DO MP BELO HORIZONTE - COMARCA; BH-18PJ DIREITOS HUMANOS-SECRETARIA 12.343,61 3.703,08 0,00 0,00 0,00 0,00 0,00 2.105,00 18.151,69 2.348,42 2.882,06 0,00 0,00 5.230,48 12.921,21 30/09/2023
328 653000 APARECIDA ROSA DE LIMA ASSESSOR ADMINISTRATIVO III BELO HORIZONTE - COMARCA; SECRETARIA PROCESSOS DISCIPES ADMINISTRATIVOS 0,00 0,00 10.858,90 0,00 0,00 0,00 0,00 2.105,00 12.963,90 876,95 2.272,58 0,00 0,00 3.149,53 9.814,37 30/09/2023
329 354500 APARECIDA VIEIRA DE CARVALHO OFICIAL DO MP BELO HORIZONTE - COMARCA; DIVISÃO DE EDUCAÇÃO PARA O CONSUMO 10.516,49 3.154,95 0,00 0,00 0,00 0,00 921,12 2.105,00 16.697,56 2.914,91 3.835,51 0,00 0,00 6.750,42 9.947,14 30/09/2023
330 551000 ARACELES BICALHO FELIX ANALISTA DO MP MANHUAÇU - COMARCA; MANHUACU-PJ-06PJ 12.343,61 2.468,72 0,00 0,00 0,00 0,00 725,90 4.005,00 19.543,23 2.855,96 3.619,07 0,00 0,00 6.475,03 13.068,20 30/09/2023
331 286200 ARACELI MEDRADO DOS SANTOS LIMA OFICIAL DO MP PARACATU - COMARCA; PARACATU-PJ-03PJ 7.506,70 2.252,01 0,00 0,00 0,00 0,00 0,00 3.055,00 12.813,71 1.342,34 1.429,54 0,00 0,00 2.771,88 10.041,83 30/09/2023
332 112200 ARAQUEM AUGUSTO DE MATOS AGENTE DO MP BELO HORIZONTE - COMARCA; BH-23PJ CIVEL-SEC EXP CIVEIS 13.160,57 11.844,52 0,00 419,15 0,00 6.888,87 932,47 2.105,00 35.350,58 5.795,34 10.944,26 0,00 0,00 16.739,60 18.610,98 30/09/2023
333 280600 ARDUINO FRATTEZI ANALISTA DO MP BELO HORIZONTE - COMARCA; CENTRAL DE APOIO TECNICO-SETOR CONTABIL 23.070,31 6.921,09 0,00 0,00 0,00 0,00 118,96 2.105,00 32.215,36 5.795,34 9.293,41 0,00 0,00 15.088,75 17.126,61 30/09/2023
334 520201 ARIANE DE FATIMA CARVALHO ALMEIDA RODRIGUES ANALISTA DO MP VESPASIANO - COMARCA; VESPASIANO-PJ-SECRETARIA 11.577,56 1.157,76 0,00 0,00 0,00 0,00 0,00 3.530,00 16.265,32 1.818,60 1.960,73 0,00 0,00 3.779,33 12.485,99 30/09/2023
335 537600 ARIELA FREIRE MONTIJO ANALISTA DO MP ARCOS - COMARCA; ARCOS-PJ-01PJ 12.343,61 2.468,72 0,00 0,00 0,00 0,00 0,00 2.105,00 16.917,33 2.150,92 2.492,65 0,00 0,00 4.643,57 12.273,76 30/09/2023
336 182000 ARILSON ALEXANDRE MARTINS MAGALHAES OFICIAL DO MP JOÃO MONLEVADE - COMARCA; JOAO MONLEVADE-PJ-01PJ 20.533,67 10.266,84 0,00 0,00 0,00 0,00 0,00 5.905,00 36.705,51 4.709,03 7.026,57 0,00 0,00 11.735,60 24.969,91 30/09/2023
337 511000 ARISLANE CAROLINA DA SILVA ANALISTA DO MP MONTE CARMELO - COMARCA; MONTE CARMELO-PJ-02PJ 12.343,61 2.468,72 0,00 0,00 0,00 0,00 0,00 4.005,00 18.817,33 2.150,92 2.596,93 0,00 0,00 4.747,85 14.069,48 30/09/2023
338 170000 ARLEY BRITES DA SILVA ASSESSOR ADMINISTRATIVO II BELO HORIZONTE - COMARCA; BH-14PJ DEFESA CONSUMIDOR-SECRETARIA 0,00 3.753,35 7.506,70 0,00 0,00 0,00 750,67 6.358,79 18.369,51 876,95 1.793,94 0,00 0,00 2.670,89 15.698,62 30/09/2023
339 120400 ARLINDO CASSIO DA CRUZ OFICIAL DO MP SÃO GONÇALO DO SAPUCAÍ - COMARCA; SAO GONCALO DO SAPUCAI-PJ-01PJ 23.070,31 20.763,28 0,00 0,00 0,00 5.795,34 0,00 2.254,10 51.883,03 5.795,34 9.348,00 6.243,63 0,00 21.386,97 30.496,06 30/09/2023
340 243700 ARLINDO MARCIO LACERDA OFICIAL DO MP CONTAGEM - COMARCA; CONTAGEM-PJ-SECRETARIA 17.559,01 8.779,51 0,00 0,00 0,00 0,00 1.771,66 2.105,00 30.215,18 3.995,11 5.746,68 0,00 0,00 9.741,79 20.473,39 30/09/2023
341 392100 ARNALDO DE ANDRADE OFICIAL DO MP DIVINÓPOLIS - COMARCA; DIVINOPOLIS-PJ-02PJ 12.343,61 4.443,70 0,00 0,00 0,00 0,00 2.938,40 3.055,00 22.780,71 3.535,16 5.405,77 0,00 0,00 8.940,93 13.839,78 30/09/2023
342 642400 ARTANE INARDE DE SIQUEIRA DAMASCENO ANALISTA DO MP BELO HORIZONTE - COMARCA; SECRETARIA DE ASSUNTOS INTERNACIONAIS 10.015,59 1.001,56 0,00 0,00 0,00 0,00 0,00 3.530,00 14.547,15 982,16 1.802,28 0,00 0,00 2.784,44 11.762,71 30/09/2023
343 733000 ARTHUR BRANDAO ALBUQUERQUE ASSESSOR ADMINISTRATIVO II BELO HORIZONTE - COMARCA; DIRETORIA DE PAGAMENTO DE PESSOAL-DPAG 0,00 0,00 7.506,70 0,00 0,00 0,00 0,00 2.105,00 9.611,70 876,95 1.350,72 0,00 0,00 2.227,67 7.384,03 30/09/2023
344 302100 AUGUSTO ROUSSEAU DE CASTRO ANALISTA DO MP CATAGUASES - COMARCA; CATAGUASES-PJ-02PJ 23.070,31 6.921,09 0,00 0,00 0,00 0,00 1.911,34 2.105,00 34.007,74 5.795,34 8.522,91 0,00 0,00 14.318,25 19.689,49 30/09/2023
345 540200 AUREA AVELAR BITTENCOURT OFICIAL DO MP BELO HORIZONTE - COMARCA; GRUPO ESP PROM JUST DEF PROB ADM PAT PUB 7.506,70 1.501,34 0,00 0,00 0,00 0,00 0,00 2.105,00 11.113,04 982,16 1.208,12 0,00 0,00 2.190,28 8.922,76 30/09/2023
346 633501 AUREA GONTIJO BIRCHAL ASSESSOR DE GABINETE I BELO HORIZONTE - COMARCA; PROCURADOR-GERAL DE JUSTIÇA 0,00 0,00 18.130,77 0,00 0,00 0,00 0,00 2.105,00 20.235,77 876,95 4.272,34 0,00 0,00 5.149,29 15.086,48 30/09/2023
347 183200 AURELIANO MAGELA DE REZENDE OFICIAL DO MP BELO HORIZONTE - COMARCA; COORD DE GABINETE DO PGJ 20.533,67 8.213,47 6.160,10 0,00 0,00 0,00 0,00 2.105,00 37.012,24 5.214,51 9.304,46 0,00 0,00 14.518,97 22.493,27 30/09/2023
348 629400 AYESKA DA COSTA VAL MOURA DABIEN OFICIAL DO MP BELO HORIZONTE - COMARCA; BH-09PJ AUDITORIA MILITAR-SECRETARIA 6.818,83 681,88 0,00 0,00 0,00 0,00 0,00 2.105,00 9.605,71 981,10 907,93 0,00 0,00 1.889,03 7.716,68 30/09/2023
349 707400 AYMEE JOHANSSENN TYNEE CORREIA ALVES ASSESSOR PROMOTOR JUSTICA NOVA LIMA - COMARCA; NOVA LIMA-PJ-01PJ 0,00 0,00 8.810,89 0,00 0,00 0,00 0,00 2.200,00 11.010,89 876,95 1.709,37 0,00 0,00 2.586,32 8.424,57 30/09/2023
350 701600 BARBARA CHAVES OLIVEIRA ASSESSOR PROCURADOR JUSTICA BELO HORIZONTE - COMARCA; PROC. JUSTICA DIR. DIFUSOS E COLETIVOS-SEC 0,00 0,00 8.810,89 0,00 0,00 0,00 0,00 2.105,00 10.915,89 876,95 1.709,37 0,00 0,00 2.586,32 8.329,57 30/09/2023
351 691900 BARBARA COUTINHO REIS ASSESSOR PROCURADOR JUSTICA BELO HORIZONTE - COMARCA; GABINETE DE PROCURADOR DE JUSTIÇA - SALA 910 0,00 0,00 8.810,89 0,00 0,00 0,00 0,00 2.105,00 10.915,89 876,95 1.709,37 0,00 0,00 2.586,32 8.329,57 30/09/2023
352 692200 BARBARA CRISTINA MENDES BANDEIRA DE MELO DUTRA ASSESSOR PROCURADOR JUSTICA BELO HORIZONTE - COMARCA; GABINETE DE PROCURADOR DE JUSTIÇA - SALA 1009 0,00 0,00 8.810,89 0,00 0,00 0,00 0,00 2.105,00 10.915,89 876,95 1.709,37 0,00 0,00 2.586,32 8.329,57 30/09/2023
353 743300 BARBARA CRISTINA SOUZA E SOUSA ASSESSOR PROCURADOR JUSTICA BELO HORIZONTE - COMARCA; GABINETE DE PROCURADOR DE JUSTIÇA - SALA 513 0,00 0,00 8.810,89 0,00 0,00 0,00 0,00 2.105,00 10.915,89 876,95 1.709,37 0,00 0,00 2.586,32 8.329,57 30/09/2023
354 723400 BARBARA CRISTINA TAVARES CARNEIRO ASSESSOR PROCURADOR JUSTICA BELO HORIZONTE - COMARCA; PROC JUST ATUACAO TRIBUNAIS SUPERIORES-GAB008 0,00 0,00 8.810,89 0,00 0,00 0,00 0,00 2.105,00 10.915,89 876,95 1.709,37 0,00 0,00 2.586,32 8.329,57 30/09/2023
355 652800 BARBARA JULIANNE MOREIRA CASTRO ASSESSOR PROCURADOR JUSTICA BELO HORIZONTE - COMARCA; ASSESS TECNICO-JUR JUNTO AS PROC. DE JUST 0,00 0,00 8.810,89 0,00 0,00 0,00 0,00 2.105,00 10.915,89 876,95 1.709,37 0,00 0,00 2.586,32 8.329,57 30/09/2023
356 707700 BARBARA LOUISE PUFF DE OLIVEIRA ASSESSOR PROMOTOR JUSTICA RIBEIRÃO DAS NEVES - COMARCA; RIBEIRAO DAS NEVES-PJ-02PJ 0,00 0,00 8.810,89 0,00 0,00 0,00 0,00 2.105,00 10.915,89 876,95 1.709,37 0,00 0,00 2.586,32 8.329,57 30/09/2023
357 663600 BARBARA REGINA PEREIRA DE PINHO MAGALHAES ASSESSOR PROMOTOR JUSTICA BELO HORIZONTE - COMARCA; CAO-DH CONT EXT ATIV POLIC E AP COMUNIT 0,00 0,00 8.810,89 0,00 0,00 0,00 0,00 2.105,00 10.915,89 876,95 1.709,37 0,00 0,00 2.586,32 8.329,57 30/09/2023
358 546500 BARBARA ZACARONI GOULART OFICIAL DO MP BETIM - COMARCA; BETIM-PJ-08PJ 7.506,70 1.501,34 0,00 0,00 0,00 0,00 0,00 2.105,00 11.113,04 1.222,23 1.256,14 0,00 0,00 2.478,37 8.634,67 30/09/2023
359 316500 BEATRIZ ABILVIA DA SILVA ANALISTA DO MP GOVERNADOR VALADARES - COMARCA; GOVERNADOR VALADARES-PJ-07PJ 22.191,68 6.657,50 0,00 499,34 0,00 8.405,89 57,22 2.105,00 39.916,63 5.663,35 9.554,96 0,00 0,00 15.218,31 24.698,32 30/09/2023
360 311800 BEATRIZ APARECIDA SOARES GANEM OFICIAL DO MP ITAMBACURI - COMARCA; ITAMBACURI-PJ-02PJ 13.588,97 5.435,59 0,00 0,00 0,00 0,00 1.325,90 2.105,00 22.455,46 3.963,25 5.245,73 0,00 0,00 9.208,98 13.246,48 30/09/2023
361 266800 BEATRIZ AUGUSTA VILACA GOMES DE HUBER OFICIAL DO MP BELO HORIZONTE - COMARCA; BH-05PJ-JUÍZO SUCESSÕES-SEC 12.343,61 4.937,44 0,00 0,00 0,00 0,00 443,55 6.943,69 24.668,29 2.545,92 3.167,20 0,00 0,00 5.713,12 18.955,17 30/09/2023
362 235200 BEATRIZ BOTELHO BATISTA OFICIAL DO MP MATEUS LEME - COMARCA; MATEUS LEME-PJ-02PJ 12.343,61 4.937,44 0,00 0,00 0,00 0,00 0,00 2.105,00 19.386,05 2.545,92 3.167,20 0,00 0,00 5.713,12 13.672,93 30/09/2023
363 182300 BEATRIZ PAULA SOUSA RAMOS OFICIAL DO MP MARIANA - COMARCA; MARIANA-PJ-01PJ 20.533,67 10.266,84 0,00 0,00 0,00 0,00 112,94 3.337,02 34.250,47 4.709,03 7.536,52 0,00 0,00 12.245,55 22.004,92 30/09/2023
364 507000 BELCHIOR FRANKLIN AMARAL LEITE ANALISTA DO MP BELO HORIZONTE - COMARCA; CAO ORGAOS MPMG DESIG FUNC ELEITORAIS-SEC 13.588,97 3.533,13 0,00 0,00 0,00 0,00 1.070,34 3.055,00 21.247,44 2.946,98 3.589,83 0,00 0,00 6.536,81 14.710,63 30/09/2023
365 345100 BENITO ELIAS RODRIGUES ANALISTA DO MP BARBACENA - COMARCA; BARBACENA - SECRETARIA DAS PJS CRIMINAIS 21.346,53 6.403,96 0,00 0,00 0,00 0,00 132,09 3.055,00 30.937,58 5.704,95 7.951,11 0,00 0,00 13.656,06 17.281,52 30/09/2023
366 207300 BENITO VIEIRA DOS SANTOS ANALISTA DO MP BELO HORIZONTE - COMARCA; PROC JUST ESP ACOES COMP ORIG CRIMINAL-ASSESS 23.070,31 11.535,16 0,00 0,00 892,05 9.183,41 4.718,21 3.335,41 52.734,55 5.795,34 7.462,15 0,00 0,00 13.257,49 39.477,06 30/09/2023
367 480200 BERNADETE NUNES DOS SANTOS ANALISTA DO MP GUANHÃES - COMARCA; GUANHAES-PJ-02PJ 12.343,61 4.937,44 0,00 0,00 0,00 0,00 1.137,06 2.105,00 20.523,11 2.969,02 3.778,05 0,00 0,00 6.747,07 13.776,04 30/09/2023
368 378400 BETANIA FARNESI DE SOUZA E SILVA OFICIAL DO MP CURVELO - COMARCA; CURVELO-PJ-01PJ 12.343,61 4.937,44 0,00 0,00 5.760,35 0,00 1.522,74 8.326,18 32.890,32 3.714,94 6.542,61 0,00 0,00 10.257,55 22.632,77 30/09/2023
369 387400 BETANIA MENDONCA DE ASSIS CARVALHO ANALISTA DO MP JUIZ DE FORA - COMARCA; JUIZ DE FORA-PJ-03PJ 18.720,84 5.616,25 0,00 0,00 0,00 0,00 1.225,37 3.055,00 28.617,46 5.120,35 7.047,66 0,00 0,00 12.168,01 16.449,45 30/09/2023
370 714400 BIANCA DE CASTRO RAMOS ASSESSOR PROMOTOR JUSTICA BETIM - COMARCA; BETIM-PJ-13PJ 0,00 0,00 8.810,89 0,00 0,00 0,00 96,92 3.162,31 12.070,12 876,95 1.709,37 0,00 0,00 2.586,32 9.483,80 30/09/2023
371 450300 BIANCA OLIVEIRA DE ALBUQUERQUE ANALISTA DO MP BELO HORIZONTE - COMARCA; BH-10PJ EXECUÇÃO PENAL-SECRETARIA 12.343,61 2.468,72 0,00 0,00 0,00 0,00 0,00 3.055,00 17.867,33 2.150,92 2.596,93 0,00 0,00 4.747,85 13.119,48 30/09/2023
372 535400 BIANCA SALOTO ROSSI ANALISTA DO MP SANTOS DUMONT - COMARCA; SANTOS DUMONT-PJ-01PJ 12.343,61 2.468,72 0,00 0,00 0,00 0,00 0,00 3.055,00 17.867,33 2.150,92 2.596,93 0,00 0,00 4.747,85 13.119,48 30/09/2023
373 120800 BRAS MARQUES DE SOUZA ANALISTA DO MP BELO HORIZONTE - COMARCA; SUPERINTENDENCIA DE GESTAO ADMINISTRATIVA 29.122,38 26.210,14 0,00 0,00 0,00 5.795,34 0,00 2.105,00 63.232,86 5.795,34 9.348,00 17.742,56 0,00 32.885,90 30.346,96 30/09/2023
374 724400 BRENDA PIMENTEL DE SOUZA VIANA ASSESSOR PROMOTOR JUSTICA MANHUMIRIM - COMARCA; MANHUMIRIM-PJ-01PJ 0,00 0,00 8.810,89 0,00 0,00 0,00 0,00 2.105,00 10.915,89 876,95 1.709,37 0,00 0,00 2.586,32 8.329,57 30/09/2023
375 710500 BRENNO VINICIUS MAGESTE ROSA ASSESSOR PROMOTOR JUSTICA MANHUAÇU - COMARCA; MANHUACU-PJ-02PJ 0,00 0,00 8.810,89 0,00 0,00 0,00 0,00 2.105,00 10.915,89 876,95 1.709,37 0,00 0,00 2.586,32 8.329,57 30/09/2023
376 460900 BRENO CRISTIANO DE SOUZA REZENDE ANALISTA DO MP ITAÚNA - COMARCA; ITAUNA-PJ-02PJ 12.343,61 2.468,72 0,00 0,00 0,00 0,00 0,00 2.105,00 16.917,33 2.150,92 2.596,93 0,00 0,00 4.747,85 12.169,48 30/09/2023
377 239000 BRENO VENANCIO ROMANINI OFICIAL DO MP BELO HORIZONTE - COMARCA; BH-20PJ ORD ECON TRIBUTARIA-SECRETARIA 12.343,61 4.937,44 0,00 0,00 0,00 0,00 991,66 2.105,00 20.377,71 3.699,62 4.991,99 0,00 0,00 8.691,61 11.686,10 30/09/2023
378 722100 BRUNA HENRIQUE DE SOUZA ASSESSOR PROMOTOR JUSTICA PIRAPETINGA - COMARCA; PIRAPETINGA-PJ-UNPJ 0,00 0,00 8.810,89 0,00 0,00 0,00 0,00 2.105,00 10.915,89 876,95 1.709,37 0,00 0,00 2.586,32 8.329,57 30/09/2023
379 642300 BRUNA IZABELITA DE FATIMA OLIVEIRA COSTA OFICIAL DO MP BELO HORIZONTE - COMARCA; BH-02PJ FAMILIA-SECRETARIA 7.270,07 727,01 0,00 0,00 0,00 0,00 0,00 2.105,00 10.102,08 1.060,48 1.022,61 0,00 0,00 2.083,09 8.018,99 30/09/2023
380 513600 BRUNA KARLA MARTINS CARVALHO ANALISTA DO MP GOVERNADOR VALADARES - COMARCA; GOVERNADOR VALADARES-PJ-14PJ 12.343,61 2.468,72 0,00 0,00 0,00 0,00 0,00 2.105,00 16.917,33 982,16 2.767,68 0,00 0,00 3.749,84 13.167,49 30/09/2023
381 415100 BRUNA MARIA SOARES OLIVEIRA COSTA RAMOS ANALISTA DO MP UBÁ - COMARCA; COORD REG BACIA DO RIO PARAIBA DO SUL 18.130,77 3.626,15 0,00 0,00 0,00 0,00 1.181,09 2.105,00 25.043,01 982,16 7.131,01 0,00 0,00 8.113,17 16.929,84 30/09/2023
382 692900 BRUNA MENDES COELHO ASSESSOR PROCURADOR JUSTICA BELO HORIZONTE - COMARCA; GABINETE DE PROCURADOR DE JUSTIÇA - SALA 801 0,00 0,00 8.810,89 0,00 0,00 0,00 0,00 2.105,00 10.915,89 876,95 1.709,37 0,00 0,00 2.586,32 8.329,57 30/09/2023
383 470000 BRUNA MORAES ANALISTA DO MP TOMBOS - COMARCA; TOMBOS-PJ-UNPJ 15.949,86 4.146,96 0,00 0,00 0,00 0,00 1.203,68 2.105,00 23.405,50 3.990,29 5.285,90 0,00 0,00 9.276,19 14.129,31 30/09/2023
384 614700 BRUNA NATTANY DE LIMA OFICIAL DO MP MANTENA - COMARCA; MANTENA-PJ-01PJ 7.506,70 750,67 0,00 0,00 0,00 0,00 0,00 3.055,00 11.312,37 1.102,13 1.082,73 0,00 0,00 2.184,86 9.127,51 30/09/2023
385 729800 BRUNA PAULA AMARAL CEOLIN ASSESSOR PROMOTOR JUSTICA COMARCA - JUATUBA; JUATUBA-PJ-UNPJ 0,00 0,00 8.810,89 0,00 0,00 0,00 0,00 2.105,00 10.915,89 876,95 1.709,37 0,00 0,00 2.586,32 8.329,57 30/09/2023
386 631800 BRUNA RAPOSO JORGE OFICIAL DO MP JUIZ DE FORA - COMARCA; JUIZ DE FORA-PJ-06PJ 7.506,70 750,67 0,00 0,00 0,00 0,00 0,00 3.055,00 11.312,37 1.102,13 1.082,73 0,00 0,00 2.184,86 9.127,51 30/09/2023
387 707800 BRUNA ROMIE WERDINE ASSESSOR PROMOTOR JUSTICA IBIRITÉ - COMARCA; IBIRITE-PJ-06PJ 0,00 0,00 8.810,89 0,00 0,00 0,00 0,00 2.105,00 10.915,89 876,95 1.709,37 0,00 0,00 2.586,32 8.329,57 30/09/2023
388 697400 BRUNA SILVA SANTOS ASSESSOR PROMOTOR JUSTICA TIMÓTEO - COMARCA; TIMOTEO-PJ-04PJ 0,00 0,00 8.810,89 0,00 0,00 0,00 0,00 2.105,00 10.915,89 876,95 1.709,37 0,00 0,00 2.586,32 8.329,57 30/09/2023
389 699300 BRUNA URSINE TIMO ASSESSOR PROCURADOR JUSTICA BELO HORIZONTE - COMARCA; PROC JUST ESP ACOES COMP ORIG CRIMINAL-GAB 0,00 0,00 8.810,89 0,00 0,00 0,00 0,00 2.105,00 10.915,89 876,95 1.709,37 0,00 0,00 2.586,32 8.329,57 30/09/2023
390 463800 BRUNO ALVES TEIXEIRA ANALISTA DO MP UBERLÂNDIA - COMARCA; UBERLANDIA-PJ-04PJ 12.343,61 2.468,72 0,00 0,00 0,00 0,00 0,00 2.105,00 16.917,33 2.150,92 2.596,93 0,00 0,00 4.747,85 12.169,48 30/09/2023
391 538500 BRUNO AUGUSTO DA SILVA OFICIAL DO MP SANTA LUZIA - COMARCA; SANTA LUZIA-PJ-03PJ 7.506,70 1.501,34 0,00 0,00 0,00 0,00 0,00 2.105,00 11.113,04 1.222,23 1.256,14 0,00 0,00 2.478,37 8.634,67 30/09/2023
392 318200 BRUNO BARROS DE SOUZA OFICIAL DO MP BELO HORIZONTE - COMARCA; DIRETORIA GESTAO CONTRATOS CONVENIOS 12.343,61 3.703,08 0,00 0,00 0,00 0,00 0,00 2.105,00 18.151,69 982,16 2.635,76 0,00 0,00 3.617,92 14.533,77 30/09/2023
393 427400 BRUNO CESAR RIBEIRO DE PAIVA ANALISTA DO MP BELO HORIZONTE - COMARCA; DIRETORIA DO COLEGIO E DA CAMARA DE PJ 18.130,77 3.626,15 0,00 0,00 0,00 0,00 1.337,04 2.105,00 25.198,96 4.768,38 6.591,63 0,00 0,00 11.360,01 13.838,95 30/09/2023
394 380900 BRUNO CIRILO ANTUNES OFICIAL DO MP VARGINHA - COMARCA; VARGINHA-PJ-05PJ 11.954,43 3.586,33 0,00 0,00 0,00 0,00 850,99 2.105,00 18.496,75 2.267,47 2.765,19 0,00 0,00 5.032,66 13.464,09 30/09/2023
395 329000 BRUNO DE MELO REIS ANALISTA DO MP PATROCÍNIO - COMARCA; PATROCINIO-PJ-02PJ 22.191,68 8.876,67 0,00 0,00 0,00 0,00 0,00 4.005,00 35.073,35 4.751,88 6.681,64 0,00 0,00 11.433,52 23.639,83 30/09/2023
396 697800 BRUNO GAZZOLA BEZERRA FALCAO ASSESSOR PROCURADOR JUSTICA BELO HORIZONTE - COMARCA; PROCURADOR-GERAL ADJUNTO JURIDICO- GABINETE 0,00 0,00 8.810,89 0,00 0,00 0,00 0,00 2.105,00 10.915,89 876,95 1.709,37 0,00 0,00 2.586,32 8.329,57 30/09/2023
397 378300 BRUNO HERDY LOPES DE OLIVEIRA ANALISTA DO MP GOVERNADOR VALADARES - COMARCA; GOVERNADOR VALADARES-PJ-03PJ 18.720,84 5.616,25 0,00 0,00 0,00 0,00 1.540,89 2.105,00 27.982,98 5.282,78 7.334,30 0,00 0,00 12.617,08 15.365,90 30/09/2023
398 529700 BRUNO JOSE BUENO DIAS OFICIAL DO MP SÃO SEBASTIÃO DO PARAÍSO - COMARCA; SAO SEBASTIAO DO PARAISO-PJ-02PJ 7.506,70 1.501,34 0,00 0,00 0,00 0,00 0,00 2.105,00 11.113,04 1.222,23 1.204,00 0,00 0,00 2.426,23 8.686,81 30/09/2023
399 691600 BRUNO JOSE RIBEIRO ASSESSOR PROMOTOR JUSTICA CLÁUDIO - COMARCA; CLAUDIO-PJ-UNPJ 0,00 0,00 8.810,89 0,00 0,00 0,00 0,00 2.105,00 10.915,89 876,95 1.709,37 0,00 0,00 2.586,32 8.329,57 30/09/2023
400 350100 BRUNO LAUD SERRANO DOS REIS OFICIAL DO MP UBÁ - COMARCA; UBA-PJ-02PJ 12.343,61 4.937,44 0,00 0,00 0,00 0,00 1.051,79 2.105,00 20.437,84 2.724,74 3.373,25 0,00 0,00 6.097,99 14.339,85 30/09/2023
401 728900 BRUNO LIMA PITANGA ASSESSOR PROMOTOR JUSTICA BELO HORIZONTE - COMARCA; NUCLEO DA EXECUCAO PENAL 0,00 0,00 8.810,89 0,00 0,00 0,00 0,00 3.055,00 11.865,89 876,95 1.709,37 0,00 0,00 2.586,32 9.279,57 30/09/2023
402 745900 BRUNO LUIZ MARQUES ROCHA OFICIAL DO MP RIBEIRÃO DAS NEVES - COMARCA; RIBEIRAO DAS NEVES-PJ-11PJ 4.570,25 0,00 0,00 0,00 0,00 0,00 0,00 2.105,00 6.675,25 526,88 257,78 0,00 0,00 784,66 5.890,59 30/09/2023
403 373800 BRUNO MARTINO DE ALBUQUERQUE ANALISTA DO MP PONTE NOVA - COMARCA; PONTE NOVA-PJ-03PJ 18.720,84 5.616,25 0,00 0,00 0,00 0,00 1.449,60 2.105,00 27.891,69 5.315,18 7.295,37 0,00 0,00 12.610,55 15.281,14 30/09/2023
404 732900 BRUNO NOGUEIRA GUIMARAES ASSESSOR ADMINISTRATIVO I BELO HORIZONTE - COMARCA; COORD DE INCLUSAO E MOBILIZACAO SOCIAIS 0,00 0,00 4.872,71 0,00 0,00 0,00 0,00 2.105,00 6.977,71 718,08 670,06 0,00 0,00 1.388,14 5.589,57 30/09/2023
405 470400 BRUNO NOVAIS CABRAL ANALISTA DO MP MUTUM - COMARCA; MUTUM-PJ-UNPJ 12.343,61 2.468,72 0,00 0,00 0,00 0,00 0,00 3.055,00 17.867,33 2.150,92 2.596,93 0,00 0,00 4.747,85 13.119,48 30/09/2023
406 648600 BRUNO RIBEIRO E MELO COORDENADOR I BELO HORIZONTE - COMARCA; DIR RELACOES INSTITUCIONAIS 0,00 0,00 16.469,17 0,00 0,00 0,00 0,00 2.105,00 18.574,17 876,95 3.815,40 0,00 0,00 4.692,35 13.881,82 30/09/2023
407 369200 BRUNO ROBERTO DIAS DE OLIVEIRA OFICIAL DO MP BELO HORIZONTE - COMARCA; BH-22PJ PES COM DEF E IDOSOS-SECRETARIA 12.343,61 3.703,08 0,00 0,00 0,00 0,00 0,00 2.105,00 18.151,69 982,16 3.081,66 0,00 0,00 4.063,82 14.087,87 30/09/2023
408 547700 BRUNO ROBERTO SOUZA GONCALVES ANALISTA DO MP PARACATU - COMARCA; PARACATU-PJ-03PJ 12.343,61 2.468,72 0,00 0,00 0,00 0,00 725,90 3.055,00 18.593,23 2.855,96 3.749,48 0,00 0,00 6.605,44 11.987,79 30/09/2023
409 546100 BRUNO SA VIEIRA ANALISTA DO MP BARBACENA - COMARCA; BARBACENA-PJ-SECRETARIA 12.343,61 2.468,72 0,00 0,00 0,00 0,00 0,00 3.055,00 17.867,33 2.150,92 2.492,65 0,00 0,00 4.643,57 13.223,76 30/09/2023
410 438200 BRUNO SALES PEREIRA ANALISTA DO MP BELO HORIZONTE - COMARCA; CENTRAL DE APOIO TECNICO-SETOR CONTABIL 15.949,86 3.189,97 0,00 0,00 0,00 0,00 1.321,28 2.105,00 22.566,11 3.801,69 5.117,89 0,00 0,00 8.919,58 13.646,53 30/09/2023
411 537400 BRUNO SANT'ANA CESAR ANALISTA DO MP BELO HORIZONTE - COMARCA; BH-12PJ JUIZO CRIMINAL-GAB 105PJ 12.343,61 2.468,72 0,00 0,00 0,00 0,00 0,00 2.105,00 16.917,33 2.150,92 2.596,93 0,00 0,00 4.747,85 12.169,48 30/09/2023
412 727700 BYANKA DA SILVA MORAIS ASSESSOR PROCURADOR JUSTICA BELO HORIZONTE - COMARCA; GABINETE DE PROCURADOR DE JUSTIÇA - SALA 805 0,00 0,00 8.810,89 0,00 0,00 0,00 0,00 2.105,00 10.915,89 876,95 1.709,37 0,00 0,00 2.586,32 8.329,57 30/09/2023
413 748100 CAETANO ALBERTO MARTINS BOTELHO ASSESSOR PROMOTOR JUSTICA COROMANDEL - COMARCA; COROMANDEL-PJ-02PJ 0,00 0,00 8.810,89 0,00 0,00 0,00 0,00 2.105,00 10.915,89 876,95 1.709,37 0,00 0,00 2.586,32 8.329,57 30/09/2023
414 405800 CAIO FERNANDO RODRIGUES DE OLIVEIRA ANALISTA DO MP BELO HORIZONTE - COMARCA; ASSESSORIA JURIDICO-ADMINISTRATIVA 18.130,77 5.439,23 0,00 0,00 0,00 0,00 3.221,24 2.105,00 28.896,24 982,16 8.382,26 0,00 0,00 9.364,42 19.531,82 30/09/2023
415 530000 CAIO GUEDES DE OLIVEIRA ANALISTA DO MP DIAMANTINA - COMARCA; DIAMANTINA-PJ-02PJ 12.343,61 2.468,72 0,00 0,00 0,00 0,00 0,00 2.105,00 16.917,33 2.150,92 2.544,79 0,00 0,00 4.695,71 12.221,62 30/09/2023
416 491400 CAIO MIRANDA JUNQUEIRA ANALISTA DO MP BUENO BRANDAO - COMARCA; BUENO BRANDAO-PJ-UNPJ 12.343,61 2.468,72 0,00 0,00 0,00 0,00 0,00 2.105,00 16.917,33 2.150,92 2.492,65 0,00 0,00 4.643,57 12.273,76 30/09/2023
417 415800 CAMILA ALVES DA SILVA ANALISTA DO MP CAETÉ - COMARCA; CAETE-PJ-01PJ 18.130,77 3.626,15 0,00 0,00 0,00 0,00 1.468,02 2.105,00 25.329,94 4.756,50 6.567,68 0,00 0,00 11.324,18 14.005,76 30/09/2023
418 555800 CAMILA CAROLINE ROCHA CHAVES OFICIAL DO MP SALINAS - COMARCA; SALINAS-PJ-01PJ 7.506,70 1.501,34 0,00 0,00 0,00 0,00 0,00 4.005,00 13.013,04 1.222,23 1.256,14 0,00 0,00 2.478,37 10.534,67 30/09/2023
419 747700 CAMILA CATIA VILELA VIANA ASSESSOR DE CAO BELO HORIZONTE - COMARCA; CAO-SAUDE-ASSESSORIA 0,00 0,00 7.506,70 0,00 0,00 0,00 0,00 2.105,00 9.611,70 982,03 325,41 0,00 0,00 1.307,44 8.304,26 30/09/2023
420 445200 CAMILA CONDE ROCHA ANALISTA DO MP CONTAGEM - COMARCA; CONTAGEM-PJ-21PJ 13.588,97 2.717,79 0,00 0,00 0,00 0,00 1.007,05 2.105,00 19.418,81 2.672,28 3.349,63 0,00 0,00 6.021,91 13.396,90 30/09/2023
421 419900 CAMILA CUNNINGHAM PIMENTA DE PADUA ANALISTA DO MP BELO HORIZONTE - COMARCA; ASSESSORIA PSICOSSOCIAL 18.130,77 3.626,15 0,00 0,00 0,00 0,00 1.213,29 2.105,00 25.075,21 4.728,77 6.750,19 0,00 0,00 11.478,96 13.596,25 30/09/2023
422 742700 CAMILA DA SILVA GONCALVES ANALISTA DO MP BELO HORIZONTE - COMARCA; DIV FISCAL ADM CONT TERCEIRIZACAO 7.040,78 0,00 0,00 0,00 0,00 0,00 0,00 2.105,00 9.145,78 909,81 801,06 0,00 0,00 1.710,87 7.434,91 30/09/2023
423 714200 CAMILA DE SOUSA CUNHA ASSESSOR PROMOTOR JUSTICA PRADOS - COMARCA; PRADOS-PJ-UNPJ 0,00 0,00 8.810,89 0,00 0,00 0,00 0,00 2.105,00 10.915,89 876,95 1.709,37 0,00 0,00 2.586,32 8.329,57 30/09/2023
424 507700 CAMILA ELIZABETH RODRIGUES ANALISTA DO MP BELO HORIZONTE - COMARCA; BH-02PJ FAMILIA-SECRETARIA 14.960,00 2.992,00 0,00 0,00 0,00 0,00 723,62 2.105,00 20.780,62 3.896,16 5.294,64 0,00 0,00 9.190,80 11.589,82 30/09/2023
425 372700 CAMILA FONSECA LIMONGE ANALISTA DO MP BETIM - COMARCA; BETIM-PJ-01PJ 18.720,84 5.616,25 0,00 0,00 0,00 0,00 1.508,12 2.105,00 27.950,21 5.248,71 7.285,11 0,00 0,00 12.533,82 15.416,39 30/09/2023
426 621300 CAMILA GOLFETO DE SOUSA VALENTE OFICIAL DO MP CARANGOLA - COMARCA; CARANGOLA-PJ-SECRETARIA 7.506,70 750,67 0,00 0,00 0,00 0,00 0,00 4.111,49 12.368,86 1.102,13 978,46 0,00 0,00 2.080,59 10.288,27 30/09/2023
427 409800 CAMILA GONCALVES COSTA RIBEIRO ANALISTA DO MP IPATINGA - COMARCA; GAECO REGIONAL DE IPATINGA 12.343,61 2.468,72 0,00 0,00 0,00 0,00 0,00 3.055,00 17.867,33 2.150,92 2.492,65 0,00 0,00 4.643,57 13.223,76 30/09/2023
428 335000 CAMILA GONTIJO DE PAIVA ANALISTA DO MP BELO HORIZONTE - COMARCA; COORD DE CONTROLE CONSTITUCIONALIDADE 23.070,31 6.921,09 0,00 0,00 0,00 0,00 0,00 2.105,00 32.096,40 4.579,57 6.530,17 0,00 0,00 11.109,74 20.986,66 30/09/2023
429 693400 CAMILA HECKSHER MONTEIRO ASSESSOR PROCURADOR JUSTICA BELO HORIZONTE - COMARCA; GABINETE DE PROCURADOR DE JUSTIÇA - SALA 613 0,00 0,00 8.810,89 0,00 0,00 0,00 0,00 2.105,00 10.915,89 876,95 1.709,37 0,00 0,00 2.586,32 8.329,57 30/09/2023
430 696000 CAMILA IMACULADA OLIVEIRA ASSESSOR PROCURADOR JUSTICA BELO HORIZONTE - COMARCA; GABINETE DE PROCURADOR DE JUSTICA - SALA 312 0,00 0,00 8.810,89 0,00 0,00 0,00 0,00 2.105,00 10.915,89 876,95 1.709,37 0,00 0,00 2.586,32 8.329,57 30/09/2023
431 547800 CAMILA MATTARELLI DE ABREU E SILVA ANALISTA DO MP BELO HORIZONTE - COMARCA; CAO-VIOLENCIA DOMESTICA E FAMILIAR 12.343,61 2.468,72 0,00 0,00 0,00 0,00 842,78 2.105,00 17.760,11 2.859,67 3.754,83 0,00 0,00 6.614,50 11.145,61 30/09/2023
432 735800 CAMILA REGINA DE OLIVEIRA ASSESSOR ADMINISTRATIVO II BELO HORIZONTE - COMARCA; CENTRO AUTOCOMPOSICAO DE CONFLITOS 0,00 0,00 7.506,70 0,00 0,00 0,00 0,00 2.105,00 9.611,70 876,95 1.350,72 0,00 0,00 2.227,67 7.384,03 30/09/2023
433 430000 CANDIDA MARINA COSTA ANALISTA DO MP BELO HORIZONTE - COMARCA; DIRET DE INFORMACAO E CONHECIMENTO-DINC/CEAF 18.130,77 3.626,15 0,00 0,00 0,00 0,00 1.202,57 2.105,00 25.064,49 4.570,40 6.299,00 0,00 0,00 10.869,40 14.195,09 30/09/2023
434 614300 CARINA CORTIELHA OFICIAL DO MP BELO HORIZONTE - COMARCA; BH-23PJ CIVEL-FISC AC POL PUB I 6.818,83 681,88 0,00 0,00 0,00 0,00 0,00 2.105,00 9.605,71 981,10 907,93 0,00 0,00 1.889,03 7.716,68 30/09/2023
435 380400 CARINA DIAS FACANHA DE SOUZA ANALISTA DO MP SANTA RITA DO SAPUCAÍ - COMARCA; SANTA RITA DO SAPUCAI-PJ-01PJ 18.720,84 5.616,25 0,00 0,00 0,00 0,00 1.536,79 3.055,00 28.928,88 5.282,78 7.334,30 0,00 0,00 12.617,08 16.311,80 30/09/2023
436 255000 CARLA ADRIANA DE MENEZES OFICIAL DO MP BELO HORIZONTE - COMARCA; CENT DE APOIO TEC-SETOR DEF,IDOSO E INFANC 12.343,61 4.937,44 0,00 0,00 0,00 0,00 1.010,74 2.105,00 20.396,79 2.762,75 3.480,25 0,00 0,00 6.243,00 14.153,79 30/09/2023
437 425100 CARLA ADRIANA DINIZ AMARAL OFICIAL DO MP CONTAGEM - COMARCA; CONTAGEM-PJ-SECRETARIA 11.212,54 2.242,51 2.918,39 0,00 0,00 0,00 882,36 2.105,00 19.360,80 1.957,77 3.207,45 0,00 0,00 5.165,22 14.195,58 30/09/2023
438 508100 CARLA ALESSANDRA FONSECA ANALISTA DO MP BELO HORIZONTE - COMARCA; CAO-ORDEM ECONOMICA E TRIBUTARIA-SECRETARIA 12.343,61 2.468,72 0,00 0,00 0,00 0,00 0,00 2.105,00 16.917,33 2.150,92 2.596,93 0,00 0,00 4.747,85 12.169,48 30/09/2023
439 607100 CARLA ANGELICA DIAS MIRANDA OFICIAL DO MP SANTA LUZIA - COMARCA; SANTA LUZIA-PJ-SECRETARIA 7.506,70 750,67 0,00 0,00 0,00 0,00 0,00 2.105,00 10.362,37 1.102,13 926,32 0,00 0,00 2.028,45 8.333,92 30/09/2023
440 351500 CARLA APARECIDA MENDES RAMIRIO OFICIAL DO MP PASSOS - COMARCA; PASSOS-PJ-01PJ 12.343,61 3.703,08 0,00 0,00 0,00 0,00 0,00 2.105,00 18.151,69 2.348,42 2.829,93 0,00 0,00 5.178,35 12.973,34 30/09/2023
441 713100 CARLA DOS SANTOS SOUZA ASSESSOR PROMOTOR JUSTICA ESPERA FELIZ - COMARCA; ESPERA FELIZ-PJ-UNPJ 0,00 0,00 8.810,89 0,00 0,00 0,00 0,00 2.105,00 10.915,89 876,95 1.709,37 0,00 0,00 2.586,32 8.329,57 30/09/2023
442 442800 CARLA GONCALVES COSTA SOALHEIRO ANALISTA DO MP GOVERNADOR VALADARES - COMARCA; GOVERNADOR VALADARES-PJ-11PJ 12.854,74 2.632,11 0,00 0,00 0,00 0,00 1.054,28 3.055,00 19.596,13 2.586,46 3.089,49 0,00 0,00 5.675,95 13.920,18 30/09/2023
443 321500 CARLA GONCALVES MASSOTE OFICIAL DO MP CAMPO BELO - COMARCA; CAMPO BELO-PJ-02PJ 12.343,61 3.703,08 0,00 0,00 0,00 0,00 0,00 2.105,00 18.151,69 2.348,42 2.882,06 0,00 0,00 5.230,48 12.921,21 30/09/2023
444 429200 CARLA HAUTEQUESTT BECHARA ANALISTA DO MP BELO HORIZONTE - COMARCA; DIRETORIA DE INTELIGENCIA 18.130,77 3.626,15 0,00 0,00 0,00 0,00 1.172,81 2.105,00 25.034,73 4.448,83 6.123,48 0,00 0,00 10.572,31 14.462,42 30/09/2023
445 247500 CARLA MATILDE GUIMARAES DE OLIVEIRA OFICIAL DO MP ITAJUBA - COMARCA; ITAJUBA-PJ-SECRETARIA 12.343,61 4.937,44 0,00 0,00 0,00 0,00 0,00 2.105,00 19.386,05 2.545,92 3.115,06 0,00 0,00 5.660,98 13.725,07 30/09/2023
446 226100 CARLA MERLI DA CONCEICAO ANALISTA DO MP BELO HORIZONTE - COMARCA; CENTRAL DE APOIO TECNICO-SETOR CONTABIL 23.070,31 9.228,12 0,00 0,00 0,00 0,00 0,00 2.105,00 34.403,43 5.716,23 8.012,48 0,00 0,00 13.728,71 20.674,72 30/09/2023
447 181401 CARLO MICHEL GAUDENSI COELHO ANALISTA DO MP BELO HORIZONTE - COMARCA; BH-08PJ JUIZADO ESPECIAL-SECRETARIA 17.559,01 7.023,60 0,00 0,00 0,00 0,00 0,00 2.105,00 26.687,61 3.714,17 4.853,86 0,00 0,00 8.568,03 18.119,58 30/09/2023
448 634000 CARLOS ALBERTO AMORMINO TRIGUEIRO ANALISTA DO MP BELO HORIZONTE - COMARCA; DIRET DE APOIO AS PROCURADORIAS DE JUSTICA 11.212,54 1.121,25 0,00 0,00 0,00 0,00 0,00 3.055,00 15.388,79 982,16 2.085,06 0,00 0,00 3.067,22 12.321,57 30/09/2023
449 637900 CARLOS ALBERTO DE MOURA OFICIAL DO MP SETE LAGOAS - COMARCA; SETE LAGOAS-PJ-07PJ 7.270,07 727,01 0,00 0,00 0,00 0,00 0,00 2.105,00 10.102,08 982,16 992,01 0,00 0,00 1.974,17 8.127,91 30/09/2023
450 638700 CARLOS ALBERTO FERREIRA BRAGA ANALISTA DO MP VESPASIANO - COMARCA; VESPASIANO-PJ-06PJ 11.212,54 1.121,25 0,00 0,00 0,00 0,00 849,11 2.105,00 15.287,90 982,16 3.611,87 0,00 0,00 4.594,03 10.693,87 30/09/2023
451 375801 CARLOS ALBERTO ROCHA ANALISTA DO MP VARGINHA - COMARCA; GAECO REGIONAL DE VARGINHA 12.343,61 3.703,08 0,00 0,00 0,00 0,00 987,48 4.005,00 21.039,17 2.506,42 3.005,90 0,00 0,00 5.512,32 15.526,85 30/09/2023
452 462800 CARLOS ANDREI SOARES FAGUNDES ANALISTA DO MP MONTES CLAROS - COMARCA; MONTES CLAROS-PJ-09PJ 12.343,61 2.468,72 0,00 0,00 0,00 0,00 0,00 2.105,00 16.917,33 2.150,92 2.544,79 0,00 0,00 4.695,71 12.221,62 30/09/2023
453 370300 CARLOS AUGUSTO BUENO DIAS ASSESSOR ADMINISTRATIVO IV BELO HORIZONTE - COMARCA; SUPERINTENDÊNCIA DE ENGENHARIA E ARQUITETURA 0,00 0,00 14.488,22 0,00 0,00 0,00 0,00 2.105,00 16.593,22 876,95 2.827,07 0,00 0,00 3.704,02 12.889,20 30/09/2023
454 505100 CARLOS CEZAR CARVALHO ANALISTA DO MP CONTAGEM - COMARCA; CONTAGEM-PJ-02PJ 12.343,61 6.171,81 0,00 0,00 0,00 0,00 1.141,51 2.105,00 21.761,93 2.807,10 3.440,01 0,00 0,00 6.247,11 15.514,82 30/09/2023
455 196800 CARLOS EDUARDO DE OLIVEIRA MARINHO OFICIAL DO MP ALPINÓPOLIS - COMARCA; ALPINOPOLIS-PJ-UNPJ 21.346,53 14.942,57 0,00 0,00 0,00 0,00 0,00 2.105,00 38.394,10 5.795,34 9.452,97 0,00 0,00 15.248,31 23.145,79 30/09/2023
456 650800 CARLOS EDUARDO NIZA DA SILVA OFICIAL DO MP IGARAPÉ - COMARCA; IGARAPE-PJ-01PJ 6.603,76 660,38 0,00 0,00 0,00 0,00 0,00 3.055,00 10.319,14 944,43 748,69 0,00 0,00 1.693,12 8.626,02 30/09/2023
457 491800 CARLOS EDUARDO ROMAN OFICIAL DO MP BARBACENA - COMARCA; BARBACENA-PJ-09PJ 10.516,49 3.154,95 0,00 0,00 0,00 0,00 681,32 2.105,00 16.457,76 2.861,54 4.097,67 0,00 0,00 6.959,21 9.498,55 30/09/2023
458 299300 CARLOS HENRIQUE BICALHO ANALISTA DO MP BELO HORIZONTE - COMARCA; BH-17PJ PATRIMONIO PUBLICO-SECRETARIA 23.070,31 11.535,16 0,00 0,00 0,00 0,00 0,00 3.055,00 37.660,47 5.795,34 8.864,77 0,00 0,00 14.660,11 23.000,36 30/09/2023
459 205100 CARLOS HENRIQUE ESTEVES OFICIAL DO MP ITAMBACURI - COMARCA; ITAMBACURI-PJ-01PJ 21.346,53 8.538,61 0,00 0,00 0,00 0,00 0,00 2.105,00 31.990,14 5.795,34 8.224,88 0,00 0,00 14.020,22 17.969,92 30/09/2023
460 351600 CARLOS HENRIQUE FELICIO DA FONSECA OFICIAL DO MP JUIZ DE FORA - COMARCA; JUIZ DE FORA-PJ-21PJ 12.343,61 4.937,44 0,00 0,00 0,00 0,00 1.136,08 2.105,00 20.522,13 3.535,06 4.702,27 0,00 0,00 8.237,33 12.284,80 30/09/2023
461 729100 CARLOS HENRIQUE TEIXEIRA BRAGA ASSESSOR ADMINISTRATIVO II BELO HORIZONTE - COMARCA; DIRETORIA DE SUPORTE E MANUTENCAO 0,00 0,00 7.506,70 0,00 0,00 0,00 0,00 2.105,00 9.611,70 876,95 1.350,72 0,00 0,00 2.227,67 7.384,03 30/09/2023
462 85400 CARLOS JOSE VIEIRA OFICIAL DO MP BELO HORIZONTE - COMARCA; DIRETORIA DO COLEGIO E DA CAMARA DE PJ 29.122,38 23.297,91 0,00 0,00 0,00 5.795,34 0,00 2.105,00 60.320,63 5.795,34 9.452,28 14.830,33 0,00 30.077,95 30.242,68 30/09/2023
463 229100 CARLOS MERCES DE OLIVEIRA ANALISTA DO MP BELO HORIZONTE - COMARCA; CENTRAL DE APOIO TECN-SETOR DE MEIO AMBIENTE 23.070,31 9.228,12 0,00 0,00 0,00 0,00 1.829,49 2.105,00 36.232,92 5.795,34 7.676,48 0,00 0,00 13.471,82 22.761,10 30/09/2023
464 538300 CARLOS RANGEL SILVA DE MELO ANALISTA DO MP BELO HORIZONTE - COMARCA; DIVISAO DE CONTROLE IMOBILIARIO 12.343,61 4.937,44 0,00 0,00 0,00 0,00 987,71 4.005,00 22.273,76 3.085,18 3.945,76 0,00 0,00 7.030,94 15.242,82 30/09/2023
465 265100 CARLOS REIFF MIRANDA ANALISTA DO MP BELO HORIZONTE - COMARCA; BH-19PJ SAUDE-SECRETARIA 150PJ 23.070,31 9.228,12 0,00 0,00 0,00 0,00 1.698,82 2.105,00 36.102,25 5.795,34 9.454,75 0,00 0,00 15.250,09 20.852,16 30/09/2023
466 305400 CARLOS ROCHA DE SOUZA OFICIAL DO MP MONTALVÂNIA - COMARCA; MONTALVANIA-PJ-SECRETARIA 7.506,70 2.252,01 0,00 0,00 0,00 0,00 0,00 2.408,53 12.167,24 1.342,34 1.220,99 0,00 0,00 2.563,33 9.603,91 30/09/2023
467 744500 CARLOS THIAGO COSTA FIGUEREDO OFICIAL DO MP PARAOPEBA - COMARCA; PARAOPEBA-PJ-UNPJ 4.570,25 0,00 0,00 0,00 0,00 0,00 0,00 2.105,00 6.675,25 526,88 257,78 0,00 0,00 784,66 5.890,59 30/09/2023
468 399900 CARMELITA EVANGELISTA DE SOUZA OFICIAL DO MP JOÃO PINHEIRO - COMARCA; JOAO PINHEIRO-PJ-01PJ 10.858,90 2.171,78 0,00 0,00 0,00 0,00 0,00 2.105,00 15.135,68 1.865,86 2.185,37 0,00 0,00 4.051,23 11.084,45 30/09/2023
469 202000 CARMEN LUCIA MARIZ DE MACEDO OFICIAL DO MP BELO HORIZONTE - COMARCA; DIRETORIA GESTAO COMPRAS LICITACOES 20.533,67 14.373,58 5.434,83 493,08 0,00 9.180,75 472,52 7.259,73 57.748,16 5.366,11 9.348,00 2.752,12 0,00 17.466,23 40.281,93 30/09/2023
470 701900 CAROLINA CARVALHO COSTA ASSESSOR PROCURADOR JUSTICA BELO HORIZONTE - COMARCA; GABINETE DE PROCURADOR DE JUSTIÇA - SALA 811 0,00 0,00 8.810,89 0,00 0,00 0,00 0,00 2.105,00 10.915,89 876,95 1.709,37 0,00 0,00 2.586,32 8.329,57 30/09/2023
471 228500 CAROLINA CHIARELLA DOS SANTOS RIBEIRO COORDENADOR I BELO HORIZONTE - COMARCA; DIVISAO TRANSPORTES 16.469,17 6.587,67 0,00 0,00 0,00 0,00 1.377,79 2.105,00 26.539,63 4.085,23 7.085,95 0,00 0,00 11.171,18 15.368,45 30/09/2023
472 446500 CAROLINA COSTA VAL RODRIGUES ANALISTA DO MP BELO HORIZONTE - COMARCA; DIVISAO DE MATERIAIS 17.559,01 5.267,70 4.940,75 0,00 0,00 0,00 0,00 2.105,00 29.872,46 3.433,22 5.806,96 0,00 0,00 9.240,18 20.632,28 30/09/2023
473 603501 CAROLINA DOMINGOS BRANDAO RABELLO ANALISTA DO MP BARROSO - COMARCA; BARROSO-PJ-01PJ 12.343,61 1.234,36 0,00 0,00 0,00 0,00 713,34 4.005,00 18.296,31 2.117,96 2.549,33 0,00 0,00 4.667,29 13.629,02 30/09/2023
474 404300 CAROLINA DOS SANTOS VIEIRA ANALISTA DO MP BELO HORIZONTE - COMARCA; BH-08PJ JUIZADO ESPECIAL-SECRETARIA 18.720,84 5.616,25 0,00 0,00 0,00 0,00 3.372,39 2.105,00 29.814,48 5.517,51 7.568,91 0,00 0,00 13.086,42 16.728,06 30/09/2023
475 551200 CAROLINA LOPES ARANTES MASCARENHAS ANALISTA DO MP BELO HORIZONTE - COMARCA; CAO-VIOLENCIA DOMESTICA E FAMILIAR 12.343,61 2.468,72 0,00 0,00 0,00 0,00 932,15 3.055,00 18.799,48 2.855,96 3.726,69 0,00 0,00 6.582,65 12.216,83 30/09/2023
476 622600 CAROLINA LOREDO LOPES CATIZANI OFICIAL DO MP RIBEIRÃO DAS NEVES - COMARCA; RIBEIRAO DAS NEVES-PJ-12PJ 6.818,83 681,88 0,00 0,00 0,00 0,00 0,00 2.105,00 9.605,71 981,10 907,93 0,00 0,00 1.889,03 7.716,68 30/09/2023
477 382200 CAROLINA MENDES CHAVES LIN ANALISTA DO MP BELO HORIZONTE - COMARCA; BH-12PJ JUIZO CRIMINAL-GAB 088PJ 12.343,61 3.703,08 0,00 0,00 0,00 0,00 0,00 3.055,00 19.101,69 2.348,42 2.829,93 0,00 0,00 5.178,35 13.923,34 30/09/2023
478 461900 CAROLINA MURTA TEIXEIRA DIAS ANALISTA DO MP BELO HORIZONTE - COMARCA; DIR CRIACAO E MIDIAS 12.343,61 2.468,72 0,00 0,00 0,00 0,00 0,00 2.105,00 16.917,33 2.150,92 2.596,93 0,00 0,00 4.747,85 12.169,48 30/09/2023
479 509600 CAROLINA PINTO DE OLIVEIRA SOUZA ANALISTA DO MP MURIAÉ - COMARCA; MURIAE-PJ-01PJ 12.343,61 2.468,72 0,00 0,00 0,00 0,00 0,00 3.055,00 17.867,33 2.150,92 2.492,65 0,00 0,00 4.643,57 13.223,76 30/09/2023
480 629100 CAROLINA RODRIGUES AMARAL ANALISTA DO MP BELO HORIZONTE - COMARCA; PROC. JUSTICA DIR. DIFUSOS E COLETIVOS-SEC 11.577,56 1.157,76 0,00 0,00 0,00 0,00 0,00 2.105,00 14.840,32 1.818,60 2.117,14 0,00 0,00 3.935,74 10.904,58 30/09/2023
481 502600 CAROLINA RODRIGUES RUBEN ANALISTA DO MP BELO HORIZONTE - COMARCA; BH-18PJ VIOLENCIA DOMESTICA-GAB 007PJ 12.343,61 2.468,72 0,00 0,00 0,00 0,00 0,00 4.005,00 18.817,33 2.150,92 2.492,65 0,00 0,00 4.643,57 14.173,76 30/09/2023
482 529600 CAROLINA VAZ DE MELO MAMBRINI ANALISTA DO MP BELO HORIZONTE - COMARCA; BH-14PJ DEFESA CONSUMIDOR-GAB 005PJ 12.343,61 2.468,72 0,00 0,00 0,00 0,00 0,00 2.105,00 16.917,33 2.150,92 2.596,93 0,00 0,00 4.747,85 12.169,48 30/09/2023
483 619100 CAROLINA ZAKHIA NARDELLI RODRIGUES ANALISTA DO MP NEPOMUCENO - COMARCA; NEPOMUCENO-PJ-UNPJ 11.577,56 1.157,76 0,00 0,00 0,00 0,00 0,00 3.055,00 15.790,32 1.818,60 2.065,00 0,00 0,00 3.883,60 11.906,72 30/09/2023
484 517600 CAROLINE ALVES DE OLIVEIRA MULLER ANALISTA DO MP VISCONDE DO RIO BRANCO - COMARCA; VISCONDE DO RIO BRANCO-PJ-01PJ 12.343,61 3.703,08 0,00 0,00 0,00 0,00 0,00 2.105,00 18.151,69 2.348,42 2.829,93 0,00 0,00 5.178,35 12.973,34 30/09/2023
485 373200 CAROLINE ANTUNES RIBEIRO OFICIAL DO MP JACUI - COMARCA; JACUI-PJ-UNPJ 12.343,61 3.703,08 0,00 0,00 0,00 0,00 1.020,77 2.105,00 19.172,46 3.416,67 4.519,09 0,00 0,00 7.935,76 11.236,70 30/09/2023
486 723500 CAROLINE CORDEIRO FERNANDES MACHADO ASSESSOR PROMOTOR JUSTICA BELO HORIZONTE - COMARCA; COORD DE INCLUSAO E MOBILIZACAO SOCIAIS 0,00 0,00 8.810,89 0,00 0,00 0,00 0,00 2.105,00 10.915,89 876,95 1.709,37 0,00 0,00 2.586,32 8.329,57 30/09/2023
487 556800 CAROLINE DE SOUZA CARDOSO DOMINGUES OFICIAL DO MP BRASÍLIA DE MINAS - COMARCA; BRASILIA DE MINAS-PJ-02PJ 7.506,70 1.501,34 0,00 0,00 0,00 0,00 0,00 2.105,00 11.113,04 1.222,23 1.256,14 0,00 0,00 2.478,37 8.634,67 30/09/2023
488 499400 CAROLINE MARQUES DE LOURDES MARZULLO OFICIAL DO MP JUIZ DE FORA - COMARCA; JUIZ DE FORA-PJ-08PJ 10.516,49 2.103,30 0,00 0,00 0,00 0,00 672,06 3.530,00 16.821,85 982,16 3.204,20 0,00 0,00 4.186,36 12.635,49 30/09/2023
489 616800 CAROLINE MONTEIRO DE BARROS ANALISTA DO MP CONTAGEM - COMARCA; CONTAGEM-PJ-11PJ 11.577,56 1.157,76 0,00 0,00 0,00 0,00 0,00 3.055,00 15.790,32 982,16 2.239,33 0,00 0,00 3.221,49 12.568,83 30/09/2023
490 618100 CAROLINE VASCONCELOS COSTA LANZA ANALISTA DO MP PARAOPEBA - COMARCA; PARAOPEBA-PJ-UNPJ 11.577,56 1.157,76 0,00 0,00 0,00 0,00 0,00 4.955,00 17.690,32 1.818,60 2.117,14 0,00 0,00 3.935,74 13.754,58 30/09/2023
491 699000 CAROLLINA RODRIGUES SOUTO AMARAL ASSESSOR PROCURADOR JUSTICA BELO HORIZONTE - COMARCA; GABINETE DE PROCURADOR DE JUSTIÇA - SALA 405 0,00 0,00 8.810,89 0,00 0,00 0,00 0,00 2.105,00 10.915,89 876,95 1.709,37 0,00 0,00 2.586,32 8.329,57 30/09/2023
492 604000 CASSIA APARECIDA DA SILVA OFICIAL DO MP PARACATU - COMARCA; PARACATU-PJ-01PJ 7.506,70 750,67 0,00 0,00 0,00 0,00 0,00 2.105,00 10.362,37 1.102,13 1.082,73 0,00 0,00 2.184,86 8.177,51 30/09/2023
493 268800 CASSIA BEATRIZ TEIXEIRA OFICIAL DO MP BELO HORIZONTE - COMARCA; PROC. JUSTICA DE HABEAS CORPUS 17.559,01 7.023,60 4.346,47 0,00 0,00 0,00 0,00 2.105,00 31.034,08 3.918,70 7.111,47 0,00 0,00 11.030,17 20.003,91 30/09/2023
494 500000 CASSIA DE OLIVEIRA COSTA VIANA ANALISTA DO MP SETE LAGOAS - COMARCA; SETE LAGOAS-PJ-09PJ 12.343,61 8.640,53 0,00 363,20 0,00 5.950,98 1.129,26 2.105,00 30.532,58 4.591,23 7.590,80 0,00 0,00 12.182,03 18.350,55 30/09/2023
495 368800 CASSIA LUISA BATISTA MENDONCA WEBER COORDENADOR II BELO HORIZONTE - COMARCA; DIVISÃO DE EDUCAÇÃO PARA O CONSUMO 20.533,67 6.160,10 0,00 0,00 0,00 0,00 1.766,30 2.105,00 30.565,07 2.897,63 7.318,61 0,00 0,00 10.216,24 20.348,83 30/09/2023
496 622200 CASSIA VAZ DE AZEVEDO LISBOA MARZANO ASSESSOR ADMINISTRATIVO III BELO HORIZONTE - COMARCA; CGMP-DIR ESTAGIO PROBATORIO E ORIENT 0,00 0,00 10.858,90 0,00 0,00 0,00 0,00 2.105,00 12.963,90 876,95 2.116,16 0,00 0,00 2.993,11 9.970,79 30/09/2023
497 121000 CASSIO HENRIQUE AFONSO DA SILVA OFICIAL DO MP BELO HORIZONTE - COMARCA; CGMP-ASSESSORIA TECNICA 23.070,31 18.456,25 0,00 0,00 0,00 0,00 0,00 2.105,00 43.631,56 5.795,34 7.754,29 3.936,60 0,00 17.486,23 26.145,33 30/09/2023
498 512001 CATARINA NATALINO CALIXTO COORDENADOR II BELO HORIZONTE - COMARCA; DIRETORIA GESTAO COMPRAS LICITACOES 20.533,67 3.285,39 0,00 0,00 0,00 0,00 1.749,30 8.771,57 34.339,93 1.929,74 5.134,60 0,00 0,00 7.064,34 27.275,59 30/09/2023
499 606200 CATARINE DE SIQUEIRA DE QUADROS ANALISTA DO MP CONTAGEM - COMARCA; CONTAGEM-PJ-08PJ 12.343,61 1.234,36 0,00 0,00 0,00 0,00 907,95 3.055,00 17.540,92 2.432,55 2.899,25 0,00 0,00 5.331,80 12.209,12 30/09/2023
500 622300 CECILIA APARECIDA PEREIRA ASSUNCAO OFICIAL DO MP TRÊS PONTAS - COMARCA; TRES PONTAS-PJ-SECRETARIA 8.003,54 800,35 0,00 0,00 0,00 0,00 0,00 3.055,00 11.858,89 1.189,57 1.156,84 0,00 0,00 2.346,41 9.512,48 30/09/2023
501 538000 CECILIA FONTES DE MATOS PIMENTEL ANALISTA DO MP PALMA - COMARCA; PALMA-PJ-UNPJ 12.343,61 2.468,72 0,00 0,00 0,00 0,00 0,00 3.055,00 17.867,33 2.150,92 2.596,93 0,00 0,00 4.747,85 13.119,48 30/09/2023
502 748900 CECILIA KRUEL DE MAGALHAES PINTO ASSESSOR ADMINISTRATIVO IV BELO HORIZONTE - COMARCA; CAO-MEIO AMBIENTE 0,00 0,00 14.488,22 0,00 0,00 0,00 6.761,17 7.191,82 28.441,21 876,95 5.317,46 0,00 0,00 6.194,41 22.246,80 30/09/2023
503 261300 CECILIO ANTONIO CAMPOS DOS REIS ANALISTA DO MP BELO HORIZONTE - COMARCA; AUDITORIA INTERNA 23.070,31 9.228,12 0,00 0,00 685,82 0,00 4.614,06 2.105,00 39.703,31 5.686,95 7.890,66 0,00 -638,74 12.938,87 26.764,44 30/09/2023
504 386400 CEFAS AMORELI DE FIGUEIREDO OFICIAL DO MP CABO VERDE - COMARCA; CABO VERDE-PJ-SECRETARIA 7.506,70 2.252,01 0,00 0,00 0,00 0,00 0,00 2.105,00 11.863,71 1.342,34 1.429,54 0,00 0,00 2.771,88 9.091,83 30/09/2023
505 421000 CELINA BENEDITA DE SOUZA ALMEIDA OFICIAL DO MP CAMBUÍ - COMARCA; CAMBUI-PJ-01PJ 11.212,54 7.848,77 0,00 224,96 0,00 4.082,98 1.348,93 2.105,00 26.823,18 3.936,98 6.395,10 0,00 0,00 10.332,08 16.491,10 30/09/2023
506 252900 CELIO DE MELO CASTOR ANALISTA DO MP BELO HORIZONTE - COMARCA; DIVISAO FROTA 23.070,31 9.228,12 0,00 0,00 0,00 0,00 104,98 2.105,00 34.508,41 5.795,34 10.406,91 0,00 0,00 16.202,25 18.306,16 30/09/2023
507 395700 CELIO FERREIRA LIMA OFICIAL DO MP CONTAGEM - COMARCA; CONTAGEM-PJ-SECRETARIA 11.954,43 3.586,33 0,00 0,00 0,00 0,00 0,00 2.105,00 17.645,76 2.267,47 2.713,06 0,00 0,00 4.980,53 12.665,23 30/09/2023
508 281300 CELMA REGINA PEREIRA SANTOS ANALISTA DO MP BELO HORIZONTE - COMARCA; PROMOT ESTADUAL DE DEF PATRI CULT E TUR DE MG 23.070,31 6.921,09 0,00 0,00 0,00 0,00 1.956,04 2.105,00 34.052,44 5.795,34 8.743,00 0,00 0,00 14.538,34 19.514,10 30/09/2023
509 535600 CELSO MEDEIROS DE PAIVA OFICIAL DO MP RIO PRETO - COMARCA; RIO PRETO-PJ-SECRETARIA 7.506,70 1.501,34 0,00 0,00 0,00 0,00 0,00 2.237,06 11.245,10 1.222,23 1.204,00 0,00 0,00 2.426,23 8.818,87 30/09/2023
510 367000 CESAR NARVAES DE AVELAR OFICIAL DO MP BELO HORIZONTE - COMARCA; DIRET DE INFORMACAO E CONHECIMENTO-DINC/CEAF 12.343,61 3.703,08 0,00 0,00 0,00 0,00 0,00 2.105,00 18.151,69 2.348,42 2.882,06 0,00 0,00 5.230,48 12.921,21 30/09/2023
511 226500 CESAR SILVEIRA BARROUIN OFICIAL DO MP BELO HORIZONTE - COMARCA; DIRETORIA DE ADMINISTRACAO FINANCEIRA 17.559,01 8.779,51 0,00 0,00 0,00 0,00 0,00 2.105,00 28.443,52 3.995,11 5.259,48 0,00 0,00 9.254,59 19.188,93 30/09/2023
512 121400 CEZAR MORENO CONCEICAO TAVARES OFICIAL DO MP BELO HORIZONTE - COMARCA; COORD DE INCLUSAO E MOBILIZACAO SOCIAIS 22.191,68 17.753,35 0,00 243,41 0,00 6.946,65 0,00 3.055,00 50.190,09 5.795,34 9.773,83 2.355,07 0,00 17.924,24 32.265,85 30/09/2023
513 243800 CHARLES MARTINS MUNIZ OFICIAL DO MP BELO HORIZONTE - COMARCA; LAB TECNOLOGIA CONTRA LAVAGEM DINHEIRO 17.559,01 7.023,60 0,00 0,00 0,00 0,00 0,00 1.500,00 26.082,61 3.714,17 4.853,86 0,00 0,00 8.568,03 17.514,58 30/09/2023
514 193500 CHARLIN CESAR KOURLY OFICIAL DO MP ARAGUARI - COMARCA; ARAGUARI-PJ-07PJ 21.346,53 8.538,61 0,00 0,00 0,00 0,00 118,54 2.105,00 32.108,68 5.795,34 8.961,35 0,00 0,00 14.756,69 17.351,99 30/09/2023
515 385500 CHILLEN PEIXOTO DE MOURA OFICIAL DO MP BELO HORIZONTE - COMARCA; DIVISAO DE MATERIAIS 11.954,43 3.586,33 0,00 0,00 0,00 0,00 0,00 4.005,00 19.545,76 2.267,47 2.765,19 0,00 0,00 5.032,66 14.513,10 30/09/2023
516 534500 CHRISTIAN DOUGLAS BRITO RUAS OFICIAL DO MP BOCAIÚVA - COMARCA; BOCAIUVA-PJ-03PJ 7.506,70 1.501,34 0,00 0,00 0,00 0,00 0,00 2.105,00 11.113,04 1.222,23 1.256,14 0,00 0,00 2.478,37 8.634,67 30/09/2023
517 370600 CHRISTIAN KARINE FELIX PRATES ASSESSOR ADMINISTRATIVO IV BELO HORIZONTE - COMARCA; SUPRIN DE PLANEJAMENTO E COORDENACAO 0,00 0,00 14.488,22 0,00 0,00 0,00 0,00 2.105,00 16.593,22 876,95 3.270,64 0,00 0,00 4.147,59 12.445,63 30/09/2023
518 435800 CHRISTIANA BAHIA ANDRADE PINA ANALISTA DO MP BELO HORIZONTE - COMARCA; LABORATORIO TECNOLOGIA INTELIGENCIA 18.130,77 3.626,15 0,00 0,00 0,00 0,00 1.380,67 2.105,00 25.242,59 4.603,94 6.563,16 0,00 0,00 11.167,10 14.075,49 30/09/2023
519 516800 CHRISTIANE FERREIRA DO NASCIMENTO ANALISTA DO MP POUSO ALEGRE - COMARCA; POUSO ALEGRE-PJ-04PJ 12.343,61 2.468,72 0,00 0,00 0,00 0,00 0,00 2.105,00 16.917,33 2.150,92 2.596,93 0,00 0,00 4.747,85 12.169,48 30/09/2023
520 176000 CHRISTIANE JUNQUEIRA PULITI ANDRADE DE BARROS ASSESSOR ADM. ESPECIAL BELO HORIZONTE - COMARCA; PROCURADORIA-GERAL ADJUNTA INSTITUCIONAL 0,00 22.410,72 28.013,39 0,00 0,00 5.795,34 0,00 2.105,00 58.324,45 5.795,34 9.452,28 12.834,15 0,00 28.081,77 30.242,68 30/09/2023
521 319200 CHRISTIANE MARIA DE ASSIS RUSSO OFICIAL DO MP BELO HORIZONTE - COMARCA; CAO-ORDEM ECONOMICA E TRIBUTARIA-SECRETARIA 15.447,01 4.634,10 0,00 0,00 0,00 0,00 1.080,70 3.055,00 24.216,81 4.036,65 5.435,02 0,00 0,00 9.471,67 14.745,14 30/09/2023
522 510300 CHRISTIANE MARY DE CARVALHO FERREIRA ANALISTA DO MP BELO HORIZONTE - COMARCA; DIRETORIA DE SISTEMAS DE INFORMACAO 12.343,61 2.468,72 0,00 0,00 0,00 0,00 0,00 2.105,00 16.917,33 2.150,92 2.544,79 0,00 0,00 4.695,71 12.221,62 30/09/2023
523 424900 CHRISTIANE PEREIRA TURNER DE ARAUJO OFICIAL DO MP BELO HORIZONTE - COMARCA; CAO-PATRIMONIO PUBLICO 11.212,54 2.242,51 0,00 0,00 0,00 0,00 0,00 3.055,00 16.510,05 1.933,76 2.179,12 0,00 0,00 4.112,88 12.397,17 30/09/2023
524 731000 CHRISTIANE TEIXEIRA ANTUNA ASSESSOR ADMINISTRATIVO III BELO HORIZONTE - COMARCA; DIR CONTEUDO JORNALISTICO 0,00 0,00 10.858,90 0,00 3.619,63 0,00 0,00 2.105,00 16.583,53 876,95 3.267,97 0,00 0,00 4.144,92 12.438,61 30/09/2023
525 513700 CHRISTIANE VIEIRA SOARES PEDERSOLI COORDENADOR II BELO HORIZONTE - COMARCA; ASSESSORIA JURIDICA DO PROCON-MG 20.533,67 4.106,73 0,00 0,00 0,00 0,00 1.559,03 3.055,00 29.254,43 2.593,34 6.182,74 0,00 0,00 8.776,08 20.478,35 30/09/2023
526 412300 CHRYSTIAN MACHADO RIBEIRO ANALISTA DO MP VARGINHA - COMARCA; VARGINHA-PJ-04PJ 18.130,77 3.626,15 0,00 0,00 0,00 0,00 1.359,20 2.105,00 25.221,12 4.768,38 6.591,63 0,00 0,00 11.360,01 13.861,11 30/09/2023
527 513800 CHRYSTIANE DO NASCIMENTO DE MAGALHAES OFICIAL DO MP UBERLÂNDIA - COMARCA; UBERLANDIA-PJ-10PJ 9.699,77 1.939,95 0,00 0,00 0,00 0,00 0,00 2.105,00 13.744,72 1.643,30 1.759,78 0,00 0,00 3.403,08 10.341,64 30/09/2023
528 497900 CIBELE DE FREITAS SANCHES DIAS ANALISTA DO MP SABARÁ - COMARCA; SABARA-PJ-03PJ 12.343,61 2.468,72 0,00 0,00 0,00 0,00 0,00 2.105,00 16.917,33 982,16 2.715,54 0,00 0,00 3.697,70 13.219,63 30/09/2023
529 500900 CIBELLE SILVA PRADO ALVARENGA ANALISTA DO MP ITANHANDU - COMARCA; ITANHANDU-PJ-UNPJ 12.343,61 2.468,72 0,00 0,00 0,00 0,00 0,00 3.055,00 17.867,33 2.150,92 2.596,93 0,00 0,00 4.747,85 13.119,48 30/09/2023
530 296400 CINTIA APARECIDA MOREIRA NAVES E RODRIGUES ANALISTA DO MP CAMPO BELO - COMARCA; CAMPO BELO-PJ-01PJ 23.070,31 6.921,09 0,00 0,00 0,00 0,00 118,96 2.105,00 32.215,36 5.795,34 9.188,71 0,00 0,00 14.984,05 17.231,31 30/09/2023
531 407900 CINTIA NETO COMELLI ANALISTA DO MP BELO HORIZONTE - COMARCA; CENTRAL DE APOIO TECNICO-SETOR CONTABIL 18.130,77 3.626,15 0,00 0,00 0,00 0,00 1.212,68 2.105,00 25.074,60 4.768,38 6.539,49 0,00 0,00 11.307,87 13.766,73 30/09/2023
532 304700 CINTIA QUEIROZ OFICIAL DO MP BELO HORIZONTE - COMARCA; OUVIDORIA DO MPMG 12.343,61 3.703,08 0,00 0,00 0,00 0,00 0,00 2.105,00 18.151,69 2.348,42 2.882,06 0,00 0,00 5.230,48 12.921,21 30/09/2023
533 286100 CIRO CANGUSSU CORDEIRO OFICIAL DO MP IPATINGA - COMARCA; IPATINGA-PJ-09PJ 10.516,49 3.154,95 0,00 0,00 0,00 0,00 981,10 3.055,00 17.707,54 2.896,54 3.694,18 0,00 0,00 6.590,72 11.116,82 30/09/2023
534 689900 CISSA NOGUEIRA COLEN ASSESSOR PROCURADOR JUSTICA BELO HORIZONTE - COMARCA; GABINETE DE PROCURADOR DE JUSTIÇA - SALA 608 0,00 0,00 8.810,89 0,00 0,00 0,00 0,00 2.105,00 10.915,89 876,95 1.709,37 0,00 0,00 2.586,32 8.329,57 30/09/2023
535 681700 CLARA FERREIRA ALKIMIM ASSESSOR PROMOTOR JUSTICA PEDRA AZUL - COMARCA; PEDRA AZUL-PJ-02PJ 0,00 0,00 8.810,89 0,00 0,00 0,00 0,00 2.105,00 10.915,89 876,95 1.709,37 0,00 0,00 2.586,32 8.329,57 30/09/2023
536 715500 CLARA ISABELLE SOUSA FARIA ASSESSOR PROCURADOR JUSTICA BELO HORIZONTE - COMARCA; GABINETE DE PROCURADOR DE JUSTIÇA - SALA 712 0,00 0,00 8.810,89 0,00 0,00 0,00 0,00 2.105,00 10.915,89 876,95 1.709,37 0,00 0,00 2.586,32 8.329,57 30/09/2023
537 723100 CLARA PRADO CAMPOS ASSESSOR PROCURADOR JUSTICA BELO HORIZONTE - COMARCA; GABINETE DE PROCURADOR DE JUSTIÇA - SALA 1006 0,00 0,00 8.810,89 0,00 0,00 0,00 0,00 2.105,00 10.915,89 876,95 1.709,37 0,00 0,00 2.586,32 8.329,57 30/09/2023
538 695500 CLARA RODRIGUES BLACH ASSESSOR PROCURADOR JUSTICA BELO HORIZONTE - COMARCA; GABINETE DE PROCURADOR DE JUSTIÇA - SALA 1003 0,00 0,00 8.810,89 0,00 0,00 0,00 0,00 2.105,00 10.915,89 876,95 1.709,37 0,00 0,00 2.586,32 8.329,57 30/09/2023
539 412500 CLARICE GOMES MAROTTA ANALISTA DO MP BELO HORIZONTE - COMARCA; COORD ESTADUAL DE DEFESA DOS ANIMAIS 18.130,77 7.252,31 0,00 0,00 0,00 0,00 0,00 2.105,00 27.488,08 3.842,24 5.311,31 0,00 0,00 9.153,55 18.334,53 30/09/2023
540 605300 CLARISSA AZEVEDO ROCHA OFICIAL DO MP BELO HORIZONTE - COMARCA; BH-16PJ HABITACAO URBANISMO-GAB 117PJ 7.506,70 750,67 0,00 0,00 0,00 0,00 0,00 2.105,00 10.362,37 1.102,13 1.082,73 0,00 0,00 2.184,86 8.177,51 30/09/2023
541 308100 CLARISSA DUARTE BELLONI DIRETOR-GERAL BELO HORIZONTE - COMARCA; DIRETORIA-GERAL 34.667,33 10.400,20 0,00 0,00 0,00 0,00 0,00 4.955,00 50.022,53 4.579,57 8.088,62 7.477,57 0,00 20.145,76 29.876,77 30/09/2023
542 730500 CLARISSA FERNANDES ABREU ASSESSOR PROMOTOR JUSTICA SANTOS DUMONT - COMARCA; SANTOS DUMONT-PJ-02PJ 0,00 0,00 8.810,89 0,00 2.936,96 0,00 0,00 2.105,00 13.852,85 876,95 2.517,04 0,00 0,00 3.393,99 10.458,86 30/09/2023
543 743200 CLARISSA GODINHO PRATES ASSESSOR ADMINISTRATIVO I GOVERNADOR VALADARES - COMARCA; COOR REG APOIO COM INC MOB VALE DO RIO DOCE 0,00 0,00 4.872,71 0,00 0,00 0,00 0,00 2.105,00 6.977,71 718,08 670,06 0,00 0,00 1.388,14 5.589,57 30/09/2023
544 497100 CLARISSA ROCHA GUIDI ANALISTA DO MP BELO HORIZONTE - COMARCA; BH-02PJ FAMILIA-SECRETARIA 14.960,00 2.992,00 0,00 0,00 0,00 0,00 945,41 4.005,00 22.902,41 3.896,16 5.242,50 0,00 0,00 9.138,66 13.763,75 30/09/2023
545 641800 CLARISSE TAVARES GONCALVES OFICIAL DO MP BELO HORIZONTE - COMARCA; BH-07PJ 01 TRIBUNAL JURI-SECRETARIA 7.270,07 727,01 0,00 0,00 0,00 0,00 0,00 2.105,00 10.102,08 982,16 1.044,14 0,00 0,00 2.026,30 8.075,78 30/09/2023
546 463700 CLAUDIA ADRIANA FERRAO DIAS ANALISTA DO MP SETE LAGOAS - COMARCA; SETE LAGOAS-PJ-06PJ 12.343,61 2.468,72 0,00 0,00 0,00 0,00 0,00 2.105,00 16.917,33 2.150,92 2.596,93 0,00 0,00 4.747,85 12.169,48 30/09/2023
547 415400 CLAUDIA ALMEIDA DE VASCONCELLOS BARROS OFICIAL DO MP BELO HORIZONTE - COMARCA; DIVISAO DE SERVICOS 10.858,90 2.171,78 4.020,58 0,00 0,00 0,00 0,00 2.105,00 19.156,26 1.865,86 3.291,03 0,00 0,00 5.156,89 13.999,37 30/09/2023
548 207000 CLAUDIA APARECIDA VILELA MACHADO ANALISTA DO MP BELO HORIZONTE - COMARCA; CENTRAL DE APOIO TECNICO-SETOR CONTABIL 23.070,31 11.535,16 0,00 0,00 0,00 0,00 0,00 2.105,00 36.710,47 5.795,34 8.120,07 0,00 0,00 13.915,41 22.795,06 30/09/2023
549 365700 CLAUDIA BREGUEZ CUNHA ANALISTA DO MP VARGINHA - COMARCA; VARGINHA-PJ-07PJ 20.533,67 6.160,10 0,00 0,00 0,00 0,00 0,00 3.055,00 29.748,77 4.051,95 5.341,54 0,00 0,00 9.393,49 20.355,28 30/09/2023
550 430500 CLAUDIA CECILIA SANTANA VENCESLAU OFICIAL DO MP BELO HORIZONTE - COMARCA; LAB TECNOLOGIA CONTRA LAVAGEM DINHEIRO 11.212,54 2.242,51 0,00 0,00 0,00 0,00 0,00 2.105,00 15.560,05 1.933,76 2.231,26 0,00 0,00 4.165,02 11.395,03 30/09/2023
551 213601 CLAUDIA GONCALVES CALIXTO ASSESSOR PROCURADOR JUSTICA BELO HORIZONTE - COMARCA; PROC. JUSTICA DIR. DIFUSOS E COLETIVOS-SEC 0,00 0,00 8.810,89 0,00 0,00 0,00 0,00 2.105,00 10.915,89 876,95 1.709,37 0,00 0,00 2.586,32 8.329,57 30/09/2023
552 480400 CLAUDIA GOULART DE SOUZA OFICIAL DO MP PASSOS - COMARCA; PASSOS-PJ-06PJ 10.516,49 3.154,95 0,00 0,00 0,00 0,00 925,49 2.105,00 16.701,93 2.914,91 3.835,51 0,00 0,00 6.750,42 9.951,51 30/09/2023
553 519800 CLAUDIA HELENA CORREA DE ALMEIDA ANALISTA DO MP BELO HORIZONTE - COMARCA; BH-12PJ JUIZO CRIMINAL-GAB 096PJ 12.343,61 2.468,72 0,00 0,00 0,00 0,00 0,00 2.105,00 16.917,33 2.150,92 2.596,93 0,00 0,00 4.747,85 12.169,48 30/09/2023
554 422100 CLAUDIA IACOMINI CABRAL ANALISTA DO MP BELO HORIZONTE - COMARCA; CENT DE APOIO TEC-SETOR DEF,IDOSO E INFANC 18.130,77 12.691,55 0,00 0,00 0,00 0,00 181,46 2.105,00 33.108,78 5.795,34 9.805,89 0,00 0,00 15.601,23 17.507,55 30/09/2023
555 258200 CLAUDIA LAGE MICHALAROS ANALISTA DO MP BELO HORIZONTE - COMARCA; CENTRAL DE APOIO TECN-SETOR DE MEIO AMBIENTE 23.070,31 18.456,25 0,00 0,00 0,00 5.795,34 0,00 2.105,00 49.426,90 5.795,34 9.452,28 3.936,60 0,00 19.184,22 30.242,68 30/09/2023
556 284600 CLAUDIA LENI DE FREITAS OFICIAL DO MP CONTAGEM - COMARCA; CONTAGEM-PJ-SECRETARIA 7.506,70 3.753,35 0,00 0,00 0,00 1.582,56 565,07 8.269,45 21.677,13 1.582,56 2.211,55 0,00 0,00 3.794,11 17.883,02 30/09/2023
557 433600 CLAUDIA LUIZA SANTIAGO FELICIO ANALISTA DO MP BELO HORIZONTE - COMARCA; CENT DE APOIO TEC-SETOR DEF,IDOSO E INFANC 18.130,77 3.626,15 0,00 0,00 0,00 0,00 1.913,99 8.196,94 31.867,85 4.442,98 6.010,76 0,00 0,00 10.453,74 21.414,11 30/09/2023
558 317000 CLAUDIA MACHADO ALVES OFICIAL DO MP BELO HORIZONTE - COMARCA; DIR GOVERNANCA TECNOLOGIA INFORMACAO 12.343,61 3.703,08 4.020,58 0,00 0,00 0,00 1.331,12 2.105,00 23.503,39 3.148,69 5.501,93 0,00 0,00 8.650,62 14.852,77 30/09/2023
559 155300 CLAUDIA MACIEL MIRANDA OFICIAL DO MP CONGONHAS - COMARCA; CONGONHAS-PJ-02PJ 22.191,68 15.534,18 0,00 0,00 0,00 0,00 3.838,34 8.119,40 49.683,60 5.795,34 8.295,72 135,90 -3.800,64 10.426,32 39.257,28 30/09/2023
560 746300 CLAUDIA MAGDA SANTANA ANALISTA DO MP BELO HORIZONTE - COMARCA; DIRETORIA DE ADMINISTRACAO FINANCEIRA 7.040,78 0,00 0,00 0,00 0,00 0,00 0,00 2.105,00 9.145,78 909,81 801,06 0,00 0,00 1.710,87 7.434,91 30/09/2023
561 242200 CLAUDIA MICHELLE DIAS MUNIZ BALEEIRO OFICIAL DO MP MONTE AZUL - COMARCA; MONTE AZUL-PJ-SECRETARIA 17.559,01 8.779,51 0,00 0,00 0,00 0,00 0,00 2.105,00 28.443,52 3.995,11 5.207,34 0,00 0,00 9.202,45 19.241,07 30/09/2023
562 623000 CLAUDIA PATRICIA SILVA RODRIGUES RAPOSEIRAS OFICIAL DO MP BELO HORIZONTE - COMARCA; DIVISÃO DE EDUCAÇÃO PARA O CONSUMO 7.506,70 750,67 0,00 0,00 0,00 0,00 0,00 3.055,00 11.312,37 1.102,13 1.030,59 0,00 0,00 2.132,72 9.179,65 30/09/2023
563 418400 CLAUDIA REGINA MARTINS BONIFACIO OFICIAL DO MP ITUIUTABA - COMARCA; ITUIUTABA-PJ-06PJ 11.212,54 2.242,51 0,00 0,00 0,00 0,00 345,67 2.105,00 15.905,72 1.933,76 2.179,12 0,00 0,00 4.112,88 11.792,84 30/09/2023
564 498300 CLAUDIA SOUTO FARIAS BRAUN OFICIAL DO MP TEÓFILO OTONI - COMARCA; TEOFILO OTONI-PJ-SECRETARIA 7.506,70 1.501,34 0,00 0,00 0,00 0,00 0,00 2.105,00 11.113,04 1.222,23 1.151,86 0,00 0,00 2.374,09 8.738,95 30/09/2023
565 206500 CLAUDIA VALERIA FONSECA ANDRADE ANALISTA DO MP BELO HORIZONTE - COMARCA; BH-23PJ INF-FISC MED SOC FEC 23.070,31 16.149,22 0,00 598,96 0,00 6.536,25 1.883,90 2.105,00 50.343,64 5.795,34 12.173,95 1.629,57 0,00 19.598,86 30.744,78 30/09/2023
566 277500 CLAUDIO ANTONIO BORGES BRUNSWICK ALVARES OFICIAL DO MP BELO HORIZONTE - COMARCA; SUPER DE GESTAO DE PESSOAS-LOTACAO TEMPORARIA 12.343,61 3.703,08 0,00 0,00 0,00 0,00 0,00 2.105,00 18.151,69 2.348,42 2.882,06 0,00 0,00 5.230,48 12.921,21 30/09/2023
567 444800 CLAUDIO ARESIO DO CARMO ANALISTA DO MP SETE LAGOAS - COMARCA; SETE LAGOAS-PJ-01PJ 14.960,00 5.984,00 0,00 0,00 0,00 0,00 66,46 2.105,00 23.115,46 3.832,10 5.864,43 0,00 0,00 9.696,53 13.418,93 30/09/2023
568 545100 CLAUDIO HENRIQUE MACEDO DE SOUZA FRANSOZO ANALISTA DO MP OURO PRETO - COMARCA; OURO PRETO-PJ-03PJ 12.343,61 2.468,72 0,00 0,00 0,00 0,00 0,00 3.055,00 17.867,33 982,16 2.767,68 0,00 0,00 3.749,84 14.117,49 30/09/2023
569 353500 CLAUDIO HENRIQUE PEDRO DA ROCHA OFICIAL DO MP BELO HORIZONTE - COMARCA; DIVISAO TRANSPORTES 12.343,61 3.703,08 0,00 0,00 0,00 0,00 0,00 2.105,00 18.151,69 2.348,42 2.777,79 0,00 0,00 5.126,21 13.025,48 30/09/2023
570 265800 CLAUDIO KUPIDLOWSKY FERNANDES OFICIAL DO MP BELO HORIZONTE - COMARCA; SECRETARIA DO PROCON-MG 12.343,61 4.937,44 0,00 0,00 0,00 0,00 1.098,78 2.105,00 20.484,83 3.699,62 3.337,05 0,00 0,00 7.036,67 13.448,16 30/09/2023
571 193600 CLAUDIO LEITE FONTES OFICIAL DO MP ITUIUTABA - COMARCA; ITUIUTABA-PJ-02PJ 12.343,61 6.171,81 0,00 0,00 0,00 0,00 1.249,68 3.055,00 22.820,10 3.982,58 5.233,36 0,00 0,00 9.215,94 13.604,16 30/09/2023
572 329400 CLAUDIO MARCIO BERNARDES OFICIAL DO MP ITAÚNA - COMARCA; ITAUNA-PJ-03PJ 12.343,61 9.874,89 0,00 0,00 0,00 0,00 1.208,50 3.055,00 26.482,00 4.639,17 6.357,53 0,00 0,00 10.996,70 15.485,30 30/09/2023
573 270200 CLAUDIO RABELO ALVES OFICIAL DO MP FORMIGA - COMARCA; FORMIGA-PJ-03PJ 14.960,00 5.984,00 0,00 0,00 0,00 0,00 0,00 2.105,00 23.049,00 3.131,99 3.856,93 0,00 0,00 6.988,92 16.060,08 30/09/2023
574 264700 CLAUDIO ROBERTO KFURI DE ARAUJO ANALISTA DO MP BELO HORIZONTE - COMARCA; CENTRAL DE APOIO TECNICO-SETOR DE INFORMATICA 23.070,31 9.228,12 0,00 0,00 0,00 0,00 1.698,60 2.105,00 36.102,03 5.795,34 9.350,48 0,00 0,00 15.145,82 20.956,21 30/09/2023
575 543300 CLAUDIO SILVA DE CARVALHO ANALISTA DO MP CAMPO BELO - COMARCA; CAMPO BELO-PJ-03PJ 11.577,56 1.157,76 0,00 0,00 0,00 0,00 0,00 2.105,00 14.840,32 1.818,60 2.065,00 0,00 0,00 3.883,60 10.956,72 30/09/2023
576 160700 CLAUDIO VICENTE HESS ASSESSOR DE GABINETE I BELO HORIZONTE - COMARCA; CENTRAL DE APOIO TECNICO-SETOR DE INFORMATICA 0,00 9.065,39 18.130,77 0,00 0,00 0,00 1.568,10 2.105,00 30.869,26 876,95 8.653,51 0,00 0,00 9.530,46 21.338,80 30/09/2023
577 312900 CLAUDIO VIEIRA FIRPE OFICIAL DO MP BELO HORIZONTE - COMARCA; DIR RELACOES INSTITUCIONAIS 12.343,61 3.703,08 0,00 0,00 0,00 0,00 0,00 2.105,00 18.151,69 2.348,42 2.882,06 0,00 0,00 5.230,48 12.921,21 30/09/2023
578 634100 CLEA CRISTINA GUERRA DE FREITAS COSTA OFICIAL DO MP BELO HORIZONTE - COMARCA; BH-18PJ VIOLENCIA DOMESTICA-SECRETARIA 7.270,07 727,01 0,00 0,00 0,00 0,00 0,00 2.105,00 10.102,08 1.060,48 970,47 0,00 0,00 2.030,95 8.071,13 30/09/2023
579 459200 CLEIA ZILLE PEREIRA ANALISTA DO MP BELO HORIZONTE - COMARCA; BH-07PJ 01 TRIBUNAL DO JURI-GAB 059PJ 12.343,61 2.468,72 0,00 0,00 0,00 0,00 0,00 3.530,00 18.342,33 2.150,92 2.596,93 0,00 0,00 4.747,85 13.594,48 30/09/2023
580 481800 CLEIDE CARDOSO DA SILVA ANALISTA DO MP MANHUAÇU - COMARCA; MANHUACU-PJ-04PJ 12.343,61 2.468,72 0,00 0,00 0,00 0,00 0,00 2.105,00 16.917,33 2.150,92 2.492,65 0,00 0,00 4.643,57 12.273,76 30/09/2023
581 347600 CLEIDIMAR DE OLIVEIRA SILVA OFICIAL DO MP PATOS DE MINAS - COMARCA; PATOS DE MINAS-PJ-03PJ 12.343,61 4.937,44 0,00 0,00 0,00 0,00 1.114,88 2.105,00 20.500,93 3.690,87 4.765,78 0,00 0,00 8.456,65 12.044,28 30/09/2023
582 396500 CLEIDISON BATISTA DE ANDRADE OFICIAL DO MP RESPLENDOR - COMARCA; RESPLENDOR-PJ-UNPJ 11.212,54 3.363,76 0,00 0,00 0,00 0,00 0,00 2.105,00 16.681,30 2.113,16 2.438,13 0,00 0,00 4.551,29 12.130,01 30/09/2023
583 535100 CLEISON ALVES DA SILVA ANALISTA DO MP BOA ESPERANÇA - COMARCA; BOA ESPERANCA-PJ-01PJ 12.343,61 3.703,08 0,00 0,00 0,00 0,00 0,00 2.105,00 18.151,69 2.348,42 2.777,79 0,00 0,00 5.126,21 13.025,48 30/09/2023
584 298100 CLEONICE AUGUSTA BARROS DE OLIVEIRA ANALISTA DO MP JUIZ DE FORA - COMARCA; JUIZ DE FORA-PJ-08PJ 23.070,31 6.921,09 0,00 0,00 0,00 0,00 1.698,74 2.105,00 33.795,14 5.795,34 8.743,00 0,00 0,00 14.538,34 19.256,80 30/09/2023
585 114301 CLERES PEREIRA DA SILVA JUNIOR ASSESSOR ADMINISTRATIVO I BELO HORIZONTE - COMARCA; GAECO - SECRETARIA 0,00 2.436,35 4.872,71 0,00 0,00 0,00 0,00 2.105,00 9.414,06 876,95 836,98 0,00 0,00 1.713,93 7.700,13 30/09/2023
586 264100 CLETO HENRIQUE ANDRADE SILVA ANALISTA DO MP BELO HORIZONTE - COMARCA; DIRETORIA DE SISTEMAS DE INFORMACAO 23.070,31 9.228,12 0,00 0,00 0,00 0,00 2.242,09 7.272,75 41.813,27 5.795,34 9.776,46 0,00 0,00 15.571,80 26.241,47 30/09/2023
587 334400 CLEUBA DE OLIVEIRA BARCELOS GONCALVES OFICIAL DO MP DIVINÓPOLIS - COMARCA; COORD REG SAUDE MACRORREGIAO SANITARIA OESTE 12.343,61 3.703,08 0,00 0,00 0,00 0,00 0,00 2.105,00 18.151,69 2.348,42 2.829,93 0,00 0,00 5.178,35 12.973,34 30/09/2023
588 347500 CLEUSA CORDEIRO DA MATA PIMENTA OFICIAL DO MP CAMPO BELO - COMARCA; CAMPO BELO-PJ-01PJ 12.343,61 11.109,25 0,00 0,00 0,00 3.934,04 1.402,17 2.105,00 30.894,07 3.769,08 5.917,50 0,00 0,00 9.686,58 21.207,49 30/09/2023
589 510200 CLEZIO SALES SILVA OFICIAL DO MP BRASÓPOLIS - COMARCA; BRASOPOLIS-PJ-UNPJ 7.506,70 1.501,34 0,00 0,00 0,00 0,00 0,00 3.740,86 12.748,90 1.222,23 1.256,14 0,00 0,00 2.478,37 10.270,53 30/09/2023
590 323000 CLOTILDE DE PADUA VIEIRA OFICIAL DO MP BELO HORIZONTE - COMARCA; BH-19PJ SAUDE-SECRETARIA 129PJ 12.343,61 3.703,08 0,00 0,00 0,00 0,00 844,97 2.105,00 18.996,66 3.433,95 4.593,83 0,00 0,00 8.027,78 10.968,88 30/09/2023
591 285200 CLOVIS ANDRE LUDTKE OFICIAL DO MP BELO HORIZONTE - COMARCA; DIVISAO DE MANUTENCAO PREDIAL 13.160,57 3.948,17 0,00 0,00 0,00 0,00 1.159,48 2.105,00 20.373,22 3.173,26 4.072,94 0,00 0,00 7.246,20 13.127,02 30/09/2023
592 381100 CONCEICAO APARECIDA TEIXEIRA ARANTES ANALISTA DO MP BELO HORIZONTE - COMARCA; BH-23PJ INFRACIONAL-ASS JURIDICA 18.999,41 5.699,82 0,00 0,00 0,00 0,00 3.810,74 3.055,00 31.564,97 4.342,54 5.708,95 0,00 0,00 10.051,49 21.513,48 30/09/2023
593 249900 CONSTANTINO CEZAR GOMES MOTA OFICIAL DO MP MONTES CLAROS - COMARCA; COORD REG BACIA RIOS VERDE GRANDE E PARDO 12.343,61 4.937,44 0,00 0,00 0,00 0,00 967,59 4.005,00 22.253,64 2.979,71 3.689,23 0,00 0,00 6.668,94 15.584,70 30/09/2023
594 481000 CRISHMA ANALIA LOMBELLO ANALISTA DO MP JUIZ DE FORA - COMARCA; JUIZ DE FORA-PJ-13PJ 12.343,61 2.468,72 0,00 0,00 0,00 0,00 0,00 2.105,00 16.917,33 2.150,92 2.544,79 0,00 0,00 4.695,71 12.221,62 30/09/2023
595 523900 CRISTHYANE BAZOLI COSTA GUEDES COUTO OFICIAL DO MP BELO HORIZONTE - COMARCA; BH-04PJ JUIZO REG PÚBLICOS-SECRETARIA 9.699,77 1.939,95 0,00 0,00 0,00 0,00 0,00 2.105,00 13.744,72 1.643,30 1.864,06 0,00 0,00 3.507,36 10.237,36 30/09/2023
596 187000 CRISTIAN DAYVSON EVANGELISTA OFICIAL DO MP JUIZ DE FORA - COMARCA; JUIZ DE FORA-PJ-13PJ 20.533,67 8.213,47 0,00 0,00 0,00 0,00 1.771,66 2.105,00 32.623,80 4.380,49 7.181,52 0,00 0,00 11.562,01 21.061,79 30/09/2023
597 682100 CRISTIAN TRISTAO DE ANDRADE ASSESSOR PROMOTOR JUSTICA TRÊS CORACOES - COMARCA; TRES CORACOES-PJ-04PJ 0,00 0,00 8.810,89 0,00 0,00 0,00 0,00 2.105,00 10.915,89 876,95 1.709,37 0,00 0,00 2.586,32 8.329,57 30/09/2023
598 319800 CRISTIANA GONCALVES DOS SANTOS GUSMAO OFICIAL DO MP SETE LAGOAS - COMARCA; SETE LAGOAS-PJ-04PJ 12.343,61 3.703,08 0,00 0,00 0,00 0,00 0,00 2.105,00 18.151,69 2.348,42 2.882,06 0,00 0,00 5.230,48 12.921,21 30/09/2023
599 520600 CRISTIANA JANAINA BARBOZA JUVENCIO DOS SANTOS ANALISTA DO MP BELO HORIZONTE - COMARCA; BH-02PJ FAMILIA-SECRETARIA 12.343,61 2.468,72 0,00 0,00 0,00 0,00 0,00 2.105,00 16.917,33 2.150,92 2.596,93 0,00 0,00 4.747,85 12.169,48 30/09/2023
600 195600 CRISTIANA SOARES HALABI OFICIAL DO MP UBERABA - COMARCA; UBERABA-PJ-01PJ 20.533,67 8.213,47 0,00 0,00 0,00 0,00 114,03 2.105,00 30.966,17 5.795,34 8.577,58 0,00 0,00 14.372,92 16.593,25 30/09/2023
601 218900 CRISTIANE ALVES BELLES OFICIAL DO MP JUIZ DE FORA - COMARCA; JUIZ DE FORA-PJ-10PJ 7.506,70 3.002,68 0,00 0,00 0,00 0,00 0,00 3.530,00 14.039,38 1.462,45 1.498,67 0,00 0,00 2.961,12 11.078,26 30/09/2023
602 263600 CRISTIANE CARVALHO COUTINHO OFICIAL DO MP BELO HORIZONTE - COMARCA; BH-23PJ INFRACIONAL-SEC EXP 13.588,97 5.435,59 0,00 0,00 0,00 0,00 962,64 2.105,00 22.092,20 4.085,35 5.507,27 0,00 0,00 9.592,62 12.499,58 30/09/2023
603 541000 CRISTIANE COELHO ALVES OFICIAL DO MP ITABIRA - COMARCA; ITABIRA-PJ-03PJ 7.506,70 1.501,34 0,00 0,00 0,00 0,00 0,00 2.105,00 11.113,04 1.222,23 1.204,00 0,00 0,00 2.426,23 8.686,81 30/09/2023
604 441700 CRISTIANE CORRADO DE ANDRADE ANALISTA DO MP BELO HORIZONTE - COMARCA; DIRETORIA DE SISTEMAS DE INFORMACAO 18.130,77 3.626,15 4.020,58 0,00 0,00 0,00 1.718,16 2.105,00 29.600,66 4.756,50 8.191,64 0,00 0,00 12.948,14 16.652,52 30/09/2023
605 375100 CRISTIANE DAS DORES ERCIO DE LIMA OFICIAL DO MP GOVERNADOR VALADARES - COMARCA; COOR REG APOIO COM INC MOB VALE DO RIO DOCE 11.577,56 3.473,27 0,00 0,00 0,00 0,00 979,57 2.105,00 18.135,40 3.191,03 4.385,61 0,00 0,00 7.576,64 10.558,76 30/09/2023
606 178800 CRISTIANE DE LIMA HOSKEN OFICIAL DO MP BELO HORIZONTE - COMARCA; BH-14PJ DEFESA CONSUMIDOR-GAB 110PJ 21.346,53 8.538,61 0,00 0,00 0,00 0,00 59,27 2.105,00 32.049,41 5.795,34 8.774,07 0,00 0,00 14.569,41 17.480,00 30/09/2023
607 494000 CRISTIANE DE MELO MARQUEZ OLIVEIRA ANALISTA DO MP UBERLÂNDIA - COMARCA; UBERLANDIA-PJ-06PJ 15.447,01 4.016,22 0,00 0,00 0,00 0,00 1.157,03 3.055,00 23.675,26 3.703,10 4.837,88 0,00 0,00 8.540,98 15.134,28 30/09/2023
608 266100 CRISTIANE DE OLIVEIRA CASTRO OFICIAL DO MP BELO HORIZONTE - COMARCA; BH-14PJ DEFESA CONSUMIDOR-SECRETARIA 17.559,01 7.023,60 0,00 0,00 0,00 0,00 1.771,66 2.105,00 28.459,27 3.714,17 6.269,33 0,00 0,00 9.983,50 18.475,77 30/09/2023
609 329500 CRISTIANE DOS REIS SILVA OFICIAL DO MP ARAXÁ - COMARCA; ARAXA-PJ-04PJ 12.343,61 3.703,08 0,00 0,00 0,00 0,00 0,00 2.105,00 18.151,69 2.348,42 2.777,79 0,00 0,00 5.126,21 13.025,48 30/09/2023
610 301600 CRISTIANE GODINHO PIRES ANALISTA DO MP BETIM - COMARCA; BETIM-PJ-06PJ 23.070,31 6.921,09 0,00 0,00 0,00 0,00 2.026,54 2.105,00 34.122,94 5.795,34 8.743,00 0,00 0,00 14.538,34 19.584,60 30/09/2023
611 406100 CRISTIANE GONCALVES CHAVES ANALISTA DO MP BELO HORIZONTE - COMARCA; BH-06PJ JUIZO CIVEL-SECRETARIA 18.720,84 7.488,34 0,00 0,00 0,00 0,00 1.842,16 7.346,84 35.398,18 5.710,91 7.970,38 0,00 0,00 13.681,29 21.716,89 30/09/2023
612 487600 CRISTIANE LOPES DE OLIVEIRA OFICIAL DO MP DIVINÓPOLIS - COMARCA; DIVINOPOLIS-PJ-03PJ 8.810,89 1.762,18 0,00 0,00 0,00 0,00 0,00 2.105,00 12.678,07 1.472,64 1.617,66 0,00 0,00 3.090,30 9.587,77 30/09/2023
613 502500 CRISTIANE MACIEL DE OLIVEIRA GOMES ANALISTA DO MP JUIZ DE FORA - COMARCA; JUIZ DE FORA-PJ-02PJ 12.343,61 2.468,72 0,00 0,00 0,00 0,00 0,00 3.055,00 17.867,33 2.150,92 2.596,93 0,00 0,00 4.747,85 13.119,48 30/09/2023
614 285500 CRISTIANE MAGALHAES LOURENCO ANALISTA DO MP BELO HORIZONTE - COMARCA; CENTRAL DE APOIO TECNICO-SETOR CONTABIL 23.070,31 6.921,09 0,00 0,00 0,00 0,00 118,96 2.105,00 32.215,36 5.795,34 9.241,28 0,00 0,00 15.036,62 17.178,74 30/09/2023
615 536500 CRISTIANE MICHELE DE SOUZA ANALISTA DO MP BARÃO DE COCAIS - COMARCA; BARAO DE COCAIS-PJ-UNPJ 12.343,61 2.468,72 0,00 0,00 0,00 0,00 0,00 2.105,00 16.917,33 2.150,92 2.492,65 0,00 0,00 4.643,57 12.273,76 30/09/2023
616 346600 CRISTIANE NOGUEIRA ANDRADE ANALISTA DO MP BELO HORIZONTE - COMARCA; CENTRAL DE APOIO TECNICO-SETOR CONTABIL 21.346,53 6.403,96 0,00 0,00 0,00 0,00 0,00 2.105,00 29.855,49 5.795,34 8.730,08 0,00 0,00 14.525,42 15.330,07 30/09/2023
617 234000 CRISTIANE OLIVEIRA TOSTES OFICIAL DO MP JUIZ DE FORA - COMARCA; JUIZ DE FORA-PJ-08PJ 18.720,84 7.488,34 0,00 0,00 0,00 0,00 0,00 3.055,00 29.264,18 3.974,42 5.510,87 0,00 0,00 9.485,29 19.778,89 30/09/2023
618 445800 CRISTIANE ORZIL COSTA OFICIAL DO MP SANTA LUZIA - COMARCA; SANTA LUZIA-PJ-05PJ 9.097,81 1.819,56 0,00 0,00 0,00 0,00 0,00 3.055,00 13.972,37 1.527,73 1.697,19 0,00 0,00 3.224,92 10.747,45 30/09/2023
619 616100 CRISTIANE PAES RODRIGUES MARCICANO ANALISTA DO MP CATAGUASES - COMARCA; CATAGUASES-PJ-05PJ 10.516,49 1.051,65 0,00 0,00 0,00 0,00 0,00 3.055,00 14.623,14 1.631,85 1.847,52 0,00 0,00 3.479,37 11.143,77 30/09/2023
620 612300 CRISTIANE RIBEIRO DOS REIS ARCANJO OFICIAL DO MP BELO HORIZONTE - COMARCA; DIRETORIA DE PAGAMENTO DE PESSOAL-DPAG 7.506,70 750,67 0,00 0,00 0,00 0,00 0,00 0,00 8.257,37 1.717,06 809,35 0,00 0,00 2.526,41 5.730,96 30/09/2023
621 257700 CRISTIANE RODRIGUES PAES NUNES ANALISTA DO MP BELO HORIZONTE - COMARCA; BH-22PJ PES COM DEF E IDOSOS-ORIENTACAO PSIC 23.070,31 9.228,12 0,00 0,00 0,00 0,00 1.982,68 3.055,00 37.336,11 5.795,34 10.354,77 0,00 0,00 16.150,11 21.186,00 30/09/2023
622 510800 CRISTIANE SANTOS FERNANDES ORNELES ANALISTA DO MP BELO HORIZONTE - COMARCA; BH-03PJ EMPRESARIAL-SECRETARIA 12.343,61 2.468,72 0,00 0,00 0,00 0,00 0,00 2.105,00 16.917,33 2.150,92 2.596,93 0,00 0,00 4.747,85 12.169,48 30/09/2023
623 535701 CRISTIANE SANTOS MIRANDA ANALISTA DO MP CONTAGEM - COMARCA; CONTAGEM-PJ-03PJ 10.341,72 1.654,67 0,00 0,00 0,00 0,00 0,00 2.105,00 14.101,39 1.700,37 1.946,45 0,00 0,00 3.646,82 10.454,57 30/09/2023
624 536200 CRISTIANO DE OLIVEIRA ANALISTA DO MP CONCEIÇÃO DO MATO DENTRO - COMARCA; CONCEICAO DO MATO DENTRO-PJ-UNPJ 12.343,61 2.468,72 0,00 0,00 0,00 0,00 0,00 4.005,00 18.817,33 2.150,92 2.492,65 0,00 0,00 4.643,57 14.173,76 30/09/2023
625 477400 CRISTIANO SOARES ELEUTERIO ANALISTA DO MP BELO HORIZONTE - COMARCA; GABINETE DE PROCURADOR DE JUSTIÇA - SALA 812 15.447,01 3.089,40 0,00 0,00 0,00 0,00 1.347,58 2.105,00 21.988,99 3.709,29 5.214,45 0,00 0,00 8.923,74 13.065,25 30/09/2023
626 449400 CRISTIANO TEIXEIRA RODRIGUES LANA ANALISTA DO MP BELO HORIZONTE - COMARCA; BH-18PJ VIOLENCIA DOMESTICA-SECRETARIA 13.588,97 3.533,13 0,00 0,00 0,00 0,00 1.063,54 2.105,00 20.290,64 3.084,98 3.945,47 0,00 0,00 7.030,45 13.260,19 30/09/2023
627 239400 CRISTINA DE FATIMA CRUZ E SILVA OFICIAL DO MP MONTE SANTO DE MINAS - COMARCA; MONTE SANTO DE MINAS-PJ-SECRETARIA 17.559,01 7.023,60 0,00 615,66 0,00 15.766,48 0,00 2.105,00 43.069,75 3.714,17 7.648,16 0,00 0,00 11.362,33 31.707,42 30/09/2023
628 544000 CRISTINA DE OLIVEIRA TERRA ANALISTA DO MP BELO HORIZONTE - COMARCA; BH-18PJ VIOLENCIA DOMESTICA-SECRETARIA 12.343,61 2.468,72 0,00 0,00 0,00 0,00 0,00 2.105,00 16.917,33 2.150,92 2.596,93 0,00 0,00 4.747,85 12.169,48 30/09/2023
629 356800 CRISTINA DE PINHO BARROSO OFICIAL DO MP SABINÓPOLIS - COMARCA; SABINOPOLIS-PJ-UNPJ 10.516,49 4.206,60 0,00 0,00 0,00 0,00 752,71 3.055,00 18.530,80 2.936,65 3.760,36 0,00 0,00 6.697,01 11.833,79 30/09/2023
630 649500 CRISTINA DO DIVINO ESPIRITO SANTOS OFICIAL DO MP DIVINÓPOLIS - COMARCA; DIVINOPOLIS-PJ-12PJ 6.603,76 660,38 0,00 0,00 0,00 0,00 0,00 2.105,00 9.369,14 944,43 852,96 0,00 0,00 1.797,39 7.571,75 30/09/2023
631 727100 CRISTINA DORNELLES CLARET ASSESSOR ADMINISTRATIVO III BELO HORIZONTE - COMARCA; CAO-MEIO AMBIENTE 0,00 0,00 10.858,90 0,00 0,00 0,00 0,00 2.105,00 12.963,90 876,95 2.272,58 0,00 0,00 3.149,53 9.814,37 30/09/2023
632 348201 CRISTINA MARIA DA SILVA ANALISTA DO MP BELO HORIZONTE - COMARCA; CENT ESTAD COOPERACAO TECNICO-JURIDICA 12.343,61 2.468,72 0,00 0,00 0,00 0,00 0,00 3.530,00 18.342,33 2.150,92 2.596,93 0,00 0,00 4.747,85 13.594,48 30/09/2023
633 434900 CRISTINA MELO DE MADUREIRA ANALISTA DO MP BELO HORIZONTE - COMARCA; BH-07PJ 01 TRIBUNAL JURI-SECRETARIA 18.130,77 3.626,15 0,00 0,00 0,00 0,00 1.170,86 2.105,00 25.032,78 4.448,83 6.123,48 0,00 0,00 10.572,31 14.460,47 30/09/2023
634 307700 CRISTINA TEIXEIRA MARQUES OFICIAL DO MP BELO HORIZONTE - COMARCA; CENTRAL DE APOIO TECNICO-SETOR CONTABIL 12.343,61 3.703,08 0,00 0,00 0,00 0,00 937,18 2.105,00 19.088,87 3.459,39 4.645,16 0,00 0,00 8.104,55 10.984,32 30/09/2023
635 743100 CRISTOVAO JOSE DOS SANTOS JUNIOR ANALISTA DO MP BELO HORIZONTE - COMARCA; CGMP-DIR ESTAGIO PROBATORIO E ORIENT 7.040,78 0,00 0,00 0,00 0,00 0,00 0,00 2.105,00 9.145,78 909,81 801,06 0,00 0,00 1.710,87 7.434,91 30/09/2023
636 265300 CRISTOVAO SANCHES DE MEDEIROS ANALISTA DO MP BELO HORIZONTE - COMARCA; DIRETORIA DE CONTABILIDADE 22.191,68 8.876,67 0,00 0,00 0,00 0,00 0,00 2.105,00 33.173,35 5.795,34 9.550,39 0,00 0,00 15.345,73 17.827,62 30/09/2023
637 349800 CROZEIR LUIZ DA SILVA OFICIAL DO MP UNAÍ - COMARCA; UNAI-PJ-SECRETARIA 12.343,61 3.703,08 0,00 0,00 0,00 0,00 996,79 2.988,95 20.032,43 2.626,16 3.230,92 0,00 0,00 5.857,08 14.175,35 30/09/2023
638 490500 CYNTHIA CRISTINA DE SOUZA OLIVEIRA VALENTE ANALISTA DO MP BELO HORIZONTE - COMARCA; BH-09PJ AUDITORIA MILITAR-SECRETARIA 12.343,61 2.468,72 0,00 0,00 0,00 0,00 0,00 2.105,00 16.917,33 2.150,92 2.596,93 0,00 0,00 4.747,85 12.169,48 30/09/2023
639 389800 CYNTHIA GARIGLIO DOS SANTOS OFICIAL DO MP PERDIZES - COMARCA; PERDIZES-PJ-SECRETARIA 10.858,90 3.257,67 0,00 0,00 0,00 0,00 718,71 2.105,00 16.940,28 2.979,36 3.765,79 0,00 0,00 6.745,15 10.195,13 30/09/2023
640 335101 CYNTHIA GONTIJO D ASSUNCAO ANALISTA DO MP BELO HORIZONTE - COMARCA; FEPDC-SECRETARIA EXECUTIVA 12.343,61 3.703,08 4.020,58 0,00 0,00 0,00 0,00 3.055,00 23.122,27 2.348,42 3.987,72 0,00 0,00 6.336,14 16.786,13 30/09/2023
641 269700 CYNTIA ROCHA CAVALCANTI OFICIAL DO MP UBERLÂNDIA - COMARCA; UBERLANDIA-PJ-06PJ 17.559,01 7.023,60 0,00 0,00 0,00 0,00 1.755,90 3.055,00 29.393,51 4.354,00 6.544,65 0,00 0,00 10.898,65 18.494,86 30/09/2023
642 278000 DAIRTON LOPES MARTINS FILHO COORDENADOR II BELO HORIZONTE - COMARCA; DIRETORIA DE SISTEMAS DE INFORMACAO 20.533,67 6.160,10 0,00 0,00 0,00 0,00 1.668,51 2.105,00 30.467,28 3.272,48 7.144,12 0,00 0,00 10.416,60 20.050,68 30/09/2023
643 392700 DALIANA CHAVES IBRAIM MARINHO OFICIAL DO MP ITAÚNA - COMARCA; ITAUNA-PJ-04PJ 9.393,95 1.878,79 0,00 0,00 0,00 0,00 0,00 2.105,00 13.377,74 1.584,59 1.779,28 0,00 0,00 3.363,87 10.013,87 30/09/2023
644 558101 DALLEY TASSIA SILVA ANALISTA DO MP MORADA NOVA DE MINAS - COMARCA; MORADA NOVA DE MINAS-PJ-UNPJ 11.577,56 1.157,76 0,00 0,00 0,00 0,00 0,00 3.055,00 15.790,32 1.818,60 2.012,86 0,00 0,00 3.831,46 11.958,86 30/09/2023
645 476700 DALTON DAUD ANALISTA DO MP ARAGUARI - COMARCA; ARAGUARI-PJ-05PJ 12.343,61 2.468,72 0,00 0,00 0,00 0,00 0,00 2.105,00 16.917,33 2.150,92 2.492,65 0,00 0,00 4.643,57 12.273,76 30/09/2023
646 426900 DANIEL ALVES DA SILVA OFICIAL DO MP BELO HORIZONTE - COMARCA; DIVISÃO DE FISCALIZAÇÃO DAS RELAÇÕES DE CONSU 7.506,70 1.501,34 0,00 0,00 0,00 0,00 1.771,66 2.105,00 12.884,70 1.222,23 1.639,07 0,00 0,00 2.861,30 10.023,40 30/09/2023
647 536302 DANIEL BATISTA MARIANO OFICIAL DO MP LAGOA SANTA - COMARCA; LAGOA SANTA-PJ-SECRETARIA 4.570,25 0,00 0,00 0,00 0,00 0,00 0,00 2.105,00 6.675,25 526,88 257,78 0,00 0,00 784,66 5.890,59 30/09/2023
648 714000 DANIEL FERREIRA CAMARA ASSESSOR PROMOTOR JUSTICA RIBEIRÃO DAS NEVES - COMARCA; RIBEIRAO DAS NEVES-PJ-12PJ 0,00 0,00 8.810,89 0,00 0,00 0,00 0,00 2.105,00 10.915,89 876,95 1.709,37 0,00 0,00 2.586,32 8.329,57 30/09/2023
649 411000 DANIEL FERREIRA DA SILVA ANALISTA DO MP GOVERNADOR VALADARES - COMARCA; GOVERNADOR VALADARES-PJ-15PJ 17.559,01 7.023,60 0,00 0,00 0,00 0,00 90,14 5.463,30 30.136,05 3.714,17 4.645,31 0,00 0,00 8.359,48 21.776,57 30/09/2023
650 703500 DANIEL FILIPE DE DEUS SOARES ASSESSOR PROMOTOR JUSTICA ITABIRITO - COMARCA; ITABIRITO-PJ-02PJ 0,00 0,00 8.810,89 0,00 0,00 0,00 0,00 2.105,00 10.915,89 876,95 1.709,37 0,00 0,00 2.586,32 8.329,57 30/09/2023
651 309000 DANIEL GOMES DOS SANTOS ANALISTA DO MP POÇOS DE CALDAS - COMARCA; POCOS DE CALDAS-PJ-05PJ 23.070,31 6.921,09 0,00 0,00 0,00 0,00 95,87 2.105,00 32.192,27 5.795,34 8.697,69 0,00 0,00 14.493,03 17.699,24 30/09/2023
652 554500 DANIEL GOMES PEREIRA OFICIAL DO MP NANUQUE - COMARCA; NANUQUE-PJ-02PJ 7.506,70 1.501,34 0,00 0,00 0,00 0,00 0,00 2.105,00 11.113,04 1.222,23 1.256,14 0,00 0,00 2.478,37 8.634,67 30/09/2023
653 453000 DANIEL GONCALVES PEREIRA ANALISTA DO MP UNAÍ - COMARCA; UNAI-PJ-02PJ 12.343,61 3.209,34 0,00 0,00 0,00 0,00 0,00 4.480,00 20.032,95 2.269,42 2.768,01 0,00 0,00 5.037,43 14.995,52 30/09/2023
654 495500 DANIEL GUIMARAES CABRAL OFICIAL DO MP BELO HORIZONTE - COMARCA; BH-17PJ PATRIMONIO PUBLICO-SECRETARIA 10.015,59 2.003,12 0,00 0,00 0,00 0,00 736,25 3.055,00 15.809,96 2.516,98 3.233,69 0,00 0,00 5.750,67 10.059,29 30/09/2023
655 442900 DANIEL GUIMARAES GONCALVES ANALISTA DO MP UBERLÂNDIA - COMARCA; UBERLANDIA-PJ-03PJ 17.559,01 4.565,34 0,00 0,00 0,00 0,00 0,00 2.105,00 24.229,35 982,16 4.739,36 0,00 0,00 5.721,52 18.507,83 30/09/2023
656 655900 DANIEL LUIZ DA SILVA ASSESSOR ADMINISTRATIVO II BELO HORIZONTE - COMARCA; DIV FISCAL ADM CONT TERCEIRIZACAO 0,00 0,00 7.506,70 0,00 0,00 0,00 0,00 2.105,00 9.611,70 876,95 1.350,72 0,00 0,00 2.227,67 7.384,03 30/09/2023
657 464600 DANIEL PIACENTINI STIVANIN ANALISTA DO MP ANDRADAS - COMARCA; ANDRADAS-PJ-02PJ 12.343,61 2.468,72 0,00 0,00 0,00 0,00 0,00 2.105,00 16.917,33 2.150,92 2.596,93 0,00 0,00 4.747,85 12.169,48 30/09/2023
658 417000 DANIEL QUEIROZ FERREIRA ANALISTA DO MP PASSOS - COMARCA; PASSOS-PJ-06PJ 17.559,01 3.511,80 0,00 0,00 0,00 0,00 58,50 3.055,00 24.184,31 982,16 6.607,73 0,00 0,00 7.589,89 16.594,42 30/09/2023
659 396700 DANIEL SILVA CARNEVALLI SUPERINTENDENTE BELO HORIZONTE - COMARCA; SUPERINTENDENCIA DE TECNOLOGIA DA INFORMACAO 28.013,39 8.404,02 0,00 0,00 0,00 0,00 200,01 3.055,00 39.672,42 5.795,34 12.202,97 0,00 0,00 17.998,31 21.674,11 30/09/2023
660 489300 DANIEL TABOZA ROCHA ANALISTA DO MP IPATINGA - COMARCA; IPATINGA-PJ-08PJ 12.343,61 2.468,72 0,00 0,00 0,00 0,00 0,00 3.055,00 17.867,33 982,16 2.617,01 0,00 0,00 3.599,17 14.268,16 30/09/2023
661 414100 DANIEL TARDELI VALADAO ANALISTA DO MP TRÊS CORACOES - COMARCA; TRES CORACOES-PJ-02PJ 17.559,01 3.511,80 0,00 0,00 0,00 0,00 0,00 4.005,00 25.075,81 982,16 4.427,71 0,00 0,00 5.409,87 19.665,94 30/09/2023
662 731800 DANIEL VASCONCELOS ARAUJO SILVA ASSESSOR ADMINISTRATIVO IV BELO HORIZONTE - COMARCA; DIRETORIA DE REDES E BANCOS DE DADOS 0,00 0,00 14.488,22 0,00 0,00 0,00 0,00 2.105,00 16.593,22 876,95 3.270,64 0,00 0,00 4.147,59 12.445,63 30/09/2023
663 446601 DANIEL VIEIRA BUENO ANALISTA DO MP SÃO DOMINGOS DO PRATA - COMARCA; SAO DOMINGOS DO PRATA-PJ-UNPJ 12.343,61 2.468,72 0,00 0,00 0,00 0,00 733,45 3.055,00 18.600,78 3.090,98 4.036,64 0,00 0,00 7.127,62 11.473,16 30/09/2023
664 253200 DANIELA BATISTA LIMA BARBOSA ASSESSOR ADMINISTRATIVO II BELO HORIZONTE - COMARCA; CENTRAL DE APOIO TECN-SETOR DE MEIO AMBIENTE 0,00 3.002,68 7.506,70 0,00 0,00 0,00 0,00 2.105,00 12.614,38 876,95 2.176,46 0,00 0,00 3.053,41 9.560,97 30/09/2023
665 505800 DANIELA BORGES DE MATTOS RESENDE ANALISTA DO MP JUIZ DE FORA - COMARCA; JUIZ DE FORA-PJ-20PJ 12.343,61 2.468,72 0,00 0,00 0,00 0,00 0,00 2.105,00 16.917,33 2.150,92 2.596,93 0,00 0,00 4.747,85 12.169,48 30/09/2023
666 478000 DANIELA CARVALHO SOARES ANALISTA DO MP SÃO JOÃO DEL REI - COMARCA; SAO JOAO DEL REI-PJ-01PJ 12.343,61 2.468,72 0,00 0,00 0,00 0,00 0,00 2.105,00 16.917,33 2.150,92 2.596,93 0,00 0,00 4.747,85 12.169,48 30/09/2023
667 275900 DANIELA CHAGAS SODRE ANALISTA DO MP BELO HORIZONTE - COMARCA; CENTRAL DE APOIO TECNICO-SETOR CONTABIL 23.070,31 6.921,09 0,00 0,00 0,00 0,00 0,00 2.105,00 32.096,40 5.795,34 9.392,19 0,00 0,00 15.187,53 16.908,87 30/09/2023
668 234301 DANIELA CRUZ SOARES ANALISTA DO MP BELO HORIZONTE - COMARCA; LABORATORIO TECNOLOGIA INTELIGENCIA 23.070,31 9.228,12 0,00 0,00 0,00 0,00 1.890,35 2.105,00 36.293,78 5.795,34 10.406,91 0,00 0,00 16.202,25 20.091,53 30/09/2023
669 638000 DANIELA DE ALMEIDA BATISTA ANALISTA DO MP ANDRELÂNDIA - COMARCA; ANDRELANDIA-PJ-UNPJ 11.212,54 1.121,25 0,00 0,00 0,00 0,00 777,40 3.055,00 16.166,19 982,16 3.689,09 0,00 0,00 4.671,25 11.494,94 30/09/2023
670 301000 DANIELA DE ALMEIDA E OLIVEIRA ANALISTA DO MP BELO HORIZONTE - COMARCA; DIRETORIA DE SISTEMAS DE INFORMACAO 23.070,31 6.921,09 0,00 519,10 0,00 7.826,76 0,00 2.105,00 40.442,26 5.795,34 11.228,93 0,00 0,00 17.024,27 23.417,99 30/09/2023
671 296000 DANIELA DE AZEVEDO SILVA ANALISTA DO MP BRASÓPOLIS - COMARCA; BRASOPOLIS-PJ-UNPJ 23.070,31 9.228,12 0,00 0,00 0,00 0,00 1.872,71 2.105,00 36.276,14 5.795,34 10.567,05 0,00 0,00 16.362,39 19.913,75 30/09/2023
672 453500 DANIELA DE CASTRO SOUSA BARBOSA ANALISTA DO MP BELO HORIZONTE - COMARCA; BH-08PJ JUIZADO ESPECIAL-SECRETARIA 13.588,97 3.533,13 0,00 0,00 0,00 0,00 1.046,51 2.105,00 20.273,61 2.849,01 3.604,80 0,00 0,00 6.453,81 13.819,80 30/09/2023
673 506000 DANIELA DE OLIVEIRA CAVALIERI ANALISTA DO MP BELO HORIZONTE - COMARCA; BH-14PJ DEFESA CONSUMIDOR-GAB 005PJ 12.343,61 2.468,72 0,00 0,00 0,00 0,00 0,00 2.105,00 16.917,33 2.150,92 2.596,93 0,00 0,00 4.747,85 12.169,48 30/09/2023
674 546200 DANIELA DE VILHENA LEMES GONCALVES OFICIAL DO MP TRÊS CORACOES - COMARCA; TRES CORACOES-PJ-05PJ 7.506,70 750,67 0,00 0,00 0,00 0,00 0,00 2.105,00 10.362,37 1.102,13 978,46 0,00 0,00 2.080,59 8.281,78 30/09/2023
675 356400 DANIELA LEAL FERRAZ ANALISTA DO MP MONTES CLAROS - COMARCA; COORD REG PJ DEF EDUC DIR CRIANCA ADOL NORTE 20.533,67 6.160,10 0,00 0,00 0,00 0,00 0,00 3.055,00 29.748,77 4.051,95 6.205,66 0,00 0,00 10.257,61 19.491,16 30/09/2023
676 501000 DANIELA LOURENCO SANTOS DA SILVA GUIMARAES ANALISTA DO MP BELO HORIZONTE - COMARCA; BH-12PJ JUIZO CRIMINAL-GAB 095PJ 12.343,61 2.468,72 0,00 0,00 0,00 0,00 0,00 2.105,00 16.917,33 2.150,92 2.544,79 0,00 0,00 4.695,71 12.221,62 30/09/2023
677 195801 DANIELA MARIA DE OLIVEIRA QUEIROZ ANALISTA DO MP ARAGUARI - COMARCA; ARAGUARI-PJ-06PJ 18.130,77 7.252,31 0,00 0,00 0,00 0,00 1.503,23 2.105,00 28.991,31 5.585,76 7.799,75 0,00 0,00 13.385,51 15.605,80 30/09/2023
678 511400 DANIELA MARIA LARA DE OLIVEIRA ANALISTA DO MP BOA ESPERANÇA - COMARCA; BOA ESPERANCA-PJ-02PJ 12.343,61 3.703,08 0,00 0,00 0,00 0,00 0,00 3.055,00 19.101,69 2.348,42 2.829,93 0,00 0,00 5.178,35 13.923,34 30/09/2023
679 252101 DANIELA PAULA ALVES PENA ANALISTA DO MP CONTAGEM - COMARCA; CONTAGEM-PJ-APO TECNICO 18.720,84 7.488,34 0,00 0,00 0,00 0,00 1.689,51 2.105,00 30.003,69 5.788,99 8.109,29 0,00 0,00 13.898,28 16.105,41 30/09/2023
680 604700 DANIELA PEIXOTO NOGUEIRA COORDENADOR II BELO HORIZONTE - COMARCA; DIRET DE FORMACAO, APERFEIC. E POS-GRADUACAO 20.533,67 2.053,37 0,00 0,00 0,00 0,00 1.259,16 3.055,00 26.901,20 1.176,74 5.131,11 0,00 0,00 6.307,85 20.593,35 30/09/2023
681 662000 DANIELA RIBAS DE AVILA ASSESSOR ADMINISTRATIVO III BELO HORIZONTE - COMARCA; JUNTA RECURSAL DO PROCON ESTADUAL 0,00 0,00 10.858,90 0,00 0,00 0,00 0,00 2.105,00 12.963,90 876,95 2.272,58 0,00 0,00 3.149,53 9.814,37 30/09/2023
682 462000 DANIELA SOUSA GOMES DO AMARAL ANALISTA DO MP BETIM - COMARCA; BETIM-PJ-04PJ 14.960,00 2.992,00 0,00 0,00 0,00 0,00 1.202,52 2.105,00 21.259,52 3.867,68 5.432,77 0,00 0,00 9.300,45 11.959,07 30/09/2023
683 427000 DANIELA TEIXEIRA DINIZ ANDRADE ANALISTA DO MP BELO HORIZONTE - COMARCA; DIRETORIA DE PROJETOS DE EDIFICACOES 13.160,57 2.632,11 4.020,58 0,00 0,00 0,00 1.599,29 7.652,71 29.065,26 3.038,14 5.207,01 0,00 0,00 8.245,15 20.820,11 30/09/2023
684 337200 DANIELA TOLEDO SENIUK ANALISTA DO MP BELO HORIZONTE - COMARCA; GABINETE DE PROCURADOR DE JUSTIÇA - SALA 412 23.070,31 6.921,09 0,00 0,00 0,00 0,00 0,00 2.105,00 32.096,40 4.579,57 6.103,29 0,00 0,00 10.682,86 21.413,54 30/09/2023
685 605600 DANIELE ALZIRA SILVA CABRAL MOREIRA OFICIAL DO MP BELO HORIZONTE - COMARCA; BH-10PJ EXECUÇÃO PENAL-SECRETARIA 7.506,70 750,67 0,00 0,00 0,00 0,00 0,00 2.105,00 10.362,37 1.102,13 1.082,73 0,00 0,00 2.184,86 8.177,51 30/09/2023
686 195500 DANIELE CHAVES FONSECA OFICIAL DO MP BELO HORIZONTE - COMARCA; CGMP-DIR INSP CORR PROCED PROC DISC 20.533,67 8.213,47 0,00 0,00 0,00 0,00 57,01 2.105,00 30.909,15 5.710,72 8.021,45 0,00 0,00 13.732,17 17.176,98 30/09/2023
687 323400 DANIELE MEGALE SANTINI OFICIAL DO MP BELO HORIZONTE - COMARCA; CGMP-DIR INSP CORR PROCED PROC DISC 13.588,97 4.076,69 0,00 0,00 0,00 0,00 1.201,94 2.105,00 20.972,60 3.521,50 4.523,56 0,00 0,00 8.045,06 12.927,54 30/09/2023
688 357900 DANIELE REJANE PINTO VERSIEUX OFICIAL DO MP BELO HORIZONTE - COMARCA; BH-12PJ JUIZO CRIMINAL-SECRETARIA 12.343,61 3.703,08 0,00 0,00 0,00 0,00 0,00 2.105,00 18.151,69 2.348,42 2.882,06 0,00 0,00 5.230,48 12.921,21 30/09/2023
689 389500 DANIELE VASCONCELOS AMORIM OFICIAL DO MP SÃO SEBASTIÃO DO PARAÍSO - COMARCA; SAO SEBASTIAO DO PARAISO-PJ-04PJ 12.343,61 3.703,08 0,00 0,00 0,00 0,00 847,36 2.105,00 18.999,05 3.393,17 4.523,85 0,00 0,00 7.917,02 11.082,03 30/09/2023
690 629700 DANIELLA BASTOS MARTINS BICALHO OFICIAL DO MP GOVERNADOR VALADARES - COMARCA; GOVERNADOR VALADARES-PJ-16PJ 7.506,70 750,67 0,00 0,00 0,00 0,00 0,00 2.105,00 10.362,37 1.102,13 1.082,73 0,00 0,00 2.184,86 8.177,51 30/09/2023
691 725500 DANIELLE CAMILE OLIVEIRA FONSECA ASSESSOR PROCURADOR JUSTICA BELO HORIZONTE - COMARCA; GABINETE DE PROCURADOR DE JUSTIÇA - SALA 501 0,00 0,00 8.810,89 0,00 0,00 0,00 0,00 2.105,00 10.915,89 876,95 1.709,37 0,00 0,00 2.586,32 8.329,57 30/09/2023
692 265000 DANIELLE CASTANHEIRA SCALABRINI OFICIAL DO MP BELO HORIZONTE - COMARCA; JUNTA RECURSAL DO PROCON ESTADUAL 12.343,61 4.937,44 0,00 0,00 0,00 0,00 0,00 2.105,00 19.386,05 2.545,92 3.115,06 0,00 0,00 5.660,98 13.725,07 30/09/2023
693 490100 DANIELLE DE AVILA SILVA LOPES ANALISTA DO MP BELO HORIZONTE - COMARCA; PROC. JUSTICA DIR. DIFUSOS E COLETIVOS-SEC 12.343,61 4.937,44 0,00 0,00 0,00 0,00 1.234,36 3.055,00 21.570,41 2.743,41 3.452,34 0,00 0,00 6.195,75 15.374,66 30/09/2023
694 549600 DANIELLE GOMES LOPES RODRIGUES OFICIAL DO MP BELO HORIZONTE - COMARCA; COORD DE GABINETE DO PGJ 7.506,70 1.501,34 0,00 0,00 0,00 0,00 0,00 2.105,00 11.113,04 1.222,23 1.256,14 0,00 0,00 2.478,37 8.634,67 30/09/2023
695 613000 DANIELLE SILVA OLIVEIRA FRANKLIN COORDENADOR II BELO HORIZONTE - COMARCA; DIRETORIA DE ADMINISTRACAO FINANCEIRA 20.533,67 2.053,37 0,00 0,00 0,00 0,00 0,00 3.055,00 25.642,04 1.189,57 4.999,34 0,00 0,00 6.188,91 19.453,13 30/09/2023
696 722800 DANIELLE VALENTIM SOUZA ASSESSOR PROCURADOR JUSTICA BELO HORIZONTE - COMARCA; GABINETE DE PROCURADOR DE JUSTIÇA - SALA 606 0,00 0,00 8.797,43 0,00 0,00 0,00 0,00 2.105,00 10.902,43 876,95 1.705,67 0,00 0,00 2.582,62 8.319,81 30/09/2023
697 736400 DANIELLY VITORIA MARIA RUELA ASSESSOR PROMOTOR JUSTICA PARACATU - COMARCA; COORD REG PP NOROESTE MINAS GERAIS PARACATU 0,00 0,00 8.810,89 0,00 0,00 0,00 0,00 2.105,00 10.915,89 876,95 1.709,37 0,00 0,00 2.586,32 8.329,57 30/09/2023
698 380800 DANILLO RIBEIRO ANTUNES ANALISTA DO MP MONTES CLAROS - COMARCA; MONTES CLAROS-PJ-SECRETARIA 18.720,84 5.616,25 0,00 0,00 0,00 0,00 3.072,61 2.105,00 29.514,70 5.282,78 7.997,75 0,00 0,00 13.280,53 16.234,17 30/09/2023
699 453700 DANILO BOTELHO DE CARVALHO SUPERINTENDENTE BELO HORIZONTE - COMARCA; SUPERINTENDENCIA DE FINANCAS 28.013,39 5.602,68 0,00 0,00 0,00 0,00 2.165,28 2.991,67 38.773,02 4.897,81 10.346,04 0,00 0,00 15.243,85 23.529,17 30/09/2023
700 391200 DANILO D'AVILA MENDES ANALISTA DO MP MONTES CLAROS - COMARCA; GAECO REGIONAL DE MONTES CLAROS 18.720,84 5.616,25 0,00 0,00 0,00 0,00 1.508,12 3.055,00 28.900,21 5.282,78 7.334,30 0,00 0,00 12.617,08 16.283,13 30/09/2023
701 710900 DANILO DE SOUZA RODRIGUES ASSESSOR PROMOTOR JUSTICA IPANEMA - COMARCA; IPANEMA-PJ-01PJ 0,00 0,00 8.810,89 0,00 0,00 0,00 0,00 2.105,00 10.915,89 876,95 1.709,37 0,00 0,00 2.586,32 8.329,57 30/09/2023
702 494900 DANILO GAVIAO AVELINO DE MELLO ANALISTA DO MP POUSO ALEGRE - COMARCA; GAECO REGIONAL DE POUSO ALEGRE 12.343,61 2.468,72 0,00 0,00 0,00 0,00 0,00 2.105,00 16.917,33 2.150,92 2.596,93 0,00 0,00 4.747,85 12.169,48 30/09/2023
703 604300 DANILO NASCIMENTO SALGADO ANALISTA DO MP JANAÚBA - COMARCA; JANAUBA-PJ-01PJ 12.343,61 1.234,36 0,00 0,00 0,00 0,00 830,18 2.105,00 16.513,15 2.504,46 3.107,34 0,00 0,00 5.611,80 10.901,35 30/09/2023
704 298300 DANUZA MONICA DE SOUZA DINIZ ANALISTA DO MP BELO HORIZONTE - COMARCA; CAO-FUNDACOES-ASSESSORIA JURIDICA 22.191,68 6.657,50 0,00 0,00 0,00 0,00 114,43 2.105,00 31.068,61 5.795,34 8.946,21 0,00 0,00 14.741,55 16.327,06 30/09/2023
705 398700 DARCY LUIZ MILEO GREGATTI OFICIAL DO MP LAMBARI - COMARCA; LAMBARI-PJ-SECRETARIA 11.954,43 3.586,33 0,00 0,00 0,00 0,00 850,67 2.105,00 18.496,43 2.267,47 2.765,19 0,00 0,00 5.032,66 13.463,77 30/09/2023
706 406200 DARIANA AUGUSTA DE TOLEDO PATROCINIO RUIZ COORDENADOR II BELO HORIZONTE - COMARCA; DIRETORIA GESTAO COMPRAS LICITACOES 20.533,67 6.160,10 0,00 0,00 0,00 0,00 3.585,48 3.055,00 33.334,25 3.154,91 6.974,39 0,00 0,00 10.129,30 23.204,95 30/09/2023
707 586901 DARIO VITORINO DE CARVALHO SILVA ASSESSOR ADM. ESPECIAL BELO HORIZONTE - COMARCA; NUCLEO DE OPERACOES DE SEGURANCA DE PESSOAL 0,00 0,00 28.013,39 0,00 0,00 0,00 1.612,36 2.105,00 31.730,75 876,95 8.826,73 0,00 0,00 9.703,68 22.027,07 30/09/2023
708 305000 DARLI LEITE DE OLIVEIRA OFICIAL DO MP ARAÇUAÍ - COMARCA; ARACUAI-PJ-01PJ 7.506,70 2.252,01 0,00 0,00 0,00 0,00 0,00 2.105,00 11.863,71 1.342,34 1.273,13 0,00 0,00 2.615,47 9.248,24 30/09/2023
709 729400 DAVI PIMENTA ASSESSOR PROMOTOR JUSTICA CANDEIAS - COMARCA; CANDEIAS-PJ-UNPJ 0,00 0,00 8.810,89 0,00 0,00 0,00 0,00 2.105,00 10.915,89 876,95 1.709,37 0,00 0,00 2.586,32 8.329,57 30/09/2023
710 122200 DAVID RIBEIRO DOS SANTOS ANALISTA DO MP BORDA DA MATA - COMARCA; BORDA DA MATA-PJ-UNPJ 23.070,31 23.070,31 0,00 0,00 0,00 5.795,34 0,00 2.105,00 54.040,96 5.795,34 9.452,28 8.550,66 0,00 23.798,28 30.242,68 30/09/2023
711 389400 DAWSON CANEDO MARQUES OFICIAL DO MP POUSO ALEGRE - COMARCA; POUSO ALEGRE-PJ-08PJ 12.343,61 3.703,08 0,00 0,00 0,00 0,00 991,46 3.055,00 20.093,15 3.416,67 2.828,83 0,00 0,00 6.245,50 13.847,65 30/09/2023
712 537200 DAYANE TEIXEIRA DE OLIVEIRA CASELLI ANALISTA DO MP BELO HORIZONTE - COMARCA; ASSESS TECNICO-JUR JUNTO AS PROC. DE JUST 10.341,72 1.034,17 0,00 0,00 0,00 0,00 0,00 2.105,00 13.480,89 1.601,09 1.803,11 0,00 0,00 3.404,20 10.076,69 30/09/2023
713 256100 DAYSE ROSALY PEREIRA BATISTA OFICIAL DO MP BELO HORIZONTE - COMARCA; BH-08PJ JUIZADO ESPECIAL-SECRETARIA 12.343,61 4.937,44 0,00 0,00 0,00 0,00 1.037,22 2.105,00 20.423,27 3.699,62 4.991,99 0,00 0,00 8.691,61 11.731,66 30/09/2023
714 311901 DEBORA APARECIDA DA SILVA ASSESSOR ADMINISTRATIVO I BELO HORIZONTE - COMARCA; BH-23PJ CIVEL-SETOR JURIDICO 0,00 0,00 4.872,71 0,00 1.624,24 0,00 0,00 2.105,00 8.601,95 742,68 1.109,96 0,00 0,00 1.852,64 6.749,31 30/09/2023
715 194301 DEBORA APARECIDA DOS SANTOS ANALISTA DO MP UBERLÂNDIA - COMARCA; UBERLANDIA-PJ-SEC FAMILIA 23.070,31 9.228,12 0,00 0,00 0,00 0,00 2.023,88 2.105,00 36.427,31 5.795,34 9.880,73 0,00 0,00 15.676,07 20.751,24 30/09/2023
716 518800 DEBORA CARVALHO FIORATTO COORDENADOR II BELO HORIZONTE - COMARCA; DIRETORIA MATERIAIS E SERVICOS 20.533,67 4.106,73 0,00 0,00 0,00 0,00 1.613,16 2.105,00 28.358,56 2.294,74 6.624,10 0,00 0,00 8.918,84 19.439,72 30/09/2023
717 444900 DEBORA CLAUDIA PEREIRA ALVES ANALISTA DO MP BELO HORIZONTE - COMARCA; BH-08PJ JUIZADO ESPECIAL-SECRETARIA 13.588,97 2.717,79 0,00 0,00 0,00 0,00 1.025,90 2.105,00 19.437,66 2.672,28 3.349,63 0,00 0,00 6.021,91 13.415,75 30/09/2023
718 617700 DEBORA COMANDUCI SCHREIDER ANALISTA DO MP BICAS - COMARCA; BICAS-PJ-UNPJ 11.577,56 1.157,76 0,00 0,00 0,00 0,00 0,00 2.105,00 14.840,32 1.818,60 2.065,00 0,00 0,00 3.883,60 10.956,72 30/09/2023
719 555700 DEBORA CRISTINA BUITRAGO PEREIRA ANALISTA DO MP BELO HORIZONTE - COMARCA; DIRETORIA GESTAO CONTRATOS CONVENIOS 12.343,61 2.468,72 4.020,58 0,00 0,00 0,00 875,32 3.055,00 22.763,23 2.855,96 5.373,44 0,00 0,00 8.229,40 14.533,83 30/09/2023
720 513100 DEBORA CRISTINA PEREIRA DE OLIVEIRA ANALISTA DO MP BELO HORIZONTE - COMARCA; BH-23PJ CIVEL-SETOR JURIDICO 13.588,97 2.717,79 0,00 0,00 0,00 0,00 1.096,43 3.530,00 20.933,19 3.004,63 3.829,48 0,00 0,00 6.834,11 14.099,08 30/09/2023
721 612100 DEBORA DUARTE SILVA DE SOUZA OFICIAL DO MP BELO HORIZONTE - COMARCA; BH-12PJ JUIZO CRIMINAL-SECRETARIA 7.506,70 3.002,68 0,00 0,00 0,00 0,00 0,00 2.105,00 12.614,38 1.462,45 1.498,67 0,00 0,00 2.961,12 9.653,26 30/09/2023
722 717500 DEBORA ENDREFFY ORSI PARENZI ASSESSOR PROMOTOR JUSTICA MATEUS LEME - COMARCA; MATEUS LEME-PJ-01PJ 0,00 0,00 8.810,89 0,00 0,00 0,00 0,00 2.105,00 10.915,89 876,95 1.709,37 0,00 0,00 2.586,32 8.329,57 30/09/2023
723 539700 DEBORA SALES CARVALHO ANALISTA DO MP PATOS DE MINAS - COMARCA; COORD REG PJ DEF EDU DIR CRI ADO AL PAR NOROE 12.343,61 2.468,72 0,00 0,00 0,00 0,00 0,00 2.105,00 16.917,33 982,16 2.767,68 0,00 0,00 3.749,84 13.167,49 30/09/2023
724 424100 DEBORA SANTOS E ALVES ANALISTA DO MP JANUÁRIA - COMARCA; JANUARIA-PJ-01PJ 18.130,77 3.626,15 0,00 0,00 0,00 0,00 1.446,64 4.005,00 27.208,56 4.768,38 6.591,63 0,00 0,00 11.360,01 15.848,55 30/09/2023
725 426301 DEBORA SCUCATO MACHADO SOARES OFICIAL DO MP ITABIRA - COMARCA; ITABIRA-PJ-01PJ 7.506,70 1.501,34 0,00 0,00 0,00 0,00 0,00 3.055,00 12.063,04 1.222,23 1.256,14 0,00 0,00 2.478,37 9.584,67 30/09/2023
726 678100 DEBORA SOUZA COSTA ASSESSOR PROMOTOR JUSTICA BOTELHOS - COMARCA; BOTELHOS-PJ-UNPJ 0,00 0,00 8.810,89 0,00 0,00 0,00 0,00 2.105,00 10.915,89 876,95 1.657,24 0,00 0,00 2.534,19 8.381,70 30/09/2023
727 550200 DEBORA TRINDADE LEITE ANALISTA DO MP MANHUAÇU - COMARCA; MANHUACU-PJ-05PJ 12.343,61 2.468,72 0,00 0,00 0,00 0,00 803,85 2.105,00 17.721,18 2.855,96 3.645,20 0,00 0,00 6.501,16 11.220,02 30/09/2023
728 438000 DEBORAH COSTA LAGE ANALISTA DO MP BELO HORIZONTE - COMARCA; PROC JUST ATUACAO TRIBUNAIS SUPERIORES-GAB006 18.130,77 3.626,15 0,00 0,00 0,00 0,00 1.267,07 2.105,00 25.128,99 4.756,50 6.567,68 0,00 0,00 11.324,18 13.804,81 30/09/2023
729 613700 DEISER MARIA FERREIRA ROSCOE OFICIAL DO MP BELO HORIZONTE - COMARCA; DIVISÃO DE EDUCAÇÃO PARA O CONSUMO 7.506,70 750,67 0,00 0,00 0,00 0,00 0,00 2.105,00 10.362,37 1.102,13 1.082,73 0,00 0,00 2.184,86 8.177,51 30/09/2023
730 551900 DEISY ROCHA DA SILVA ANALISTA DO MP CARMO DO PARANAÍBA - COMARCA; CARMO DO PARANAIBA-PJ-01PJ 12.343,61 2.468,72 0,00 0,00 0,00 0,00 725,90 2.105,00 17.643,23 2.855,96 3.628,73 0,00 0,00 6.484,69 11.158,54 30/09/2023
731 736800 DELANZIA APARECIDA JUNHO ASSESSOR DE CAO BELO HORIZONTE - COMARCA; CAO-FUNDACOES 0,00 0,00 7.506,70 0,00 0,00 0,00 0,00 2.105,00 9.611,70 876,95 1.350,72 0,00 0,00 2.227,67 7.384,03 30/09/2023
732 501900 DELI RAQUEL RODRIGUES ANALISTA DO MP ITUIUTABA - COMARCA; ITUIUTABA-PJ-04PJ 12.343,61 2.468,72 0,00 0,00 0,00 0,00 0,00 2.105,00 16.917,33 2.150,92 2.596,93 0,00 0,00 4.747,85 12.169,48 30/09/2023
733 378600 DELIANE LOPES VIEIRA BREIJAO ANALISTA DO MP JUIZ DE FORA - COMARCA; JUIZ DE FORA-PJ-14PJ 18.720,84 5.616,25 0,00 0,00 0,00 0,00 1.508,12 2.105,00 27.950,21 5.282,78 7.282,16 0,00 0,00 12.564,94 15.385,27 30/09/2023
734 730100 DELIENE FRACETE GUTIERREZ ASSESSOR ADMINISTRATIVO I TEÓFILO OTONI - COMARCA; COORD REG APOIO COM INC MOB SOC VALE MUCURI 0,00 0,00 4.872,71 0,00 1.624,24 0,00 0,00 2.105,00 8.601,95 718,08 1.116,73 0,00 0,00 1.834,81 6.767,14 30/09/2023
735 487700 DENIA FERREIRA MAIA SILVA OFICIAL DO MP TRÊS CORACOES - COMARCA; TRES CORACOES-PJ-04PJ 8.003,54 1.600,71 0,00 0,00 0,00 0,00 0,00 2.105,00 11.709,25 1.317,63 1.289,59 0,00 0,00 2.607,22 9.102,03 30/09/2023
736 726300 DENILZA RODRIGUES MORAES ASSESSOR ADMINISTRATIVO I BELO HORIZONTE - COMARCA; CENT DE ATENDIMENTO AS PROMOTORIAS DE JUSTICA 0,00 0,00 4.872,71 0,00 0,00 0,00 0,00 2.105,00 6.977,71 718,08 670,06 0,00 0,00 1.388,14 5.589,57 30/09/2023
737 424800 DENIS APARECIDO CAMPOS DELFINO ANALISTA DO MP LUZ - COMARCA; LUZ-PJ-UNPJ 17.559,01 3.511,80 0,00 0,00 0,00 0,00 38,48 2.105,00 23.214,29 3.848,27 5.736,74 0,00 0,00 9.585,01 13.629,28 30/09/2023
738 381400 DENISE ANGELICA MELLO DE PAULA OFICIAL DO MP BELO HORIZONTE - COMARCA; BH-18PJ DIREITOS HUMANOS-SECRETARIA 12.343,61 3.703,08 4.346,47 0,00 0,00 0,00 1.543,40 8.765,08 30.701,64 3.416,67 6.516,81 0,00 0,00 9.933,48 20.768,16 30/09/2023
739 702100 DENISE CANDIDO LIMA MACEDO KATOPODIS ASSESSOR PROCURADOR JUSTICA BELO HORIZONTE - COMARCA; GABINETE DE PROCURADOR DE JUSTIÇA - SALA 306 0,00 0,00 8.810,89 0,00 0,00 0,00 0,00 2.105,00 10.915,89 876,95 1.709,37 0,00 0,00 2.586,32 8.329,57 30/09/2023
740 196300 DENISE DE ALMEIDA VILELA FURTADO OFICIAL DO MP BELO HORIZONTE - COMARCA; CENTRAL DE APOIO TECNICO-SECRETARIA 20.533,67 8.213,47 0,00 0,00 0,00 0,00 0,00 3.530,00 32.277,14 4.380,49 6.746,46 0,00 0,00 11.126,95 21.150,19 30/09/2023
741 271100 DENISE ELOY PEIXOTO OFICIAL DO MP BELO HORIZONTE - COMARCA; DIRETORIA DE INTELIGENCIA 17.559,01 7.023,60 5.538,92 0,00 0,00 0,00 1.755,90 2.105,00 33.982,43 4.354,00 8.067,85 0,00 0,00 12.421,85 21.560,58 30/09/2023
742 385400 DENISE FREITAS DE ASSIS OFICIAL DO MP CARATINGA - COMARCA; CARATINGA-PJ-SECRETARIA 11.212,54 3.363,76 3.004,68 0,00 0,00 0,00 715,15 2.105,00 20.401,13 2.113,16 3.368,69 0,00 0,00 5.481,85 14.919,28 30/09/2023
743 437100 DENISE NOGUEIRA MAGRI MENDES ANALISTA DO MP BELO HORIZONTE - COMARCA; LAB TECNOLOGIA CONTRA LAVAGEM DINHEIRO 18.130,77 7.252,31 0,00 0,00 0,00 0,00 1.385,18 2.105,00 28.873,26 5.585,76 7.717,82 0,00 0,00 13.303,58 15.569,68 30/09/2023
744 524700 DENISE RAMOS GUIMARAES OFICIAL DO MP BELO HORIZONTE - COMARCA; BH-07PJ 01 TRIBUNAL JURI-SECRETARIA 7.506,70 1.501,34 0,00 0,00 0,00 0,00 0,00 2.105,00 11.113,04 1.222,23 1.256,14 0,00 0,00 2.478,37 8.634,67 30/09/2023
745 239100 DENISE RIBEIRO DOS SANTOS CAETANO OFICIAL DO MP ITANHANDU - COMARCA; ITANHANDU-PJ-SECRETARIA 17.559,01 7.023,60 0,00 0,00 0,00 0,00 0,00 2.105,00 26.687,61 3.714,17 4.801,72 0,00 0,00 8.515,89 18.171,72 30/09/2023
746 325500 DENISE ROSA TORRES OFICIAL DO MP BELO HORIZONTE - COMARCA; DIRETORIA DE PESSOAL ADMINISTRATIVO - DPAD 13.588,97 4.076,69 0,00 0,00 0,00 0,00 1.201,94 2.105,00 20.972,60 3.521,50 4.575,70 0,00 0,00 8.097,20 12.875,40 30/09/2023
747 437200 DENISE VIVIANE DOS SANTOS ANALISTA DO MP BELO HORIZONTE - COMARCA; CGMP-DIR ESTAGIO PROBATORIO E ORIENT 15.447,01 3.089,40 0,00 0,00 0,00 0,00 1.130,45 3.530,00 23.196,86 3.658,38 4.721,19 0,00 0,00 8.379,57 14.817,29 30/09/2023
748 267900 DENISIA ALMEIDA SALES OFICIAL DO MP BELO HORIZONTE - COMARCA; BH-18PJ DIREITOS HUMANOS-SECRETARIA 12.343,61 4.937,44 0,00 0,00 0,00 0,00 0,00 2.105,00 19.386,05 2.545,92 3.115,06 0,00 0,00 5.660,98 13.725,07 30/09/2023
749 355300 DEYSE CRISTINA MORAIS OFICIAL DO MP PASSOS - COMARCA; PASSOS-PJ-02PJ 12.343,61 3.703,08 0,00 0,00 0,00 0,00 1.037,37 2.105,00 19.189,06 2.823,32 3.567,71 0,00 0,00 6.391,03 12.798,03 30/09/2023
750 523700 DIANA CAMPOS RESENDE OFICIAL DO MP SÃO JOÃO DEL REI - COMARCA; SAO JOAO DEL REI-PJ-04PJ 9.699,77 6.789,84 0,00 0,00 0,00 0,00 987,32 2.105,00 19.581,93 3.485,83 4.780,00 0,00 0,00 8.265,83 11.316,10 30/09/2023
751 241900 DIANA CARDOSO MARTINS OFICIAL DO MP BELO HORIZONTE - COMARCA; CAO-DH CONT EXT ATIV POLIC E AP COMUNIT 12.343,61 4.937,44 0,00 0,00 0,00 0,00 994,16 2.105,00 20.380,21 2.646,35 3.312,19 0,00 0,00 5.958,54 14.421,67 30/09/2023
752 410100 DIANA GORDILHO SILVEIRA SENA ANALISTA DO MP BELO HORIZONTE - COMARCA; BH-14PJ DEFESA CONSUMIDOR-GAB 112PJ 18.130,77 3.626,15 0,00 0,00 0,00 0,00 1.478,38 2.105,00 25.340,30 4.768,38 6.591,63 0,00 0,00 11.360,01 13.980,29 30/09/2023
753 553000 DIANA MARIA MARQUES ANALISTA DO MP BETIM - COMARCA; BETIM-PJ-07PJ 12.343,61 2.468,72 0,00 0,00 0,00 0,00 744,98 2.105,00 17.662,31 2.897,19 3.756,87 0,00 0,00 6.654,06 11.008,25 30/09/2023
754 520000 DIARLE TOSTE DOS SANTOS ANALISTA DO MP RIO POMBA - COMARCA; RIO POMBA-PJ-UNPJ 12.343,61 2.468,72 0,00 0,00 0,00 0,00 0,00 2.105,00 16.917,33 2.150,92 1.870,93 0,00 0,00 4.021,85 12.895,48 30/09/2023
755 539800 DIEGO CAMARGOS RODRIGUES OFICIAL DO MP CONTAGEM - COMARCA; CONTAGEM-PJ-05PJ 7.506,70 1.501,34 0,00 0,00 0,00 0,00 0,00 2.105,00 11.113,04 1.222,23 1.256,14 0,00 0,00 2.478,37 8.634,67 30/09/2023
756 607300 DIEGO CERVEIRA DE SOUZA ANALISTA DO MP PATOS DE MINAS - COMARCA; COORD REG BACIAS PARACATU,URUCUIA E ABAETE 12.343,61 1.234,36 0,00 0,00 0,00 0,00 0,00 2.105,00 15.682,97 982,16 2.453,68 0,00 0,00 3.435,84 12.247,13 30/09/2023
757 446900 DIEGO DE FREITAS OFICIAL DO MP UBERABA - COMARCA; UBERABA-PJ-06PJ 10.516,49 2.103,30 0,00 0,00 0,00 0,00 0,00 2.105,00 14.724,79 1.800,11 2.090,45 0,00 0,00 3.890,56 10.834,23 30/09/2023
758 288800 DILENE NEPOMUCENO ALVES OFICIAL DO MP BELO HORIZONTE - COMARCA; DIRETORIA DE PESSOAL ADMINISTRATIVO - DPAD 12.343,61 3.703,08 0,00 0,00 0,00 0,00 0,00 2.105,00 18.151,69 2.348,42 2.882,06 0,00 0,00 5.230,48 12.921,21 30/09/2023
759 681200 DILLIANY PAULA LOPES SERRANO ASSESSOR PROMOTOR JUSTICA RESPLENDOR - COMARCA; RESPLENDOR-PJ-UNPJ 0,00 0,00 9.492,71 0,00 0,00 0,00 0,00 3.323,19 12.815,90 876,95 1.709,38 0,00 0,00 2.586,33 10.229,57 30/09/2023
760 270101 DILSON DO AMARAL ANALISTA DO MP RIO CASCA - COMARCA; RIO CASCA-PJ-UNPJ 12.343,61 3.703,08 0,00 0,00 0,00 0,00 0,00 2.105,00 18.151,69 2.348,42 2.882,06 0,00 0,00 5.230,48 12.921,21 30/09/2023
761 466000 DIMITRI GUDE MARCIAL ANALISTA DO MP NANUQUE - COMARCA; NANUQUE-PJ-02PJ 12.343,61 2.468,72 0,00 0,00 0,00 0,00 0,00 4.005,00 18.817,33 2.150,92 2.440,52 0,00 0,00 4.591,44 14.225,89 30/09/2023
762 516300 DINORA APARECIDA MACEDO BRANDAO ANALISTA DO MP BELO HORIZONTE - COMARCA; BH-19PJ SAUDE-SECRETARIA 150PJ 12.343,61 2.468,72 0,00 0,00 0,00 0,00 113,26 2.105,00 17.030,59 2.150,92 2.596,93 0,00 0,00 4.747,85 12.282,74 30/09/2023
763 511700 DIOGENES HENRIQUES PEREIRA LOURENCO ANALISTA DO MP BELO HORIZONTE - COMARCA; BH-03PJ EMPRESARIAL-SECRETARIA 12.343,61 2.468,72 0,00 0,00 0,00 0,00 0,00 3.055,00 17.867,33 982,16 2.767,68 0,00 0,00 3.749,84 14.117,49 30/09/2023
764 604100 DIOGO CESAR DE OLIVEIRA HONORIO ASSESSOR ADMINISTRATIVO III PIUMHI - COMARCA; PIUMHI-PJ-02PJ 0,00 0,00 10.858,90 0,00 0,00 0,00 0,00 2.105,00 12.963,90 876,95 2.272,58 0,00 0,00 3.149,53 9.814,37 30/09/2023
765 259600 DIOGO MESQUITA MAIA ANALISTA DO MP BELO HORIZONTE - COMARCA; DIRET DE APOIO AS PROCURADORIAS DE JUSTICA 22.191,68 19.972,51 0,00 0,00 0,00 5.795,34 0,00 2.105,00 50.064,53 5.795,34 9.400,14 4.574,23 0,00 19.769,71 30.294,82 30/09/2023
766 386700 DIRCIMAR FERNANDES CARNEIRO OFICIAL DO MP BELO HORIZONTE - COMARCA; BH-16PJ HABITACAO URBANISMO-GAB 117PJ 12.343,61 8.640,53 0,00 0,00 0,00 0,00 66,59 2.105,00 23.155,73 4.129,96 6.348,22 0,00 0,00 10.478,18 12.677,55 30/09/2023
767 216700 DOMICIO VALDETE PEREIRA OFICIAL DO MP TEÓFILO OTONI - COMARCA; COORD REG PJ DEF EDU DIR CRIAN ADOL JEQUI MUC 20.533,67 8.213,47 0,00 0,00 0,00 0,00 0,00 2.105,00 30.852,14 4.380,49 6.642,18 0,00 0,00 11.022,67 19.829,47 30/09/2023
768 192701 DONIZETTI APARECIDO AMORIM ANALISTA DO MP PRATÁPOLIS - COMARCA; PRATAPOLIS-PJ-UNPJ 12.168,06 4.937,44 0,00 0,00 0,00 0,00 0,00 2.105,00 19.210,50 2.545,92 3.066,79 0,00 0,00 5.612,71 13.597,79 30/09/2023
769 558700 DORCILIA FATIMA DE OLIVEIRA OFICIAL DO MP DIVINÓPOLIS - COMARCA; DIVINOPOLIS-PJ-02PJ 7.506,70 1.501,34 0,00 0,00 0,00 1.222,23 0,00 2.105,00 12.335,27 1.222,23 1.540,11 0,00 0,00 2.762,34 9.572,93 30/09/2023
770 555300 DOUGLAS CUNHA DE SOUZA ANALISTA DO MP VARZEA DA PALMA - COMARCA; VARZEA DA PALMA-PJ-01PJ 12.343,61 2.468,72 0,00 0,00 0,00 0,00 920,53 3.055,00 18.787,86 982,16 4.023,23 0,00 0,00 5.005,39 13.782,47 30/09/2023
771 265900 DOUGLAS GOMES MOREIRA ANALISTA DO MP BELO HORIZONTE - COMARCA; CENTRAL DE APOIO TECNICO-SETOR DE ENGENHARIA 23.070,31 9.228,12 0,00 0,00 0,00 0,00 1.698,60 2.105,00 36.102,03 5.795,34 9.454,75 0,00 0,00 15.250,09 20.851,94 30/09/2023
772 241000 DOUGLAS MEIRELLES DE CASTRO OFICIAL DO MP CONCEIÇÃO DO RIO VERDE - COMARCA; CONCEICAO DO RIO VERDE-PJ-UNPJ 17.559,01 8.779,51 0,00 0,00 0,00 0,00 0,00 2.105,00 28.443,52 3.995,11 5.207,34 0,00 0,00 9.202,45 19.241,07 30/09/2023
773 534900 DOUGLAS SILVA E SOUZA ANALISTA DO MP CAMPOS GERAIS - COMARCA; CAMPOS GERAIS-PJ-01PJ 12.343,61 2.468,72 0,00 0,00 0,00 0,00 0,00 2.105,00 16.917,33 982,16 2.715,54 0,00 0,00 3.697,70 13.219,63 30/09/2023
774 638900 DOUGLAS WALLAS CONCEICAO NEVES OFICIAL DO MP RIBEIRÃO DAS NEVES - COMARCA; RIBEIRAO DAS NEVES-PJ-03PJ 6.603,76 660,38 0,00 0,00 0,00 0,00 0,00 2.105,00 9.369,14 944,43 852,96 0,00 0,00 1.797,39 7.571,75 30/09/2023
775 146800 DUCINALVA AMARAL LOPES REIS OFICIAL DO MP PARAISÓPOLIS - COMARCA; PARAISOPOLIS-PJ-UNPJ 23.070,31 18.456,25 0,00 0,00 0,00 5.795,34 477,24 7.311,24 55.110,38 5.795,34 9.348,00 3.936,60 0,00 19.079,94 36.030,44 30/09/2023
776 122500 DUILIO CARLOS FERREIRA UTSCH OFICIAL DO MP CONCEIÇÃO DO MATO DENTRO - COMARCA; CONCEICAO DO MATO DENTRO-PJ-UNPJ 20.533,67 18.480,31 0,00 522,10 0,00 9.871,38 477,24 7.311,24 57.195,94 5.795,34 9.452,28 1.424,02 0,00 16.671,64 40.524,30 30/09/2023
777 201800 DULCINEIA ANDRE DE SOUZA OFICIAL DO MP JEQUITINHONHA - COMARCA; JEQUITINHONHA-PJ-SECRETARIA 20.533,67 8.213,47 0,00 0,00 0,00 0,00 0,00 2.105,00 30.852,14 4.380,49 6.590,04 0,00 0,00 10.970,53 19.881,61 30/09/2023
778 395800 DUVIDIER MEDIRCIO JUNIOR ANALISTA DO MP BELO HORIZONTE - COMARCA; CAO-PATRIMONIO PUBLICO 19.751,60 5.925,48 0,00 0,00 0,00 0,00 1.282,49 2.105,00 29.064,57 5.530,26 7.710,88 0,00 0,00 13.241,14 15.823,43 30/09/2023
779 604800 ECIA RAMILIS ISSA DE ABREU ANALISTA DO MP BRASÍLIA DE MINAS - COMARCA; BRASILIA DE MINAS-PJ-01PJ 12.343,61 1.234,36 0,00 0,00 0,00 0,00 927,08 3.055,00 17.560,05 2.550,97 3.174,50 0,00 0,00 5.725,47 11.834,58 30/09/2023
780 273000 EDELFINA APARECIDA GUIMARAES OFICIAL DO MP CACHOEIRA DE MINAS - COMARCA; CACHOEIRA DE MINAS-PJ-UNPJ 13.588,97 10.871,18 0,00 0,00 0,00 0,00 1.266,01 2.105,00 27.831,16 5.341,00 7.379,55 0,00 0,00 12.720,55 15.110,61 30/09/2023
781 523300 EDER DOS SANTOS PATRICIO ANALISTA DO MP NOVA SERRANA - COMARCA; NOVA SERRANA-PJ-03PJ 12.343,61 2.468,72 0,00 0,00 0,00 0,00 0,00 3.055,00 17.867,33 982,16 2.715,54 0,00 0,00 3.697,70 14.169,63 30/09/2023
782 356700 EDER JOSE PACHECO OFICIAL DO MP CAMPO BELO - COMARCA; CAMPO BELO-PJ-04PJ 12.343,61 3.703,08 0,00 0,00 0,00 0,00 1.771,66 2.105,00 19.923,35 2.348,42 3.317,13 0,00 0,00 5.665,55 14.257,80 30/09/2023
783 507900 EDERSON SILVA LOPES OFICIAL DO MP BELO HORIZONTE - COMARCA; LABORATORIO TECNOLOGIA INTELIGENCIA 9.097,81 1.819,56 0,00 0,00 0,00 0,00 0,00 2.105,00 13.022,37 1.527,73 1.592,92 0,00 0,00 3.120,65 9.901,72 30/09/2023
784 296200 EDGARD GOULART MATOSINHO DE LAET JR ANALISTA DO MP GOVERNADOR VALADARES - COMARCA; GOVERNADOR VALADARES-PJ-12PJ 22.191,68 6.657,50 0,00 0,00 0,00 0,00 57,22 2.105,00 31.011,40 5.596,34 7.753,05 0,00 0,00 13.349,39 17.662,01 30/09/2023
785 295000 EDILA MARIA DA SILVEIRA OFICIAL DO MP FORMIGA - COMARCA; FORMIGA-PJ-01PJ 12.343,61 3.703,08 0,00 0,00 0,00 0,00 844,88 2.105,00 18.996,57 3.433,95 4.593,83 0,00 0,00 8.027,78 10.968,79 30/09/2023
786 332300 EDILA MARILAC MIRANDA PRADO OFICIAL DO MP DIAMANTINA - COMARCA; DIAMANTINA-PJ-01PJ 12.343,61 6.171,81 0,00 0,00 6.171,81 0,00 543,12 9.929,93 35.160,28 2.743,42 5.045,31 0,00 0,00 7.788,73 27.371,55 30/09/2023
787 376600 EDILANE CONSOLACAO ROSA NAZARETH ANALISTA DO MP BETIM - COMARCA; BETIM-PJ-10PJ 18.720,84 5.616,25 0,00 0,00 0,00 0,00 1.290,73 2.105,00 27.732,82 982,16 7.946,30 0,00 0,00 8.928,46 18.804,36 30/09/2023
788 309800 EDILZA DOS REIS OFICIAL DO MP UBERLÂNDIA - COMARCA; UBERLANDIA-PJ-03PJ 12.343,61 3.703,08 0,00 0,00 0,00 0,00 0,00 2.105,00 18.151,69 2.348,42 2.829,93 0,00 0,00 5.178,35 12.973,34 30/09/2023
789 200500 EDINEIA MARIA DE OLIVEIRA ANTUNES OFICIAL DO MP MONTES CLAROS - COMARCA; MONTES CLAROS-PJ-10PJ 20.533,67 10.266,84 0,00 0,00 0,00 0,00 0,00 2.105,00 32.905,51 4.709,03 6.290,20 0,00 0,00 10.999,23 21.906,28 30/09/2023
790 427700 EDISANGELA SOARES LOPES OFICIAL DO MP PIRAPORA - COMARCA; PIRAPORA-PJ-02PJ 7.506,70 1.501,34 0,00 0,00 0,00 0,00 0,00 2.105,00 11.113,04 1.222,23 1.256,14 0,00 0,00 2.478,37 8.634,67 30/09/2023
791 555400 EDISON MONTEIRO SAMPAIO NETO ANALISTA DO MP BELO HORIZONTE - COMARCA; BH-12PJ JUIZO CRIMINAL-GAB 094PJ 12.343,61 2.468,72 0,00 0,00 0,00 0,00 919,09 2.105,00 17.836,42 3.018,75 3.984,50 0,00 0,00 7.003,25 10.833,17 30/09/2023
792 517700 EDMILSON TADEU FERNANDES OFICIAL DO MP POUSO ALEGRE - COMARCA; GAECO REGIONAL DE POUSO ALEGRE 9.393,95 1.878,79 0,00 0,00 0,00 0,00 0,00 4.005,00 15.277,74 1.584,59 1.779,28 0,00 0,00 3.363,87 11.913,87 30/09/2023
793 358400 EDNA APARECIDA SILVA FERREIRA OFICIAL DO MP CORONEL FABRICIANO - COMARCA; CORONEL FABRICIANO-PJ-02PJ 13.588,97 4.076,69 0,00 0,00 0,00 0,00 1.192,67 2.105,00 20.963,33 3.218,99 4.034,67 0,00 0,00 7.253,66 13.709,67 30/09/2023
794 331800 EDNA MARCIA CAMILO DA SILVA OFICIAL DO MP SETE LAGOAS - COMARCA; SETE LAGOAS-PJ-SEC CRIMINAIS 12.343,61 3.703,08 0,00 0,00 0,00 0,00 0,00 2.105,00 18.151,69 2.348,42 2.829,93 0,00 0,00 5.178,35 12.973,34 30/09/2023
795 327900 EDRIEL SANTANA PEREIRA OFICIAL DO MP TUPACIGUARA - COMARCA; TUPACIGUARA-PJ-02PJ 12.343,61 3.703,08 0,00 0,00 0,00 0,00 0,00 3.121,06 19.167,75 2.348,42 2.882,06 0,00 0,00 5.230,48 13.937,27 30/09/2023
796 482400 EDSON GARCIA OFICIAL DO MP MACHADO - COMARCA; MACHADO-PJ-02PJ 7.506,70 1.501,34 0,00 0,00 0,00 0,00 0,00 2.105,00 11.113,04 1.222,23 1.151,86 0,00 0,00 2.374,09 8.738,95 30/09/2023
797 225601 EDSON LABRE FILHO ANALISTA DO MP VARGINHA - COMARCA; VARGINHA-PJ-01PJ 22.191,68 8.876,67 0,00 0,00 0,00 0,00 0,00 2.105,00 33.173,35 4.751,88 6.299,93 0,00 0,00 11.051,81 22.121,54 30/09/2023
798 602700 EDSON NOGUEIRA BUENO OFICIAL DO MP PITANGUI - COMARCA; PITANGUI-PJ-02PJ 7.506,70 750,67 0,00 0,00 0,00 0,00 0,00 2.105,00 10.362,37 1.102,13 1.082,73 0,00 0,00 2.184,86 8.177,51 30/09/2023
799 716500 EDUARDA CORREA MOREIRA ASSESSOR ADMINISTRATIVO I BELO HORIZONTE - COMARCA; DIRET DE FORMACAO, APERFEIC. E POS-GRADUACAO 0,00 0,00 4.872,71 0,00 0,00 0,00 0,00 3.055,00 7.927,71 742,68 663,30 0,00 0,00 1.405,98 6.521,73 30/09/2023
800 414400 EDUARDO ABRANTES CAMPOS ANALISTA DO MP SÃO JOÃO DEL REI - COMARCA; SAO JOAO DEL REI-PJ-02PJ 18.130,77 3.626,15 0,00 0,00 0,00 0,00 1.508,78 2.105,00 25.370,70 4.768,38 6.807,38 0,00 0,00 11.575,76 13.794,94 30/09/2023
801 476800 EDUARDO ALVES DE MOURA ANALISTA DO MP UBERLÂNDIA - COMARCA; UBERLANDIA-PJ-01PJ 12.343,61 2.468,72 0,00 0,00 0,00 0,00 0,00 3.055,00 17.867,33 982,16 2.611,26 0,00 0,00 3.593,42 14.273,91 30/09/2023
802 390800 EDUARDO AMORIM PETTERSEN OFICIAL DO MP CARANGOLA - COMARCA; CARANGOLA-PJ-SECRETARIA 11.212,54 3.363,76 0,00 0,00 0,00 0,00 0,00 2.270,07 16.846,37 2.113,16 2.542,40 0,00 0,00 4.655,56 12.190,81 30/09/2023
803 461600 EDUARDO ANTONIO DE ASSIS FARIA ASSESSOR ADMINISTRATIVO III BELO HORIZONTE - COMARCA; ASSESS EXECUTIVA DO CONSELHO SUPERIOR DO MP 0,00 0,00 10.858,90 0,00 0,00 0,00 0,00 2.105,00 12.963,90 876,95 2.220,44 0,00 0,00 3.097,39 9.866,51 30/09/2023
804 248800 EDUARDO DE CASTRO AMORIM ANALISTA DO MP BELO HORIZONTE - COMARCA; SUPER DE GESTAO DE PESSOAS-LOTACAO TEMPORARIA 23.070,31 9.228,12 0,00 0,00 0,00 0,00 183,02 2.105,00 34.586,45 5.795,34 9.763,13 0,00 0,00 15.558,47 19.027,98 30/09/2023
805 209100 EDUARDO DE SOUZA MAIA ANALISTA DO MP BELO HORIZONTE - COMARCA; SUPER DE GESTAO DE PESSOAS-LOTACAO TEMPORARIA 23.070,31 9.228,12 0,00 0,00 0,00 0,00 1.780,85 2.105,00 36.184,28 5.795,34 9.776,46 0,00 0,00 15.571,80 20.612,48 30/09/2023
806 633900 EDUARDO GONCALVES PIRES OFICIAL DO MP BELO HORIZONTE - COMARCA; DIRETORIA DE PAGAMENTO DE PESSOAL-DPAG 8.264,07 3.305,63 0,00 0,00 0,00 0,00 591,31 2.105,00 14.266,01 2.002,31 2.382,36 0,00 0,00 4.384,67 9.881,34 30/09/2023
807 350500 EDUARDO GONCALVES RIBEIRO OFICIAL DO MP VESPASIANO - COMARCA; VESPASIANO-PJ-SECRETARIA 11.577,56 3.473,27 3.004,68 0,00 0,00 0,00 839,02 2.105,00 20.999,53 2.357,47 3.721,41 0,00 0,00 6.078,88 14.920,65 30/09/2023
808 115800 EDUARDO HENRIQUE DE CAMPOS MAIA OFICIAL DO MP BELO HORIZONTE - COMARCA; DIV FISCAL ADM CONT TERCEIRIZACAO 22.191,68 15.534,18 0,00 0,00 0,00 0,00 0,00 2.105,00 39.830,86 5.795,34 8.166,98 135,90 0,00 14.098,22 25.732,64 30/09/2023
809 392600 EDUARDO HENRIQUE DOS SANTOS COSTA ELIAZAR OFICIAL DO MP MATOZINHOS - COMARCA; MATOZINHOS-PJ-01PJ 10.858,90 3.257,67 0,00 0,00 0,00 0,00 0,00 2.105,00 16.221,57 2.039,60 2.331,93 0,00 0,00 4.371,53 11.850,04 30/09/2023
810 99101 EDUARDO JOSE DE FREITAS NUNES ASSESSOR ADMINISTRATIVO II BELO HORIZONTE - COMARCA; JUNTA RECURSAL DO PROCON ESTADUAL 0,00 3.753,35 7.506,70 0,00 250,23 0,00 0,00 2.105,00 13.615,28 876,95 2.382,89 0,00 0,00 3.259,84 10.355,44 30/09/2023
811 407500 EDUARDO MASCARENHAS CURI AZEVEDO ANALISTA DO MP BELO HORIZONTE - COMARCA; DIR CONTEUDO JORNALISTICO 12.343,61 2.468,72 0,00 0,00 0,00 0,00 1.297,01 3.055,00 19.164,34 2.367,75 2.913,10 0,00 0,00 5.280,85 13.883,49 30/09/2023
812 601300 EDUARDO TRAD VIEIRA OFICIAL DO MP BELO HORIZONTE - COMARCA; SUPER DE GESTAO DE PESSOAS-LOTACAO TEMPORARIA 7.506,70 750,67 0,00 0,00 0,00 0,00 0,00 2.105,00 10.362,37 1.102,13 1.082,73 0,00 0,00 2.184,86 8.177,51 30/09/2023
813 257600 EDUARDO VALADARES CABRAL ANALISTA DO MP BELO HORIZONTE - COMARCA; COORD DE INCLUSAO E MOBILIZACAO SOCIAIS 23.070,31 9.228,12 0,00 0,00 0,00 0,00 1.718,78 2.105,00 36.122,21 5.795,34 10.406,91 0,00 0,00 16.202,25 19.919,96 30/09/2023
814 746800 EDUARDO XAVIER ARAUJO OFICIAL DO MP RIBEIRÃO DAS NEVES - COMARCA; RIBEIRAO DAS NEVES-PJ-02PJ 4.570,25 0,00 0,00 0,00 0,00 0,00 0,00 2.105,00 6.675,25 526,88 257,78 0,00 0,00 784,66 5.890,59 30/09/2023
815 545700 EDVAIR FERREIRA DE CARVALHO OFICIAL DO MP ARAGUARI - COMARCA; ARAGUARI-PJ-06PJ 7.460,23 1.501,34 0,00 0,00 0,00 0,00 0,00 2.105,00 11.066,57 1.222,23 1.191,22 0,00 0,00 2.413,45 8.653,12 30/09/2023
816 401700 EDWANIA AMORIM DO CARMO OFICIAL DO MP BELO HORIZONTE - COMARCA; BH-12PJ JUIZO CRIMINAL-SECRETARIA 12.343,61 3.703,08 0,00 0,00 0,00 0,00 1.012,10 2.105,00 19.163,79 3.350,44 4.462,16 0,00 0,00 7.812,60 11.351,19 30/09/2023
817 303600 EFIGENIO SARAIVA LOPES ANALISTA DO MP BELO HORIZONTE - COMARCA; DIRETORIA DE PAGAMENTO DE PESSOAL-DPAG 23.070,31 6.921,09 5.538,92 0,00 0,00 0,00 2.209,32 2.105,00 39.844,64 5.795,34 11.267,95 0,00 0,00 17.063,29 22.781,35 30/09/2023
818 286000 ELAINE APARECIDA SILVA BERZOINI OFICIAL DO MP JUIZ DE FORA - COMARCA; JUIZ DE FORA-PJ-07PJ 12.343,61 3.703,08 0,00 0,00 0,00 0,00 0,00 2.105,00 18.151,69 2.348,42 2.882,06 0,00 0,00 5.230,48 12.921,21 30/09/2023
819 509000 ELAINE CANDIDA PONTES OFICIAL DO MP BELO HORIZONTE - COMARCA; BH-02PJ FAMILIA-SECRETARIA 10.341,72 2.068,34 0,00 0,00 0,00 0,00 165,86 2.105,00 14.680,92 1.766,56 2.087,61 0,00 0,00 3.854,17 10.826,75 30/09/2023
820 283601 ELAINE CRISTINA MEQUELINO DUARTE ANALISTA DO MP ALFENAS - COMARCA; ALFENAS-PJ-02PJ 18.720,84 6.739,50 0,00 0,00 0,00 0,00 1.508,12 2.105,00 29.073,46 5.462,50 7.489,49 0,00 0,00 12.951,99 16.121,47 30/09/2023
821 535500 ELAINE DE OLIVEIRA CAMPOS REIS OFICIAL DO MP SANTA LUZIA - COMARCA; SANTA LUZIA-PJ-SECRETARIA 7.506,70 1.501,34 0,00 0,00 0,00 0,00 0,00 2.105,00 11.113,04 1.222,23 1.256,14 0,00 0,00 2.478,37 8.634,67 30/09/2023
822 455700 ELAINE DE OLIVEIRA CASTRO ANALISTA DO MP POMPÉU - COMARCA; POMPEU-PJ-UNPJ 12.343,61 2.468,72 0,00 0,00 0,00 0,00 0,00 3.055,00 17.867,33 2.150,92 2.492,65 0,00 0,00 4.643,57 13.223,76 30/09/2023
823 367200 ELAINE MUNIZ BARBOSA ANALISTA DO MP BELO HORIZONTE - COMARCA; DIRETORIA DE SISTEMAS DE INFORMACAO 20.533,67 6.160,10 0,00 0,00 8.897,92 0,00 0,00 3.055,00 38.646,69 4.051,95 7.736,33 0,00 0,00 11.788,28 26.858,41 30/09/2023
824 679200 ELAINE RIBEIRO CHAVES ASSESSOR PROCURADOR JUSTICA BELO HORIZONTE - COMARCA; GABINETE DE PROCURADOR DE JUSTIÇA - SALA 614 0,00 0,00 8.810,89 0,00 0,00 0,00 0,00 2.105,00 10.915,89 876,95 1.657,24 0,00 0,00 2.534,19 8.381,70 30/09/2023
825 176900 ELAINE RIBEIRO TAVEIRA OFICIAL DO MP BELO HORIZONTE - COMARCA; DIVISAO FROTA 17.005,40 6.802,16 0,00 0,00 0,00 0,00 1.595,49 2.105,00 27.508,05 5.238,46 7.290,64 0,00 0,00 12.529,10 14.978,95 30/09/2023
826 496200 ELAINE SABRINA MOREIRA SCHUWARTEN ANALISTA DO MP CORONEL FABRICIANO - COMARCA; CORONEL FABRICIANO-PJ-SECRETARIA 13.588,97 2.717,79 0,00 0,00 0,00 0,00 885,22 2.105,00 19.296,98 2.744,99 3.454,62 0,00 0,00 6.199,61 13.097,37 30/09/2023
827 489200 ELAINE VICENTINO ANALISTA DO MP BELO HORIZONTE - COMARCA; CENTRAL DE APOIO TECNICO-SETOR CONTABIL 12.343,61 4.937,44 0,00 0,00 0,00 0,00 895,61 2.105,00 20.281,66 3.699,62 4.887,71 0,00 0,00 8.587,33 11.694,33 30/09/2023
828 731400 ELBERT MENDES PINHEIRO ASSESSOR PROMOTOR JUSTICA BELO HORIZONTE - COMARCA; COORD ESTADUAL DAS PJS DE HAB. E URBANISMO 0,00 0,00 8.810,89 0,00 0,00 0,00 0,00 2.105,00 10.915,89 876,95 1.709,37 0,00 0,00 2.586,32 8.329,57 30/09/2023
829 244500 ELCI ALVES DE SOUZA ASSESSOR ADMINISTRATIVO II BELO HORIZONTE - COMARCA; CAO-CONFLITOS AGRARIOS-SECRETARIA 0,00 3.002,68 7.506,70 0,00 0,00 0,00 0,00 2.105,00 12.614,38 876,95 2.124,32 0,00 0,00 3.001,27 9.613,11 30/09/2023
830 472500 ELCI VAZ DE OLIVEIRA FILHO ANALISTA DO MP PIUMHI - COMARCA; PIUMHI-PJ-02PJ 12.343,61 6.171,81 0,00 0,00 0,00 0,00 0,00 2.105,00 20.620,42 2.743,42 3.452,34 0,00 0,00 6.195,76 14.424,66 30/09/2023
831 385200 ELCI VIANA REIS OFICIAL DO MP RIO PARDO DE MINAS - COMARCA; RIO PARDO DE MINAS-PJ-SECRETARIA 12.343,61 6.171,81 0,00 0,00 0,00 0,00 0,00 2.105,00 20.620,42 2.957,07 3.760,80 0,00 0,00 6.717,87 13.902,55 30/09/2023
832 289801 ELCIO JOSE DOS SANTOS ANALISTA DO MP BELO HORIZONTE - COMARCA; DIVISAO DE SERVICOS 12.343,61 3.703,08 5.538,92 0,00 0,00 0,00 906,35 2.105,00 24.596,96 2.348,42 4.405,27 0,00 0,00 6.753,69 17.843,27 30/09/2023
833 319600 ELEN TULER DE ALBERGARIA ANALISTA DO MP BELO HORIZONTE - COMARCA; BH-19PJ SAUDE-SECRETARIA 130PJ 23.070,31 11.535,16 0,00 0,00 0,00 0,00 1.780,85 2.105,00 38.491,32 5.795,34 10.515,17 0,00 0,00 16.310,51 22.180,81 30/09/2023
834 205500 ELIANA ALVES DE SOUSA OFICIAL DO MP GOVERNADOR VALADARES - COMARCA; GOVERNADOR VALADARES-PJ-07PJ 12.343,61 4.937,44 0,00 0,00 0,00 0,00 0,00 2.105,00 19.386,05 2.545,92 3.167,20 0,00 0,00 5.713,12 13.672,93 30/09/2023
835 628800 ELIANA APARECIDA PEREIRA ANALISTA DO MP EXTREMA - COMARCA; EXTREMA-PJ-01PJ 10.516,49 1.051,65 0,00 0,00 0,00 0,00 0,00 2.105,00 13.673,14 1.631,85 1.795,38 0,00 0,00 3.427,23 10.245,91 30/09/2023
836 301700 ELIANA DA SILVEIRA ANALISTA DO MP BELO HORIZONTE - COMARCA; BH-11PJ COMB CRIME ORGANIZ-GAB 081PJ 21.346,53 6.403,96 0,00 0,00 0,00 0,00 289,27 2.105,00 30.144,76 5.795,34 8.952,87 0,00 0,00 14.748,21 15.396,55 30/09/2023
837 251500 ELIANA DE LIMA MILAGRES FONSECA ANALISTA DO MP CONTAGEM - COMARCA; CONTAGEM-PJ-16PJ 23.070,31 9.228,12 0,00 0,00 0,00 0,00 123,54 2.105,00 34.526,97 5.795,34 10.313,72 0,00 0,00 16.109,06 18.417,91 30/09/2023
838 503900 ELIANA DIAS DUTRA FERREIRA OFICIAL DO MP BELO HORIZONTE - COMARCA; DIRETORIA GESTAO COMPRAS LICITACOES 10.516,49 2.103,30 0,00 0,00 0,00 0,00 654,76 2.105,00 15.379,55 2.306,07 2.768,79 0,00 0,00 5.074,86 10.304,69 30/09/2023
839 413900 ELIANA PINTO DE OLIVEIRA NEVES ANALISTA DO MP CAMPO BELO - COMARCA; CAMPO BELO-PJ-04PJ 17.559,01 3.511,80 0,00 0,00 0,00 0,00 58,50 2.105,00 23.234,31 4.122,28 6.340,90 0,00 0,00 10.463,18 12.771,13 30/09/2023
840 228200 ELIANA RODRIGUES DA CUNHA PINHEIRO OFICIAL DO MP BELO HORIZONTE - COMARCA; DIRETORIA DE PROJETOS DE EDIFICACOES 17.559,01 7.023,60 0,00 334,71 0,00 7.380,62 0,00 2.105,00 34.402,94 3.714,17 5.875,26 0,00 0,00 9.589,43 24.813,51 30/09/2023
841 386600 ELIANA SABINO CHAVES PESSOA ANALISTA DO MP CARATINGA - COMARCA; CARATINGA-PJ-06PJ 18.130,77 12.691,55 0,00 533,49 0,00 8.335,99 61,13 2.105,00 41.857,93 5.795,34 9.980,89 0,00 0,00 15.776,23 26.081,70 30/09/2023
842 677500 ELIANA SILVA ANDRADE ASSESSOR PROMOTOR JUSTICA TRÊS CORACOES - COMARCA; TRES CORACOES-PJ-06PJ 0,00 0,00 8.810,89 0,00 0,00 0,00 0,00 2.105,00 10.915,89 876,95 1.709,37 0,00 0,00 2.586,32 8.329,57 30/09/2023
843 297400 ELIANE AUGUSTA RIBEIRO COSTA ANALISTA DO MP CONSELHEIRO LAFAIETE - COMARCA; CONSELHEIRO LAFAIETE-PJ-05PJ 23.070,31 6.921,09 0,00 0,00 0,00 0,00 5,03 2.105,00 32.101,43 5.795,34 9.530,94 0,00 0,00 15.326,28 16.775,15 30/09/2023
844 510600 ELIANE CAROLINA MAIA ANALISTA DO MP IGARAPÉ - COMARCA; IGARAPE-PJ-03PJ 12.343,61 3.703,08 0,00 0,00 0,00 0,00 0,00 2.105,00 18.151,69 2.348,42 2.725,65 0,00 0,00 5.074,07 13.077,62 30/09/2023
845 262600 ELIANE FERREIRA SOARES ASSESSOR ADMINISTRATIVO II BELO HORIZONTE - COMARCA; BH-18PJ DIREITOS HUMANOS-SECRETARIA 0,00 3.753,35 7.506,70 0,00 0,00 0,00 0,00 2.105,00 13.365,05 876,95 2.382,89 0,00 0,00 3.259,84 10.105,21 30/09/2023
846 204400 ELIANE GLAUCE DE QUEIROS MAIA OFICIAL DO MP GUANHÃES - COMARCA; GUANHAES-PJ-02PJ 20.533,67 8.213,47 0,00 0,00 0,00 0,00 0,00 2.105,00 30.852,14 4.380,49 6.979,10 0,00 0,00 11.359,59 19.492,55 30/09/2023
847 91800 ELIANE KAPLER ALVES OFICIAL DO MP BELO HORIZONTE - COMARCA; DIVISAO DE CONTROLE IMOBILIARIO 23.070,31 16.149,22 0,00 0,00 0,00 5.795,34 0,00 2.105,00 47.119,87 5.795,34 9.348,00 1.629,57 0,00 16.772,91 30.346,96 30/09/2023
848 334200 ELIANE MARCIA DE OLIVEIRA BRITO OFICIAL DO MP BELO HORIZONTE - COMARCA; BH-08PJ JUIZADO ESPECIAL-SECRETARIA 7.506,70 2.252,01 0,00 0,00 0,00 0,00 0,00 2.105,00 11.863,71 1.342,34 1.429,54 0,00 0,00 2.771,88 9.091,83 30/09/2023
849 365900 ELIANE MARIA DE OLIVEIRA FERREIRA OFICIAL DO MP SETE LAGOAS - COMARCA; SETE LAGOAS-PJ-SEC CRIMINAIS 12.343,61 8.640,53 0,00 0,00 0,00 0,00 0,00 2.105,00 23.089,14 3.138,41 4.022,62 0,00 0,00 7.161,03 15.928,11 30/09/2023
850 320600 ELIANE STADLER DE SOUZA OFICIAL DO MP MONTES CLAROS - COMARCA; MONTES CLAROS-PJ-13PJ 11.577,56 3.473,27 0,00 0,00 0,00 0,00 839,58 2.105,00 17.995,41 2.259,29 2.701,24 0,00 0,00 4.960,53 13.034,88 30/09/2023
851 448900 ELIAS PEREIRA OTONI ASSESSOR ADMINISTRATIVO II BELO HORIZONTE - COMARCA; BH-18PJ DIREITOS HUMANOS-SECRETARIA 0,00 0,00 7.506,70 0,00 0,00 0,00 0,00 2.105,00 9.611,70 876,95 1.246,45 0,00 0,00 2.123,40 7.488,30 30/09/2023
852 495400 ELICA SOUZA GASPARONI MATTOS OFICIAL DO MP UBÁ - COMARCA; UBA-PJ-06PJ 10.516,49 2.103,30 0,00 0,00 0,00 0,00 835,69 2.105,00 15.560,48 2.455,41 3.049,37 0,00 0,00 5.504,78 10.055,70 30/09/2023
853 86600 ELIENE FERREIRA DA SILVA OFICIAL DO MP BELO HORIZONTE - COMARCA; BH-22PJ PES COM DEF E IDOSOS-SECRETARIA 25.920,35 20.736,29 0,00 0,00 0,00 5.795,34 0,00 2.105,00 54.556,98 5.795,34 9.295,87 9.066,68 0,00 24.157,89 30.399,09 30/09/2023
854 183800 ELIENE MARIA CUNHA OFICIAL DO MP BELO HORIZONTE - COMARCA; DIRETORIA DE PESSOAL ADMINISTRATIVO - DPAD 21.346,53 8.538,61 0,00 0,00 0,00 0,00 115,31 2.105,00 32.105,45 5.795,34 8.605,96 0,00 0,00 14.401,30 17.704,15 30/09/2023
855 172300 ELINA APARECIDA SILVA ASSESSOR ADMINISTRATIVO I BELO HORIZONTE - COMARCA; BH-19PJ SAUDE-SECRETARIA 130PJ 0,00 1.949,08 4.872,71 0,00 0,00 0,00 0,00 2.105,00 8.926,79 876,95 1.110,23 0,00 0,00 1.987,18 6.939,61 30/09/2023
856 492501 ELINE CAMPOS DA FONSECA CUNHA ANALISTA DO MP PONTE NOVA - COMARCA; PONTE NOVA-PJ-05PJ 12.343,61 2.468,72 0,00 0,00 0,00 0,00 0,00 2.105,00 16.917,33 2.150,92 2.596,93 0,00 0,00 4.747,85 12.169,48 30/09/2023
857 618900 ELISA MOURA VIEIRA MARCATTI OFICIAL DO MP BELO HORIZONTE - COMARCA; GRUPO ESP PROM JUST DEF PROB ADM PAT PUB 7.506,70 750,67 0,00 0,00 0,00 0,00 0,00 3.055,00 11.312,37 1.102,13 1.082,73 0,00 0,00 2.184,86 9.127,51 30/09/2023
858 256500 ELISABETE NOGUEIRA ANALISTA DO MP RIBEIRÃO DAS NEVES - COMARCA; RIBEIRAO NEVES-SEC PJ EXECUCAO PENAL 18.720,84 9.360,42 0,00 0,00 0,00 0,00 1.590,18 2.105,00 31.776,44 5.630,52 7.412,04 0,00 0,00 13.042,56 18.733,88 30/09/2023
859 355000 ELISANGELA DARLANTONI RIBEIRO OFICIAL DO MP ARAXÁ - COMARCA; ARAXA-PJ-05PJ 11.954,43 3.586,33 0,00 0,00 0,00 0,00 836,33 2.105,00 18.482,09 2.267,47 2.713,06 0,00 0,00 4.980,53 13.501,56 30/09/2023
860 604400 ELISANGELA DEMASI FERREIRA MOREIRA ANALISTA DO MP CABO VERDE - COMARCA; CABO VERDE-PJ-UNPJ 12.343,61 1.234,36 0,00 0,00 0,00 0,00 886,19 2.105,00 16.569,16 982,16 3.169,43 0,00 0,00 4.151,59 12.417,57 30/09/2023
861 323800 ELISANGELA GONCALVES DE JESUS OFICIAL DO MP BELO HORIZONTE - COMARCA; DIRETORIA DE PESSOAL ADMINISTRATIVO - DPAD 12.343,61 3.703,08 0,00 0,00 0,00 0,00 0,00 2.105,00 18.151,69 2.348,42 2.829,93 0,00 0,00 5.178,35 12.973,34 30/09/2023
862 507400 ELISANGELA MIGUEL DA ROCHA SILVA ASSESSOR ADMINISTRATIVO II BELO HORIZONTE - COMARCA; CGMP-DIR INSP CORR PROCED PROC DISC 0,00 0,00 7.506,70 0,00 0,00 0,00 0,00 2.105,00 9.611,70 876,95 1.298,58 0,00 0,00 2.175,53 7.436,17 30/09/2023
863 261400 ELISANGELA REZENDE MENDES OFICIAL DO MP POUSO ALEGRE - COMARCA; POUSO ALEGRE-PJ-05PJ 12.343,61 4.937,44 0,00 0,00 0,00 0,00 0,00 2.105,00 19.386,05 2.545,92 3.167,20 0,00 0,00 5.713,12 13.672,93 30/09/2023
864 534100 ELISANGELA ROSINE SILVA OFICIAL DO MP UBERABA - COMARCA; UBERABA-PJ-06PJ 7.506,70 1.501,34 0,00 0,00 0,00 0,00 0,00 2.105,00 11.113,04 1.222,23 1.256,14 0,00 0,00 2.478,37 8.634,67 30/09/2023
865 634300 ELIUDE GRACA DAMASIO ROSARIO FRANCELINO OFICIAL DO MP BELO HORIZONTE - COMARCA; BH-18PJ VIOLENCIA DOMESTICA-SECRETARIA 6.539,19 660,38 0,00 0,00 0,00 0,00 0,00 4.005,00 11.204,57 944,43 835,20 0,00 0,00 1.779,63 9.424,94 30/09/2023
866 461700 ELIZABETH ALEIXO DA PAZ ANALISTA DO MP JUIZ DE FORA - COMARCA; JUIZ DE FORA-PJ-18PJ 12.343,61 2.468,72 0,00 0,00 0,00 0,00 0,00 2.105,00 16.917,33 2.150,92 2.596,93 0,00 0,00 4.747,85 12.169,48 30/09/2023
867 227300 ELIZABETH COIMBRA FELIX OFICIAL DO MP JABOTICATUBAS - COMARCA; JABOTICATUBAS-PJ-UNPJ 18.130,77 9.065,39 0,00 0,00 0,00 0,00 0,00 2.105,00 29.301,16 4.446,15 5.806,39 0,00 0,00 10.252,54 19.048,62 30/09/2023
868 354800 ELIZABETH DOS REIS OFICIAL DO MP BELO HORIZONTE - COMARCA; DIVISAO DE MATERIAIS 12.343,61 3.703,08 0,00 0,00 0,00 0,00 0,00 2.105,00 18.151,69 2.348,42 2.829,93 0,00 0,00 5.178,35 12.973,34 30/09/2023
869 612000 ELIZABETH MARIA DE QUEIROZ TANIGUCHI OFICIAL DO MP BELO HORIZONTE - COMARCA; SUPERINTENDENCIA GESTÃO DE PESSOAS 6.818,83 681,88 0,00 0,00 0,00 0,00 0,00 2.105,00 9.605,71 981,10 907,93 0,00 0,00 1.889,03 7.716,68 30/09/2023
870 452800 ELIZANGELA MARIA DAVI OFICIAL DO MP ARCOS - COMARCA; ARCOS-PJ-01PJ 7.506,70 1.501,34 0,00 0,00 0,00 0,00 0,00 2.105,00 11.113,04 1.222,23 1.204,00 0,00 0,00 2.426,23 8.686,81 30/09/2023
871 496300 ELIZANGELA MARQUES PINTO COELHO OFICIAL DO MP BELO HORIZONTE - COMARCA; DIRETORIA DE PESSOAL ADMINISTRATIVO - DPAD 10.516,49 2.103,30 0,00 0,00 0,00 0,00 835,69 2.105,00 15.560,48 2.455,41 3.151,95 0,00 0,00 5.607,36 9.953,12 30/09/2023
872 422500 ELIZETE FORTES DA CUNHA ANALISTA DO MP RIBEIRÃO DAS NEVES - COMARCA; RIBEIRAO DAS NEVES-PJ-07PJ 18.044,43 3.626,15 0,00 0,00 0,00 0,00 1.467,40 2.105,00 25.242,98 4.756,50 6.491,80 0,00 0,00 11.248,30 13.994,68 30/09/2023
873 506100 ELLEM CRISTINA ROCHA FONSECA BOWEN ANALISTA DO MP GOVERNADOR VALADARES - COMARCA; COORD REG PJ DEF EDU DIR CRIANCA ADOL RIODOCE 12.343,61 2.468,72 0,00 0,00 0,00 0,00 0,00 3.055,00 17.867,33 2.150,92 2.596,93 0,00 0,00 4.747,85 13.119,48 30/09/2023
874 468200 ELLEN CRISTINA BERNARDES DARE ANALISTA DO MP TRÊS PONTAS - COMARCA; TRES PONTAS-PJ-02PJ 12.343,61 2.468,72 0,00 0,00 0,00 0,00 0,00 3.055,00 17.867,33 2.150,92 2.544,79 0,00 0,00 4.695,71 13.171,62 30/09/2023
875 418800 ELLEN CRISTINA DE QUEIROZ FERREIRA ANALISTA DO MP BELO HORIZONTE - COMARCA; CENTRAL DE APOIO TECNICO-SETOR CONTABIL 17.559,01 3.511,80 0,00 0,00 0,00 0,00 0,00 3.530,00 24.600,81 982,16 4.394,22 0,00 0,00 5.376,38 19.224,43 30/09/2023
876 328401 ELLEN CRISTINA FERREIRA MORAIS MONTEIRO ANALISTA DO MP CAMANDUCAIA - COMARCA; CAMANDUCAIA-PJ-UNPJ 17.559,01 4.565,34 0,00 0,00 0,00 0,00 0,00 2.105,00 24.229,35 3.685,55 4.747,10 0,00 0,00 8.432,65 15.796,70 30/09/2023
877 556100 ELLEN CRISTINE BIANCHIN DA SILVA OFICIAL DO MP SÃO GONÇALO DO SAPUCAÍ - COMARCA; SAO GONCALO DO SAPUCAI-PJ-02PJ 7.506,70 1.501,34 0,00 0,00 0,00 0,00 0,00 2.105,00 11.113,04 1.222,23 1.204,00 0,00 0,00 2.426,23 8.686,81 30/09/2023
878 714500 ELLEN PROENCA CARVALHO DE ARAUJO ASSESSOR PROMOTOR JUSTICA MARIANA - COMARCA; MARIANA-PJ-02PJ 0,00 0,00 8.810,89 0,00 0,00 0,00 0,00 2.105,00 10.915,89 876,95 1.709,37 0,00 0,00 2.586,32 8.329,57 30/09/2023
879 447100 ELLEN ROSANA DE MACEDO BORGES OFICIAL DO MP UBERLÂNDIA - COMARCA; UBERLANDIA-PJ-17PJ 10.858,90 2.171,78 0,00 0,00 0,00 0,00 0,00 2.105,00 15.135,68 1.865,86 2.185,37 0,00 0,00 4.051,23 11.084,45 30/09/2023
880 477700 ELMA JACOB OFICIAL DO MP BELO HORIZONTE - COMARCA; COORD DE GABINETE DO PGJ 10.516,49 8.413,20 0,00 327,64 0,00 6.967,05 60,07 2.105,00 28.389,45 3.792,64 6.371,29 0,00 0,00 10.163,93 18.225,52 30/09/2023
881 123300 ELMA PAULA DOS SANTOS COELHO OFICIAL DO MP BELO HORIZONTE - COMARCA; BH-19PJ SAUDE-SECRETARIA 130PJ 23.070,31 23.070,31 0,00 0,00 0,00 5.795,34 0,00 2.105,00 54.040,96 5.795,34 9.452,28 8.550,66 0,00 23.798,28 30.242,68 30/09/2023
882 728200 ELMITA XISTO DO VALLE ASSESSOR ADMINISTRATIVO I BELO HORIZONTE - COMARCA; DIRET DE FORMACAO, APERFEIC. E POS-GRADUACAO 0,00 0,00 4.872,71 0,00 0,00 0,00 0,00 2.105,00 6.977,71 718,08 670,06 0,00 0,00 1.388,14 5.589,57 30/09/2023
883 356500 ELOISA CARDOSO SILVA FRANCA OFICIAL DO MP PEÇANHA - COMARCA; PECANHA-PJ-SECRETARIA 7.506,70 2.252,01 0,00 0,00 0,00 0,00 0,00 2.105,00 11.863,71 1.342,34 1.377,40 0,00 0,00 2.719,74 9.143,97 30/09/2023
884 251901 ELOISA COSTA E SILVA ANALISTA DO MP BELO HORIZONTE - COMARCA; CENT ESTAD COOPERACAO TECNICO-JURIDICA 12.343,61 4.937,44 0,00 0,00 0,00 0,00 919,34 2.105,00 20.305,39 3.018,38 3.797,18 0,00 0,00 6.815,56 13.489,83 30/09/2023
885 400400 ELOIZA MARIA FERRI PIRES DA SILVA OFICIAL DO MP BELO HORIZONTE - COMARCA; ASSESSORIA DE COMUNICACAO INTEGRADA 10.858,90 3.257,67 4.020,58 0,00 0,00 0,00 0,00 2.105,00 20.242,15 2.039,60 3.541,87 0,00 0,00 5.581,47 14.660,68 30/09/2023
886 258000 ELSO CECIANO PALMEIRA OFICIAL DO MP BELO HORIZONTE - COMARCA; DIRET DE PESSOAL DO MINISTERIO PUBLICO - DPMP 15.949,86 12.759,89 5.928,90 0,00 0,00 0,00 65,53 2.105,00 36.809,18 5.631,91 10.080,46 0,00 0,00 15.712,37 21.096,81 30/09/2023
887 206900 ELVIRA RITA DOS SANTOS ANALISTA DO MP BELO HORIZONTE - COMARCA; CENTRAL DE APOIO TECNICO-SETOR CONTABIL 23.070,31 9.228,12 0,00 559,04 0,00 6.046,90 2.466,37 8.064,54 49.435,28 5.795,34 11.554,49 0,00 0,00 17.349,83 32.085,45 30/09/2023
888 506800 ELVIS FERREIRA DA SILVA ANALISTA DO MP BELO HORIZONTE - COMARCA; DIRETORIA DE SISTEMAS DE INFORMACAO 12.343,61 2.468,72 0,00 0,00 0,00 0,00 0,00 3.055,00 17.867,33 2.150,92 2.440,52 0,00 0,00 4.591,44 13.275,89 30/09/2023
889 602400 ELZA MARIA MOREIRA MUNIZ ANALISTA DO MP RIO PARANAÍBA - COMARCA; RIO PARANAIBA-PJ-UNPJ 12.343,61 2.468,72 0,00 0,00 0,00 0,00 875,80 2.105,00 17.793,13 2.611,70 3.292,55 0,00 0,00 5.904,25 11.888,88 30/09/2023
890 368401 ELZIRA SIMOES DOS SANTOS ASSESSOR DE GABINETE I BELO HORIZONTE - COMARCA; ASSESSORIA DE COMUNICACAO INTEGRADA 0,00 7.252,31 18.130,77 0,00 0,00 0,00 1.238,39 2.105,00 28.726,47 876,95 8.873,70 0,00 0,00 9.750,65 18.975,82 30/09/2023
891 437400 EMANOELLE DA SILVA RODRIGUES OFICIAL DO MP UNAÍ - COMARCA; UNAI-PJ-03PJ 10.015,59 2.003,12 0,00 0,00 0,00 0,00 0,00 3.055,00 15.073,71 1.703,94 1.899,46 0,00 0,00 3.603,40 11.470,31 30/09/2023
892 458900 EMANUELLE CONRAD SILVA FREDERICO NAVES ANALISTA DO MP ALFENAS - COMARCA; ALFENAS-PJ-05PJ 17.559,01 3.511,80 0,00 0,00 0,00 0,00 73,81 3.055,00 24.199,62 4.212,97 6.419,69 0,00 0,00 10.632,66 13.566,96 30/09/2023
893 284100 EMERSON MAGNO ALMEIDA PEDROSA DA FONSECA ANALISTA DO MP BELO HORIZONTE - COMARCA; CENTRAL DE APOIO TECNICO-SETOR CONTABIL 23.070,31 6.921,09 0,00 0,00 0,00 0,00 118,96 3.055,00 33.165,36 5.795,34 5.716,65 0,00 0,00 11.511,99 21.653,37 30/09/2023
894 179900 EMERSON MORAIS DIAS OFICIAL DO MP BELO HORIZONTE - COMARCA; SUPERINTENDÊNCIA DE ENGENHARIA E ARQUITETURA 21.346,53 10.673,27 0,00 0,00 0,00 0,00 2.134,65 2.105,00 36.259,45 5.795,34 8.949,57 0,00 0,00 14.744,91 21.514,54 30/09/2023
895 488700 EMERSON SIQUEIRA DE SOUSA TEIXEIRA ANALISTA DO MP ITANHOMI - COMARCA; ITANHOMI-PJ-UNPJ 12.343,61 3.209,34 0,00 0,00 0,00 0,00 0,00 2.105,00 17.657,95 2.269,42 2.611,60 0,00 0,00 4.881,02 12.776,93 30/09/2023
896 194200 EMILIA ALVES FERREIRA RAMOS OFICIAL DO MP UBERLÂNDIA - COMARCA; UBERLANDIA-PJ-SEC CIVEIS CRIMINAIS 14.960,00 5.984,00 0,00 0,00 0,00 0,00 0,00 2.105,00 23.049,00 3.737,36 5.779,79 0,00 0,00 9.517,15 13.531,85 30/09/2023
897 679500 EMILY DIAS LEMOS E SILVA ASSESSOR PROCURADOR JUSTICA BELO HORIZONTE - COMARCA; GABINETE DE PROCURADOR DE JUSTIÇA - SALA 307 0,00 0,00 8.810,89 0,00 0,00 0,00 0,00 3.055,00 11.865,89 876,95 1.605,10 0,00 0,00 2.482,05 9.383,84 30/09/2023
898 620700 EMILY FONTANA DE SIQUEIRA ANALISTA DO MP BELO HORIZONTE - COMARCA; BH-18PJ VIOLENCIA DOMESTICA-SECRETARIA 11.577,56 1.157,76 0,00 0,00 0,00 0,00 0,00 3.055,00 15.790,32 1.818,60 2.065,00 0,00 0,00 3.883,60 11.906,72 30/09/2023
899 297000 ENEIDA SOARES COSTA MELO ANALISTA DO MP PIUMHI - COMARCA; PIUMHI-PJ-01PJ 23.070,31 6.921,09 0,00 0,00 0,00 0,00 118,96 2.105,00 32.215,36 5.795,34 9.293,41 0,00 0,00 15.088,75 17.126,61 30/09/2023
900 276000 ENEZIO RODRIGUES DE SOUZA FILHO OFICIAL DO MP UBERLÂNDIA - COMARCA; UBERLANDIA-PJ-10PJ 12.343,61 3.703,08 0,00 0,00 0,00 0,00 0,00 2.105,00 18.151,69 2.348,42 2.882,06 0,00 0,00 5.230,48 12.921,21 30/09/2023
901 387700 ENI MARIA DOS REIS OFICIAL DO MP POUSO ALEGRE - COMARCA; POUSO ALEGRE-PJ-07PJ 12.343,61 3.703,08 0,00 0,00 0,00 0,00 770,62 2.105,00 18.922,31 3.393,17 4.523,85 0,00 0,00 7.917,02 11.005,29 30/09/2023
902 605100 ENIA MAIA ASSESSOR ADMINISTRATIVO IV BELO HORIZONTE - COMARCA; DIRETORIA DE ORCAMENTO-DIOR/SPC 14.488,22 1.448,82 0,00 0,00 0,00 0,00 0,00 2.105,00 18.042,04 1.102,13 3.194,64 0,00 0,00 4.296,77 13.745,27 30/09/2023
903 612200 ENILDO GOMES MEIRA FILHO ANALISTA DO MP BELO HORIZONTE - COMARCA; BH-23PJ INFRACIONAL-ASS JURIDICA 11.577,56 1.157,76 0,00 0,00 0,00 0,00 1.964,88 3.055,00 17.755,20 2.132,98 2.414,61 0,00 0,00 4.547,59 13.207,61 30/09/2023
904 553700 ENIVALDO NOVATO PUBLIO ANALISTA DO MP DIVINÓPOLIS - COMARCA; DIVINOPOLIS-PJ-09PJ 12.343,61 2.468,72 0,00 0,00 0,00 0,00 746,06 2.105,00 17.663,39 2.855,96 3.778,82 0,00 0,00 6.634,78 11.028,61 30/09/2023
905 680600 ENZO JOSE FERES SOUZA JABER ASSESSOR PROMOTOR JUSTICA NOVO CRUZEIRO - COMARCA; NOVO CRUZEIRO-PJ-SECRETARIA 0,00 0,00 8.776,63 0,00 0,00 0,00 0,00 2.105,00 10.881,63 876,95 1.699,95 0,00 0,00 2.576,90 8.304,73 30/09/2023
906 417300 ERIC BARATTI DA SILVA ANALISTA DO MP FRUTAL - COMARCA; FRUTAL-PJ-02PJ 13.588,97 2.717,79 0,00 0,00 0,00 0,00 996,24 3.055,00 20.358,00 2.970,12 3.941,36 0,00 0,00 6.911,48 13.446,52 30/09/2023
907 637600 ERIC DA ROCHA CHEHUEN ANALISTA DO MP LIMA DUARTE - COMARCA; LIMA DUARTE-PJ-UNPJ 11.212,54 1.121,25 0,00 0,00 0,00 0,00 0,00 2.105,00 14.438,79 982,16 2.236,74 0,00 0,00 3.218,90 11.219,89 30/09/2023
908 398900 ERIC TEIXEIRA SILVA OFICIAL DO MP UBERLÂNDIA - COMARCA; UBERLANDIA-PJ-SEC CIVEIS CRIMINAIS 11.954,43 3.586,33 0,00 0,00 0,00 0,00 0,00 2.105,00 17.645,76 2.267,47 2.765,19 0,00 0,00 5.032,66 12.613,10 30/09/2023
909 703600 ERICA CORDEIRO SANTOS ASSESSOR PROMOTOR JUSTICA MINAS NOVAS - COMARCA; MINAS NOVAS-PJ-UNPJ 0,00 0,00 8.810,89 0,00 0,00 0,00 0,00 2.105,00 10.915,89 876,95 1.709,37 0,00 0,00 2.586,32 8.329,57 30/09/2023
910 274200 ERICA DE SOUZA ANDRADE OFICIAL DO MP CURVELO - COMARCA; CURVELO-PJ-03PJ 14.960,00 4.488,00 0,00 0,00 0,00 0,00 123,43 2.105,00 21.676,43 4.120,71 6.217,38 0,00 0,00 10.338,09 11.338,34 30/09/2023
911 225700 ERICA GOMES DO COUTO OFICIAL DO MP BELO HORIZONTE - COMARCA; BH-21PJ TUTELA FUNDACOES-SECRETARIA 18.720,84 7.488,34 0,00 0,00 0,00 0,00 0,00 3.055,00 29.264,18 4.924,50 7.155,89 0,00 0,00 12.080,39 17.183,79 30/09/2023
912 632600 ERICA LEONOR MARTINS OFICIAL DO MP RESENDE COSTA - COMARCA; RESENDE COSTA-PJ-UNPJ 7.270,07 727,01 0,00 0,00 0,00 0,00 0,00 2.105,00 10.102,08 1.060,48 1.022,61 0,00 0,00 2.083,09 8.018,99 30/09/2023
913 524800 ERICA MACHADO DA COSTA E SOUZA ANALISTA DO MP BELO HORIZONTE - COMARCA; ASSESS TECNICO-JUR JUNTO AS PROC. DE JUST 13.588,97 2.717,79 0,00 0,00 0,00 0,00 917,85 2.105,00 19.329,61 2.809,88 3.582,78 0,00 0,00 6.392,66 12.936,95 30/09/2023
914 249500 ERICA RODRIGUES ANDRADE OFICIAL DO MP SÃO FRANCISCO - COMARCA; SAO FRANCISCO-PJ-02PJ 12.343,61 4.937,44 0,00 0,00 0,00 0,00 1.109,21 2.105,00 20.495,26 3.699,62 4.939,85 0,00 0,00 8.639,47 11.855,79 30/09/2023
915 260800 ERICA VIANA GIARDINI DE OLIVEIRA OFICIAL DO MP BELO HORIZONTE - COMARCA; DIRETORIA GESTAO COMPRAS LICITACOES 13.160,57 5.264,23 4.940,75 0,00 0,00 0,00 996,07 2.105,00 26.466,62 3.260,58 5.650,79 0,00 0,00 8.911,37 17.555,25 30/09/2023
916 299800 ERICH DOUGLAS RIBEIRO GARCIA ANALISTA DO MP BELO HORIZONTE - COMARCA; CENTRAL DE APOIO TECNICO-SETOR CONTABIL 22.191,68 6.657,50 0,00 0,00 0,00 0,00 57,22 2.105,00 31.011,40 5.716,34 8.030,58 0,00 0,00 13.746,92 17.264,48 30/09/2023
917 365000 ERICK EDUARDO JOSE DA SILVA OFICIAL DO MP JUIZ DE FORA - COMARCA; JUIZ DE FORA-PJ-12PJ 7.506,70 2.252,01 0,00 0,00 0,00 0,00 572,51 8.350,57 18.681,79 1.342,34 1.429,54 0,00 0,00 2.771,88 15.909,91 30/09/2023
918 227400 ERIKA DE LAET GOULART BOECHAT OFICIAL DO MP BELO HORIZONTE - COMARCA; BH-17PJ PATRIMONIO PUBLICO-SECRETARIA 18.720,84 7.488,34 0,00 0,00 0,00 0,00 0,00 2.105,00 28.314,18 4.226,06 5.822,05 0,00 0,00 10.048,11 18.266,07 30/09/2023
919 681301 ERIKA FERNANDA ELISEU FERREIRA ASSESSOR PROCURADOR JUSTICA BELO HORIZONTE - COMARCA; GABINETE DE PROCURADOR DE JUSTIÇA - SALA 411 0,00 0,00 8.810,89 0,00 0,00 0,00 0,00 2.105,00 10.915,89 876,95 1.709,37 0,00 0,00 2.586,32 8.329,57 30/09/2023
920 285100 ERIKA FERREIRA DA SILVA OFICIAL DO MP JUIZ DE FORA - COMARCA; JUIZ DE FORA-PJ-11PJ 12.343,61 3.703,08 0,00 0,00 0,00 0,00 0,00 2.105,00 18.151,69 2.348,42 2.882,06 0,00 0,00 5.230,48 12.921,21 30/09/2023
921 420100 ERIKA JEANINE VERSIANI DE CASTRO ANALISTA DO MP BELO HORIZONTE - COMARCA; CAO-EDUCACAO 18.130,77 3.626,15 0,00 0,00 0,00 0,00 1.446,64 2.105,00 25.308,56 4.768,38 6.591,63 0,00 0,00 11.360,01 13.948,55 30/09/2023
922 677100 ERIKA LAYS CARDOSO FERNANDES ASSESSOR PROMOTOR JUSTICA GRAO MOGOL - COMARCA; GRAO MOGOL-PJ-UNPJ 0,00 0,00 8.810,89 0,00 0,00 0,00 0,00 2.105,00 10.915,89 876,95 1.709,37 0,00 0,00 2.586,32 8.329,57 30/09/2023
923 606900 ERIKA MARIA BARBOSA ANALISTA DO MP BELO HORIZONTE - COMARCA; CAO-SAUDE 11.577,56 1.157,76 0,00 0,00 0,00 0,00 705,52 2.105,00 15.545,84 2.599,40 3.307,00 0,00 0,00 5.906,40 9.639,44 30/09/2023
924 491000 ERIKA ROCHA PEREIRA E SILVA COORDENADOR II BELO HORIZONTE - COMARCA; DIR GOVERNANCA TECNOLOGIA INFORMACAO 20.533,67 4.106,73 0,00 0,00 0,00 0,00 1.532,11 2.105,00 28.277,51 2.785,73 5.946,56 0,00 0,00 8.732,29 19.545,22 30/09/2023
925 283201 ERIKA STEHLING COORDENADOR I BELO HORIZONTE - COMARCA; CENTRAL DE APOIO TECNICO-SETOR DE ENGENHARIA 16.469,17 4.940,75 0,00 0,00 0,00 0,00 0,00 2.105,00 23.514,92 2.348,42 4.356,95 0,00 0,00 6.705,37 16.809,55 30/09/2023
926 254000 ERLANDIA DA SILVA MENDES OFICIAL DO MP IPATINGA - COMARCA; IPATINGA-PJ-03PJ 17.559,01 8.779,51 0,00 360,45 0,00 7.574,39 0,00 2.105,00 36.378,36 3.995,11 6.201,72 0,00 0,00 10.196,83 26.181,53 30/09/2023
927 348500 ERNILANDIA DE OLIVEIRA DIAS OFICIAL DO MP MONTES CLAROS - COMARCA; MONTES CLAROS-PJ-16PJ 12.343,61 3.703,08 0,00 0,00 0,00 0,00 1.006,75 2.105,00 19.158,44 3.433,95 4.593,83 0,00 0,00 8.027,78 11.130,66 30/09/2023
928 199300 ERTON PORTINARI DE ANDRADE OFICIAL DO MP SETE LAGOAS - COMARCA; SETE LAGOAS-PJ-05PJ 20.533,67 10.266,84 0,00 0,00 116,10 0,00 2.091,02 2.515,68 35.523,31 5.037,57 6.360,85 0,00 0,00 11.398,42 24.124,89 30/09/2023
929 618800 ESLY DE CARLA AYALLA BARBOSA MENDES OFICIAL DO MP NOVA LIMA - COMARCA; NOVA LIMA-PJ-SECRETARIA 6.818,83 681,88 0,00 0,00 0,00 0,00 0,00 2.105,00 9.605,71 981,10 907,93 0,00 0,00 1.889,03 7.716,68 30/09/2023
930 537000 ESTANISLAU CORREIA ALMEIDA JUNIOR OFICIAL DO MP UBERLÂNDIA - COMARCA; UBERLANDIA-PJ-25PJ 7.506,70 1.501,34 0,00 0,00 0,00 0,00 0,00 2.105,00 11.113,04 1.222,23 1.256,14 0,00 0,00 2.478,37 8.634,67 30/09/2023
931 692100 ESTEFANIA FARIA FERREIRA ASSESSOR PROCURADOR JUSTICA BELO HORIZONTE - COMARCA; GABINETE DE PROCURADOR DE JUSTIÇA - SALA 814 0,00 0,00 11.879,07 0,00 0,00 0,00 0,00 936,82 12.815,89 876,95 1.709,37 0,00 0,00 2.586,32 10.229,57 30/09/2023
932 326900 ESTER ALICE PIMENTA OFICIAL DO MP BELO HORIZONTE - COMARCA; COORD DE INCLUSAO E MOBILIZACAO SOCIAIS 12.343,61 3.703,08 0,00 0,00 0,00 0,00 0,00 2.105,00 18.151,69 2.348,42 2.882,06 0,00 0,00 5.230,48 12.921,21 30/09/2023
933 503700 ESTHER GONCALVES FONSECA ANALISTA DO MP BELO HORIZONTE - COMARCA; DIR CRIACAO E MIDIAS 12.343,61 2.468,72 0,00 0,00 0,00 0,00 0,00 2.105,00 16.917,33 2.150,92 2.596,93 0,00 0,00 4.747,85 12.169,48 30/09/2023
934 475600 ETIENE DE FATIMA OLIVEIRA PEREIRA ANALISTA DO MP PATROCÍNIO - COMARCA; PATROCINIO-PJ-04PJ 12.343,61 2.468,72 0,00 0,00 0,00 0,00 0,00 2.105,00 16.917,33 982,16 2.703,58 0,00 0,00 3.685,74 13.231,59 30/09/2023
935 428800 EUGENIA RODRIGUES TRAJANO BORGES ANALISTA DO MP UBERABA - COMARCA; UBERABA-PJ-10PJ 17.559,01 3.511,80 0,00 0,00 0,00 0,00 0,00 3.055,00 24.125,81 3.391,31 4.387,74 0,00 0,00 7.779,05 16.346,76 30/09/2023
936 272700 EUGENIO DE BARCELOS FILHO OFICIAL DO MP FRUTAL - COMARCA; FRUTAL-PJ-SECRETARIA 12.343,61 4.937,44 0,00 0,00 0,00 0,00 2.256,67 2.105,00 21.642,72 3.828,94 5.164,11 0,00 0,00 8.993,05 12.649,67 30/09/2023
937 254100 EULALIA ALVES MIRANDA LUCAS OFICIAL DO MP ALMENARA - COMARCA; ALMENARA-PJ-02PJ 15.949,86 7.974,93 0,00 0,00 1.063,32 0,00 6.461,84 2.998,20 34.448,15 4.629,71 6.240,11 0,00 -3.485,28 7.384,54 27.063,61 30/09/2023
938 641200 EUNICE ELVIRA DA SILVA MATOS OFICIAL DO MP BELO HORIZONTE - COMARCA; BH-14PJ DEFESA CONSUMIDOR-SECRETARIA 6.603,76 660,38 0,00 0,00 0,00 0,00 0,00 2.105,00 9.369,14 944,43 852,96 0,00 0,00 1.797,39 7.571,75 30/09/2023
939 557900 EURIPEDES JOSUE PERES OFICIAL DO MP IBIÁ - COMARCA; IBIA-PJ-UNPJ 7.506,70 1.501,34 0,00 0,00 0,00 0,00 0,00 2.105,00 11.113,04 1.222,23 1.256,14 0,00 0,00 2.478,37 8.634,67 30/09/2023
940 225800 EURO CESAR VIEIRA BARBOSA ANALISTA DO MP BELO HORIZONTE - COMARCA; BH-17PJ PATRIMONIO PUBLICO-SECRETARIA 23.070,31 9.228,12 0,00 0,00 0,00 0,00 2.145,49 2.105,00 36.548,92 5.795,34 9.776,46 0,00 0,00 15.571,80 20.977,12 30/09/2023
941 199400 EUSTAQUIO ADAILTON LIMA E SILVA OFICIAL DO MP MONTES CLAROS - COMARCA; MONTES CLAROS-PJ-15PJ 20.533,67 14.373,58 0,00 0,00 0,00 0,00 0,00 2.105,00 37.012,25 5.366,11 7.082,44 0,00 0,00 12.448,55 24.563,70 30/09/2023
942 548000 EVA VILMA LEAO REIS JULIO OFICIAL DO MP BELO HORIZONTE - COMARCA; BH-07PJ 01 TRIBUNAL JURI-SECRETARIA 7.506,70 3.002,68 0,00 0,00 0,00 0,00 0,00 2.105,00 12.614,38 1.462,45 1.602,95 0,00 0,00 3.065,40 9.548,98 30/09/2023
943 517000 EVALDO SENA COSTA FILHO ANALISTA DO MP CONTAGEM - COMARCA; CONTAGEM-PJ-20PJ 12.343,61 4.937,44 0,00 0,00 0,00 0,00 936,25 2.105,00 20.322,30 3.016,64 3.742,54 0,00 0,00 6.759,18 13.563,12 30/09/2023
944 217500 EVELANGE LEAO RABELO ASSESSOR ADMINISTRATIVO II BELO HORIZONTE - COMARCA; CAO-PESSOAS IDOSAS E PESSOAS COM DEFICIENCIA 0,00 3.002,68 7.506,70 0,00 0,00 0,00 539,48 7.990,25 19.039,11 876,95 2.176,46 0,00 0,00 3.053,41 15.985,70 30/09/2023
945 679600 EVERTON BARBOSA DA SILVA ASSESSOR PROCURADOR JUSTICA BELO HORIZONTE - COMARCA; GABINETE DE PROCURADOR DE JUSTIÇA - SALA 510 0,00 0,00 8.810,89 0,00 0,00 0,00 0,00 2.105,00 10.915,89 876,95 1.709,37 0,00 0,00 2.586,32 8.329,57 30/09/2023
946 540400 EVIE SARAMELLA DE RESENDE OFICIAL DO MP BARBACENA - COMARCA; BARBACENA-PJ-08PJ 7.506,70 1.501,34 0,00 0,00 0,00 0,00 0,00 2.105,00 11.113,04 1.222,23 1.256,14 0,00 0,00 2.478,37 8.634,67 30/09/2023
947 469000 EWERTON CARDOSO DE SA RODRIGUES ANALISTA DO MP CAMPO BELO - COMARCA; CAMPO BELO-PJ-02PJ 12.343,61 2.468,72 0,00 0,00 0,00 0,00 0,00 2.105,00 16.917,33 2.150,92 2.492,65 0,00 0,00 4.643,57 12.273,76 30/09/2023
948 368900 FABIANA BARBOSA SIQUEIRA OFICIAL DO MP BELO HORIZONTE - COMARCA; CAO-ORDEM ECONOMICA E TRIBUTARIA-SECRETARIA 13.588,97 4.076,69 0,00 0,00 0,00 0,00 1.219,39 2.105,00 20.990,05 3.254,50 4.138,07 0,00 0,00 7.392,57 13.597,48 30/09/2023
949 273800 FABIANA CARNEIRO AMORIM OFICIAL DO MP BELO HORIZONTE - COMARCA; BH-23PJ CIVEL-COORD ADM CIVEL 15.447,01 6.178,80 4.346,47 0,00 0,00 0,00 3.114,46 2.105,00 31.191,74 4.867,57 8.415,39 0,00 0,00 13.282,96 17.908,78 30/09/2023
950 519300 FABIANA DE OLIVEIRA LOUREIRO ANALISTA DO MP BELO HORIZONTE - COMARCA; BH-09PJ AUDITORIA MILITAR-SECRETARIA 12.343,61 2.468,72 0,00 0,00 0,00 0,00 0,00 2.105,00 16.917,33 2.150,92 2.596,93 0,00 0,00 4.747,85 12.169,48 30/09/2023
951 363400 FABIANA DOURADO DUPIN VIEGAS ANALISTA DO MP BELO HORIZONTE - COMARCA; GABINETE DE PROCURADOR DE JUSTIÇA - SALA 705 21.346,53 6.403,96 0,00 0,00 0,00 0,00 1.525,82 2.105,00 31.381,31 5.795,34 8.636,03 0,00 0,00 14.431,37 16.949,94 30/09/2023
952 410800 FABIANA DUARTE QUITITE ANALISTA DO MP BELO HORIZONTE - COMARCA; BH-15PJ M AMB PAT HIST CULT-GAB 116PJ 18.130,77 3.626,15 0,00 0,00 0,00 0,00 1.446,64 2.105,00 25.308,56 4.768,38 6.591,63 0,00 0,00 11.360,01 13.948,55 30/09/2023
953 419500 FABIANA EULALIA DOS SANTOS ANALISTA DO MP SÃO JOÃO DEL REI - COMARCA; SAO JOAO DEL REI-PJ-01PJ 18.130,77 3.626,15 0,00 0,00 0,00 0,00 1.468,18 2.105,00 25.330,10 4.756,50 6.567,68 0,00 0,00 11.324,18 14.005,92 30/09/2023
954 725200 FABIANA LOPES DE JESUS ASSESSOR PROMOTOR JUSTICA CONTAGEM - COMARCA; CONTAGEM-PJ-01PJ 0,00 0,00 8.810,89 0,00 0,00 0,00 0,00 2.105,00 10.915,89 876,95 1.709,37 0,00 0,00 2.586,32 8.329,57 30/09/2023
955 700300 FABIANA MARCIA DE SOUZA ASSESSOR ADMINISTRATIVO II BELO HORIZONTE - COMARCA; DIRET DE CONTROLE E DE MANUTENCAO DE IMOVEIS 0,00 0,00 7.506,70 0,00 0,00 0,00 0,00 2.105,00 9.611,70 876,95 1.350,72 0,00 0,00 2.227,67 7.384,03 30/09/2023
956 331500 FABIANA PACHECO OFICIAL DO MP GUAXUPÉ - COMARCA; GUAXUPE-PJ-01PJ 12.343,61 3.703,08 0,00 0,00 0,00 0,00 0,00 3.055,00 19.101,69 2.348,42 2.777,79 0,00 0,00 5.126,21 13.975,48 30/09/2023
957 510700 FABIANA PEREIRA SANTOS BORGES ANALISTA DO MP BELO HORIZONTE - COMARCA; DIRETORIA DE SISTEMAS DE INFORMACAO 12.343,61 2.468,72 5.538,92 0,00 0,00 0,00 0,00 2.105,00 22.456,25 2.150,92 4.067,99 0,00 0,00 6.218,91 16.237,34 30/09/2023
958 749400 FABIANA SANTOS DE OLIVEIRA CARVALHO ASSESSOR ADMINISTRATIVO I BELO HORIZONTE - COMARCA; CAO-CRIANCAS E ADOLESCENTES-ASS TECNICA 0,00 0,00 4.872,71 0,00 0,00 0,00 1.461,81 3.187,27 9.521,79 876,95 1.159,62 0,00 0,00 2.036,57 7.485,22 30/09/2023
959 181700 FABIANA SOUZA FERREIRA OFICIAL DO MP BELO HORIZONTE - COMARCA; BH-19PJ SAUDE-SECRETARIA 150PJ 7.506,70 3.002,68 0,00 0,00 0,00 0,00 0,00 2.105,00 12.614,38 1.462,45 1.498,67 0,00 0,00 2.961,12 9.653,26 30/09/2023
960 272900 FABIANA STOCKLER LEITE OFICIAL DO MP LAJINHA - COMARCA; LAJINHA-PJ-SECRETARIA 12.343,61 6.171,81 0,00 0,00 0,00 0,00 0,00 2.105,00 20.620,42 2.743,42 3.400,20 0,00 0,00 6.143,62 14.476,80 30/09/2023
961 225500 FABIANE DE FATIMA PORTELLA ANALISTA DO MP BELO HORIZONTE - COMARCA; BH-18PJ DIREITOS HUMANOS-SECRETARIA 23.070,31 9.228,12 0,00 0,00 0,00 0,00 0,00 2.105,00 34.403,43 5.795,34 9.341,01 0,00 0,00 15.136,35 19.267,08 30/09/2023
962 433800 FABIANE DINIZ MATTOS ANALISTA DO MP BELO HORIZONTE - COMARCA; BH-23PJ INFRACIONAL-ASS JURIDICA 18.130,77 3.626,15 0,00 0,00 0,00 0,00 5.293,22 10.096,94 37.147,08 5.638,53 8.050,06 0,00 0,00 13.688,59 23.458,49 30/09/2023
963 455000 FABIANO CARVALHO DA SILVA ANALISTA DO MP LAVRAS - COMARCA; LAVRAS-PJ-05PJ 12.343,61 2.468,72 0,00 0,00 0,00 0,00 0,00 2.105,00 16.917,33 2.150,92 2.596,93 0,00 0,00 4.747,85 12.169,48 30/09/2023
964 498800 FABIANO FURTADO PESSOA COELHO ANALISTA DO MP BELO HORIZONTE - COMARCA; DIRETORIA DE REDES E BANCOS DE DADOS 12.343,61 2.468,72 0,00 0,00 0,00 0,00 0,00 2.105,00 16.917,33 2.150,92 2.492,65 0,00 0,00 4.643,57 12.273,76 30/09/2023
965 663000 FABIANO MARQUES CORREA ASSESSOR ADMINISTRATIVO II BELO HORIZONTE - COMARCA; DIRETORIA DE SUPORTE E MANUTENCAO 0,00 0,00 7.506,70 0,00 0,00 0,00 0,00 2.105,00 9.611,70 876,95 1.350,72 0,00 0,00 2.227,67 7.384,03 30/09/2023
966 394600 FABIANO PALHARES SILVA ANALISTA DO MP BELO HORIZONTE - COMARCA; CENTRAL DE APOIO TECN-SETOR DE MEIO AMBIENTE 18.720,84 5.616,25 0,00 0,00 0,00 0,00 1.501,83 2.105,00 27.943,92 5.217,97 7.656,52 0,00 0,00 12.874,49 15.069,43 30/09/2023
967 676600 FABIANO RESENDE VELOSO ASSESSOR PROCURADOR JUSTICA BELO HORIZONTE - COMARCA; GABINETE DE PROCURADOR DE JUSTIÇA - SALA 1002 0,00 0,00 8.810,89 0,00 0,00 0,00 0,00 2.105,00 10.915,89 876,95 1.709,37 0,00 0,00 2.586,32 8.329,57 30/09/2023
968 444400 FABIANO SARAIVA MEDEIROS ANALISTA DO MP BETIM - COMARCA; BETIM-PJ-11PJ 17.559,01 3.511,80 0,00 0,00 0,00 0,00 11,42 2.105,00 23.187,23 3.848,27 5.841,01 0,00 0,00 9.689,28 13.497,95 30/09/2023
969 408700 FABIANO SOARES PORTILHO ANALISTA DO MP JUIZ DE FORA - COMARCA; GAECO REGIONAL DA ZONA DA MATA-JUIZ DE FORA 18.130,77 3.626,15 0,00 0,00 0,00 0,00 1.432,60 2.105,00 25.294,52 4.584,96 6.320,01 0,00 0,00 10.904,97 14.389,55 30/09/2023
970 442600 FABIO CARVALHO VIEIRA ANALISTA DO MP MONTES CLAROS - COMARCA; MONTES CLAROS-PJ-06PJ 12.343,61 2.468,72 0,00 0,00 0,00 0,00 0,00 2.105,00 16.917,33 2.150,92 2.596,93 0,00 0,00 4.747,85 12.169,48 30/09/2023
971 702700 FABIO JUNIOR COSTA BARREIROS ASSESSOR ADMINISTRATIVO II BELO HORIZONTE - COMARCA; DIVISAO DE MANUTENCAO PREDIAL 0,00 0,00 7.506,70 0,00 0,00 0,00 0,00 3.055,00 10.561,70 876,95 903,71 0,00 0,00 1.780,66 8.781,04 30/09/2023
972 240101 FABIO JUNQUEIRA DE ASSIS FONSECA OFICIAL DO MP BELO HORIZONTE - COMARCA; BH-17PJ PATRIMONIO PUBLICO-SECRETARIA 10.341,72 3.102,52 0,00 0,00 0,00 0,00 0,00 2.105,00 15.549,24 1.932,03 2.280,90 0,00 0,00 4.212,93 11.336,31 30/09/2023
973 271500 FABIO LUIZ VIEIRA OFICIAL DO MP SANTA VITÓRIA - COMARCA; SANTA VITORIA-PJ-UNPJ 12.343,61 4.937,44 0,00 0,00 0,00 0,00 1.234,36 2.144,42 20.659,83 2.743,41 3.400,20 0,00 0,00 6.143,61 14.516,22 30/09/2023
974 213100 FABIO PRATES GONCALVES ASSESSOR ADMINISTRATIVO IV BELO HORIZONTE - COMARCA; DIR RELACOES INSTITUCIONAIS 0,00 5.795,29 14.488,22 0,00 0,00 0,00 906,98 2.105,00 23.295,49 876,95 4.707,93 0,00 0,00 5.584,88 17.710,61 30/09/2023
975 436700 FABIO SANTIAGO DE CARVALHO OFICIAL DO MP POÇO FUNDO - COMARCA; POCO FUNDO-PJ-UNPJ 11.212,54 2.242,51 0,00 0,00 0,00 0,00 0,00 2.105,00 15.560,05 1.933,76 2.283,39 0,00 0,00 4.217,15 11.342,90 30/09/2023
976 208400 FABIOLA DE SOUSA CARDOSO ANALISTA DO MP BELO HORIZONTE - COMARCA; CGMP-DIR ESTAGIO PROBATORIO E ORIENT 23.070,31 9.228,12 6.160,10 0,00 0,00 0,00 0,00 2.105,00 40.563,53 4.948,70 4.795,47 868,57 0,00 10.612,74 29.950,79 30/09/2023
977 392200 FABIOLA LEROY COSTA ANALISTA DO MP ESMERALDAS - COMARCA; ESMERALDAS-PJ-01PJ 12.343,61 3.703,08 0,00 0,00 0,00 0,00 0,00 4.005,00 20.051,69 2.348,42 2.882,06 0,00 0,00 5.230,48 14.821,21 30/09/2023
978 409000 FABIOLA MONTEIRO DE CARVALHO CASTRO ANALISTA DO MP BOM SUCESSO - COMARCA; BOM SUCESSO-PJ-UNPJ 15.447,01 3.089,40 0,00 0,00 0,00 0,00 1.112,68 2.105,00 21.754,09 3.709,29 5.030,63 0,00 0,00 8.739,92 13.014,17 30/09/2023
979 525800 FABRICIA ALVES DANTAS OFICIAL DO MP MONTES CLAROS - COMARCA; MONTES CLAROS-PJ-01PJ 9.699,77 1.939,95 0,00 0,00 0,00 0,00 0,00 2.105,00 13.744,72 1.643,30 1.811,92 0,00 0,00 3.455,22 10.289,50 30/09/2023
980 263400 FABRICIA PINTO TEIXEIRA SANTIAGO OFICIAL DO MP BELO HORIZONTE - COMARCA; CAO-FUNDACOES-SECRETARIA 17.559,01 7.023,60 0,00 0,00 0,00 0,00 0,00 2.105,00 26.687,61 4.073,06 6.220,09 0,00 0,00 10.293,15 16.394,46 30/09/2023
981 420800 FABRICIO BERNARDES DE OLIVEIRA OFICIAL DO MP ITURAMA - COMARCA; ITURAMA-PJ-02PJ 11.212,54 2.242,51 0,00 0,00 0,00 0,00 0,00 3.110,05 16.565,10 1.933,76 2.231,26 0,00 0,00 4.165,02 12.400,08 30/09/2023
982 474000 FABRICIO DE FREITAS SALES ANALISTA DO MP MONTES CLAROS - COMARCA; COORD REG DEF ORDEM ECON TRIB MONTES CLAROS 12.343,61 2.468,72 0,00 0,00 0,00 0,00 0,00 2.105,00 16.917,33 2.150,92 2.596,93 0,00 0,00 4.747,85 12.169,48 30/09/2023
983 510100 FABRICIO FURTADO ASSIS DO CARMO ANALISTA DO MP BELO HORIZONTE - COMARCA; SERVICO MEDICO-DEPTO PERIC MEDICA SAUDE OCUP 12.343,61 2.468,72 0,00 0,00 0,00 0,00 1.181,10 4.005,00 19.998,43 2.150,92 2.921,73 0,00 0,00 5.072,65 14.925,78 30/09/2023
984 519600 FABRICIO GONTIJO SALVATI ANALISTA DO MP BELO HORIZONTE - COMARCA; CENTRAL DE APOIO TECNICO-SETOR CONTABIL 12.343,61 2.468,72 0,00 0,00 0,00 0,00 0,00 2.105,00 16.917,33 2.150,92 2.596,93 0,00 0,00 4.747,85 12.169,48 30/09/2023
985 637400 FABRICIO HENRIQUE DA SILVA PASSOS ANALISTA DO MP BELO HORIZONTE - COMARCA; DIR CRIACAO E MIDIAS 12.343,61 1.234,36 4.020,58 0,00 0,00 0,00 0,00 2.105,00 19.703,55 1.953,42 3.417,45 0,00 0,00 5.370,87 14.332,68 30/09/2023
986 428200 FABRICIO ORZIL VIANA ANALISTA DO MP SANTA LUZIA - COMARCA; SANTA LUZIA-PJ-04PJ 12.343,61 2.468,72 0,00 0,00 0,00 0,00 0,00 2.105,00 16.917,33 2.150,92 2.596,93 0,00 0,00 4.747,85 12.169,48 30/09/2023
987 455600 FABRICIO PAIVA DA ROCHA ANALISTA DO MP SÃO JOÃO DEL REI - COMARCA; SAO JOAO DEL REI-PJ-06PJ 12.343,61 2.468,72 0,00 0,00 0,00 0,00 0,00 3.055,00 17.867,33 2.150,92 2.544,79 0,00 0,00 4.695,71 13.171,62 30/09/2023
988 511500 FABRICIO RENE CARDOSO DE PADUA ANALISTA DO MP SÃO SEBASTIÃO DO PARAÍSO - COMARCA; SAO SEBASTIAO DO PARAISO-PJ-03PJ 12.343,61 2.468,72 0,00 0,00 0,00 0,00 0,00 2.105,00 16.917,33 2.150,92 2.596,93 0,00 0,00 4.747,85 12.169,48 30/09/2023
989 496100 FABRICIO RESENDE GONCALVES OFICIAL DO MP ENTRE-RIOS DE MINAS - COMARCA; ENTRE RIOS DE MINAS-PJ-UNPJ 9.699,77 1.939,95 0,00 0,00 0,00 0,00 0,00 2.105,00 13.744,72 1.643,30 1.864,06 0,00 0,00 3.507,36 10.237,36 30/09/2023
990 650300 FABRICIO ROBERTO AZEVEDO OFICIAL DO MP NOVA SERRANA - COMARCA; NOVA SERRANA-PJ-04PJ 6.097,80 609,78 0,00 0,00 0,00 0,00 0,00 2.105,00 8.812,58 858,46 723,55 0,00 0,00 1.582,01 7.230,57 30/09/2023
991 514900 FADUA MARIA DRUMOND CHEQUER ANALISTA DO MP BETIM - COMARCA; BETIM-PJ-12PJ 12.343,61 2.468,72 0,00 0,00 0,00 0,00 0,00 2.105,00 16.917,33 2.150,92 2.492,65 0,00 0,00 4.643,57 12.273,76 30/09/2023
992 282500 FANNY FERREIRA MELO OFICIAL DO MP ARAXÁ - COMARCA; ARAXA-PJ-03PJ 13.160,57 3.948,17 0,00 0,00 0,00 0,00 948,48 2.105,00 20.162,22 2.851,71 3.608,69 0,00 0,00 6.460,40 13.701,82 30/09/2023
993 692500 FARID JUNIOR NUNES DA SILVA ASSESSOR PROCURADOR JUSTICA BELO HORIZONTE - COMARCA; GABINETE DE PROCURADOR DE JUSTIÇA - SALA 912 0,00 0,00 8.810,89 0,00 0,00 0,00 0,00 2.105,00 10.915,89 876,95 1.605,10 0,00 0,00 2.482,05 8.433,84 30/09/2023
994 744000 FARLEY LOPES DE ALCANTARA OFICIAL DO MP RIBEIRÃO DAS NEVES - COMARCA; RIBEIRAO DAS NEVES-PJ-SEC CIVEL 4.570,25 0,00 0,00 0,00 0,00 0,00 0,00 3.055,00 7.625,25 526,88 257,78 0,00 0,00 784,66 6.840,59 30/09/2023
995 382800 FATIMA DE OLIVEIRA COELHO E SILVA OFICIAL DO MP BELO HORIZONTE - COMARCA; DIRETORIA DE ADMINISTRACAO FINANCEIRA 11.212,54 4.485,02 4.020,58 0,00 0,00 0,00 1.020,84 2.105,00 22.843,98 2.894,18 4.966,84 0,00 0,00 7.861,02 14.982,96 30/09/2023
996 398601 FELIPE ANTONIO HORTA DE PAULA ANALISTA DO MP BELO HORIZONTE - COMARCA; PROC. JUSTICA DIR. DIFUSOS E COLETIVOS-SEC 12.343,61 3.209,34 0,00 0,00 0,00 0,00 940,43 2.105,00 18.598,38 2.978,17 4.060,55 0,00 0,00 7.038,72 11.559,66 30/09/2023
997 430900 FELIPE BOY VIEIRA ANALISTA DO MP BELO HORIZONTE - COMARCA; DIRETORIA DE SEGURANCA 15.949,86 3.189,97 6.160,10 0,00 0,00 0,00 1.091,80 2.105,00 28.496,73 982,16 7.402,39 0,00 0,00 8.384,55 20.112,18 30/09/2023
998 631700 FELIPE DE MORAIS SIMOES COELHO ANALISTA DO MP BELO HORIZONTE - COMARCA; BH-18PJ VIOLENCIA DOMESTICA-SECRETARIA 10.516,49 1.051,65 0,00 0,00 0,00 0,00 0,00 2.105,00 13.673,14 1.631,85 1.847,52 0,00 0,00 3.479,37 10.193,77 30/09/2023
999 549100 FELIPE FERNANDES ALVIM ANALISTA DO MP LAJINHA - COMARCA; LAJINHA-PJ-UNPJ 12.343,61 2.468,72 0,00 0,00 0,00 0,00 920,53 3.055,00 18.787,86 2.859,67 3.754,83 0,00 0,00 6.614,50 12.173,36 30/09/2023
1000 693100 FELIPE FROIS DO AMARAL ASSESSOR PROMOTOR JUSTICA RIBEIRÃO DAS NEVES - COMARCA; RIBEIRAO NEVES-SEC PJ EXECUCAO PENAL 0,00 0,00 8.810,89 0,00 0,00 0,00 0,00 2.105,00 10.915,89 876,95 1.657,24 0,00 0,00 2.534,19 8.381,70 30/09/2023
1001 620100 FELIPE GOMES DE AZEVEDO OFICIAL DO MP BELO HORIZONTE - COMARCA; DIVISAO DE SERVICOS 6.818,83 681,88 4.020,58 0,00 0,00 0,00 0,00 2.105,00 13.626,29 981,10 2.013,59 0,00 0,00 2.994,69 10.631,60 30/09/2023
1002 601600 FELIPE RODRIGUES DE SIQUEIRA ANALISTA DO MP BELO HORIZONTE - COMARCA; BH-02PJ FAMILIA-SECRETARIA 12.343,61 1.234,36 0,00 0,00 0,00 0,00 778,15 2.105,00 16.461,12 982,16 2.536,30 0,00 0,00 3.518,46 12.942,66 30/09/2023
1003 628900 FELIX FERNANDO JUNIO VIEIRA ANALISTA DO MP BELO HORIZONTE - COMARCA; BH-21PJ TUTELA DAS FUNDACOES-ASS CURADORES 11.577,56 1.852,41 0,00 0,00 0,00 0,00 0,00 3.055,00 16.484,97 1.929,74 2.173,33 0,00 0,00 4.103,07 12.381,90 30/09/2023
1004 544500 FELLIPE LEMOS MARCONDES BUENO ANALISTA DO MP SÃO SEBASTIÃO DO PARAÍSO - COMARCA; SAO SEBASTIAO DO PARAISO-PJ-04PJ 12.343,61 2.468,72 0,00 0,00 0,00 0,00 0,00 2.105,00 16.917,33 2.150,92 2.596,93 0,00 0,00 4.747,85 12.169,48 30/09/2023
1005 688500 FELLIPE TADEU DE ANDRADE RAMOS ASSESSOR PROCURADOR JUSTICA BELO HORIZONTE - COMARCA; GABINETE DE PROCURADOR DE JUSTIÇA - SALA 907 0,00 0,00 8.810,89 0,00 0,00 0,00 0,00 2.105,00 10.915,89 876,95 1.709,37 0,00 0,00 2.586,32 8.329,57 30/09/2023
1006 612600 FERNANDA ADRIANA DE PAULA GUIDO ANALISTA DO MP BELO HORIZONTE - COMARCA; CENT ESTAD COOPERACAO TECNICO-JURIDICA 11.577,56 1.157,76 0,00 0,00 0,00 0,00 0,00 3.055,00 15.790,32 1.818,60 2.117,14 0,00 0,00 3.935,74 11.854,58 30/09/2023
1007 508400 FERNANDA AGANETTI MATTOS DE OLIVEIRA ANALISTA DO MP BELO HORIZONTE - COMARCA; CENT ESTAD COOPERACAO TECNICO-JURIDICA 12.343,61 2.468,72 0,00 0,00 0,00 0,00 0,00 4.005,00 18.817,33 982,16 2.918,34 0,00 0,00 3.900,50 14.916,83 30/09/2023
1008 453600 FERNANDA ALBERNAZ RABELO ANALISTA DO MP BELO HORIZONTE - COMARCA; GABINETE DE PROCURADOR DE JUSTIÇA - SALA 616 12.343,61 2.468,72 0,00 0,00 0,00 0,00 0,00 3.055,00 17.867,33 2.150,92 2.596,93 0,00 0,00 4.747,85 13.119,48 30/09/2023
1009 255600 FERNANDA ALINA DE ALMEIDA ANDRADE OFICIAL DO MP BELO HORIZONTE - COMARCA; SUPER DE GESTAO DE PESSOAS-LOTACAO TEMPORARIA 12.343,61 4.937,44 0,00 0,00 0,00 0,00 861,08 2.105,00 20.247,13 2.545,92 3.167,20 0,00 0,00 5.713,12 14.534,01 30/09/2023
1010 443200 FERNANDA ALMEIDA LOPES ANALISTA DO MP CONTAGEM - COMARCA; CONTAGEM-PJ-10PJ 17.559,01 3.511,80 0,00 0,00 0,00 0,00 0,00 4.005,00 25.075,81 3.210,36 4.022,21 0,00 0,00 7.232,57 17.843,24 30/09/2023
1011 281100 FERNANDA ANANIAS MEIRA ANALISTA DO MP BELO HORIZONTE - COMARCA; BH-23PJ INFRACIONAL-ASS JURIDICA 22.191,68 6.657,50 0,00 0,00 0,00 0,00 4.451,02 2.105,00 35.405,20 5.795,34 8.268,21 0,00 0,00 14.063,55 21.341,65 30/09/2023
1012 539000 FERNANDA BARBOSA ALVES ANALISTA DO MP UBERLÂNDIA - COMARCA; GAECO REGIONAL DE UBERLANDIA 12.343,61 2.468,72 0,00 0,00 0,00 0,00 0,00 3.055,00 17.867,33 2.150,92 2.596,93 0,00 0,00 4.747,85 13.119,48 30/09/2023
1013 451200 FERNANDA BLOISE PRADO OFICIAL DO MP BELO HORIZONTE - COMARCA; GAECO - SECRETARIA 10.516,49 2.103,30 0,00 0,00 0,00 0,00 0,00 2.105,00 14.724,79 1.800,11 2.090,45 0,00 0,00 3.890,56 10.834,23 30/09/2023
1014 427900 FERNANDA BRAGA CARNEIRO BICALHO ANALISTA DO MP PEÇANHA - COMARCA; PECANHA-PJ-SECRETARIA 12.343,61 2.468,72 0,00 0,00 0,00 0,00 0,00 2.105,00 16.917,33 2.150,92 2.544,79 0,00 0,00 4.695,71 12.221,62 30/09/2023
1015 507100 FERNANDA CABRINI VAZ MOTA ANALISTA DO MP BELO HORIZONTE - COMARCA; DIVISAO DE MATERIAIS 12.343,61 2.468,72 4.020,58 0,00 0,00 0,00 186,02 4.005,00 23.023,93 982,16 3.924,49 0,00 0,00 4.906,65 18.117,28 30/09/2023
1016 259800 FERNANDA CALZAVARA DE SOUSA OFICIAL DO MP BELO HORIZONTE - COMARCA; DIRET DE INFORMACAO E CONHECIMENTO-DINC/CEAF 17.559,01 7.023,60 6.160,10 0,00 0,00 0,00 0,00 3.055,00 33.797,71 3.714,17 7.262,78 0,00 0,00 10.976,95 22.820,76 30/09/2023
1017 494400 FERNANDA CAMPOS BARATA OFICIAL DO MP JUIZ DE FORA - COMARCA; JUIZ DE FORA-PJ-08PJ 7.506,70 1.501,34 0,00 0,00 0,00 0,00 0,00 2.105,00 11.113,04 1.222,23 1.256,14 0,00 0,00 2.478,37 8.634,67 30/09/2023
1018 555600 FERNANDA CAROLINE RIBEIRO ANALISTA DO MP BELO HORIZONTE - COMARCA; DIRETORIA GESTAO CONTRATOS CONVENIOS 12.343,61 2.468,72 0,00 0,00 0,00 0,00 745,07 2.105,00 17.662,40 2.855,96 3.749,48 0,00 0,00 6.605,44 11.056,96 30/09/2023
1019 692000 FERNANDA CESAR SILVA ASSESSOR PROCURADOR JUSTICA BELO HORIZONTE - COMARCA; GABINETE DE PROCURADOR DE JUSTIÇA - SALA 809 0,00 0,00 8.810,89 0,00 0,00 0,00 0,00 2.105,00 10.915,89 876,95 1.709,37 0,00 0,00 2.586,32 8.329,57 30/09/2023
1020 294500 FERNANDA COSTA FLORES OFICIAL DO MP PARÁ DE MINAS - COMARCA; PARA DE MINAS-PJ-04PJ 13.160,57 3.948,17 0,00 0,00 0,00 0,00 1.176,13 2.105,00 20.389,87 3.478,93 4.514,24 0,00 0,00 7.993,17 12.396,70 30/09/2023
1021 344500 FERNANDA CRISTINA DE SOUZA PAZ ASSESSOR ADMINISTRATIVO II BELO HORIZONTE - COMARCA; CENTRAL DE APOIO TECN-SETOR DE MEIO AMBIENTE 0,00 0,00 7.506,70 0,00 0,00 0,00 0,00 2.105,00 9.611,70 876,95 1.246,45 0,00 0,00 2.123,40 7.488,30 30/09/2023
1022 538100 FERNANDA CRISTINA DOS SANTOS ROSA OFICIAL DO MP BELO HORIZONTE - COMARCA; DIVISAO DE SERVICOS 7.506,70 3.002,68 0,00 0,00 0,00 0,00 0,00 2.105,00 12.614,38 1.462,45 1.602,95 0,00 0,00 3.065,40 9.548,98 30/09/2023
1023 337800 FERNANDA CRISTINA ROLAND CLIMACO MENDES COORDENADOR II BELO HORIZONTE - COMARCA; DIRETORIA DE PAGAMENTO DE PESSOAL-DPAG 20.533,67 6.160,10 0,00 0,00 0,00 0,00 1.733,38 2.105,00 30.532,15 4.380,01 7.898,36 0,00 0,00 12.278,37 18.253,78 30/09/2023
1024 545400 FERNANDA CUNHA GUIMARAES ANALISTA DO MP BELO HORIZONTE - COMARCA; CAO-VIOLENCIA DOMESTICA E FAMILIAR 12.343,61 2.468,72 0,00 0,00 0,00 0,00 0,00 2.105,00 16.917,33 2.150,92 2.596,93 0,00 0,00 4.747,85 12.169,48 30/09/2023
1025 429801 FERNANDA CUNHA PINHEIRO DA SILVA ANALISTA DO MP BELO HORIZONTE - COMARCA; ASSESSORIA DE COMUNICACAO INTEGRADA 12.343,61 2.468,72 0,00 0,00 0,00 0,00 0,00 2.105,00 16.917,33 2.150,92 2.492,65 0,00 0,00 4.643,57 12.273,76 30/09/2023
1026 408000 FERNANDA DAS NEVES RAMOS ANALISTA DO MP BELO HORIZONTE - COMARCA; CAO-FUNDACOES-CONTROLADORIA E APOIO ENTIDADES 18.130,77 3.626,15 0,00 0,00 0,00 0,00 1.206,32 2.105,00 25.068,24 4.756,50 6.567,68 0,00 0,00 11.324,18 13.744,06 30/09/2023
1027 496000 FERNANDA DE ALMEIDA VIANA ANALISTA DO MP BELO HORIZONTE - COMARCA; PROC JUST ATUACAO TRIBUNAIS SUPERIORES-GAB002 12.343,61 2.468,72 0,00 0,00 0,00 0,00 0,00 4.005,00 18.817,33 2.150,92 2.492,65 0,00 0,00 4.643,57 14.173,76 30/09/2023
1028 266700 FERNANDA DE CASTRO LUCAS OFICIAL DO MP BELO HORIZONTE - COMARCA; DIRET DE DESENV DE RECURSOS HUMANOS-DDRH 17.559,01 7.023,60 6.160,10 0,00 0,00 0,00 0,00 3.055,00 33.797,71 3.714,17 7.262,78 0,00 0,00 10.976,95 22.820,76 30/09/2023
1029 433200 FERNANDA DE FIGUEIREDO NORTE ANALISTA DO MP BELO HORIZONTE - COMARCA; ASSESS JUR DO CONS SUPERIOR DO MINISTERIO PUB 18.130,77 3.626,15 0,00 0,00 0,00 0,00 1.170,86 2.105,00 25.032,78 4.558,61 6.177,70 0,00 0,00 10.736,31 14.296,47 30/09/2023
1030 419200 FERNANDA DE MIRANDA MARTINS SIMOES ANALISTA DO MP UBERLÂNDIA - COMARCA; UBERLANDIA-PJ-17PJ 18.130,77 3.626,15 0,00 0,00 0,00 0,00 1.446,64 3.055,00 26.258,56 4.768,38 6.591,63 0,00 0,00 11.360,01 14.898,55 30/09/2023
1031 441400 FERNANDA DE MORAIS PINTO ANALISTA DO MP BELO HORIZONTE - COMARCA; PROC. JUSTICA DIR. DIFUSOS E COLETIVOS-SEC 17.559,01 3.511,80 0,00 0,00 0,00 0,00 0,00 2.105,00 23.175,81 4.206,15 6.493,34 0,00 0,00 10.699,49 12.476,32 30/09/2023
1032 432200 FERNANDA DE MOURA GUIMARAES ANALISTA DO MP BELO HORIZONTE - COMARCA; BH-26 CRIME CONT CRIAN ADOL-SECRETARIA 17.559,01 3.511,80 0,00 0,00 0,00 0,00 0,00 2.105,00 23.175,81 3.277,66 4.223,66 0,00 0,00 7.501,32 15.674,49 30/09/2023
1033 461800 FERNANDA DE OLIVEIRA SANTOS ANALISTA DO MP JUIZ DE FORA - COMARCA; JUIZ DE FORA-PJ-21PJ 14.960,00 3.889,60 0,00 0,00 0,00 0,00 1.201,80 3.055,00 23.106,40 4.011,30 5.444,55 0,00 0,00 9.455,85 13.650,55 30/09/2023
1034 432500 FERNANDA DE PAULA PINTO ANALISTA DO MP BELO HORIZONTE - COMARCA; PROC JUST ATUACAO TRIBUNAIS SUPERIORES-GAB004 17.559,01 3.511,80 0,00 0,00 0,00 0,00 0,00 3.055,00 24.125,81 3.483,56 5.606,83 0,00 0,00 9.090,39 15.035,42 30/09/2023
1035 431600 FERNANDA DIAS BARBOSA PEREIRA ANALISTA DO MP BELO HORIZONTE - COMARCA; BH-02PJ FAMILIA-SECRETARIA 17.559,01 3.511,80 0,00 0,00 0,00 0,00 0,00 3.055,00 24.125,81 3.516,98 4.412,77 0,00 0,00 7.929,75 16.196,06 30/09/2023
1036 162200 FERNANDA FERNANDES MONTEIRO ASSESSOR ADMINISTRATIVO II BELO HORIZONTE - COMARCA; BH-18PJ VIOLENCIA DOMESTICA-SECRETARIA 0,00 3.753,35 7.506,70 0,00 250,23 0,00 0,00 2.105,00 13.615,28 876,95 2.278,62 0,00 0,00 3.155,57 10.459,71 30/09/2023
1037 512800 FERNANDA FERREIRA BARBOSA MOREIRA ANALISTA DO MP IPATINGA - COMARCA; IPATINGA-PJ-05PJ 12.343,61 2.468,72 0,00 0,00 0,00 0,00 271,56 6.017,47 21.101,36 982,16 2.767,68 0,00 0,00 3.749,84 17.351,52 30/09/2023
1038 329200 FERNANDA GABRIEL GUZELLA OFICIAL DO MP BELO HORIZONTE - COMARCA; DIRET DE PLANOS PROJETOS E PROGRAMAS INST 12.343,61 3.703,08 0,00 0,00 0,00 0,00 0,00 2.105,00 18.151,69 2.348,42 2.882,06 0,00 0,00 5.230,48 12.921,21 30/09/2023
1039 324200 FERNANDA GEORGIA NEVES ZAHAN OFICIAL DO MP IPANEMA - COMARCA; IPANEMA-PJ-01PJ 12.343,61 9.874,89 0,00 0,00 0,00 0,00 1.477,27 2.105,00 25.800,77 4.470,64 5.946,03 0,00 0,00 10.416,67 15.384,10 30/09/2023
1040 548200 FERNANDA GONCALVES DE CARVALHO ZUZA OFICIAL DO MP TUPACIGUARA - COMARCA; TUPACIGUARA-PJ-01PJ 7.506,70 1.501,34 0,00 0,00 0,00 0,00 0,00 2.105,00 11.113,04 1.222,23 1.256,14 0,00 0,00 2.478,37 8.634,67 30/09/2023
1041 355400 FERNANDA HELENA BASQUES OFICIAL DO MP SABARÁ - COMARCA; SABARA-PJ-SECRETARIA 12.343,61 3.703,08 3.004,68 0,00 0,00 0,00 0,00 2.105,00 21.156,37 2.348,42 3.708,35 0,00 0,00 6.056,77 15.099,60 30/09/2023
1042 454800 FERNANDA IATAROLA BARBOSA DIAS ANALISTA DO MP BARBACENA - COMARCA; BARBACENA-PJ-08PJ 14.960,00 4.488,00 0,00 0,00 0,00 0,00 128,17 2.105,00 21.681,17 3.939,83 5.305,54 0,00 0,00 9.245,37 12.435,80 30/09/2023
1043 515500 FERNANDA LILIANE MARUGEIRO ANALISTA DO MP LAGOA SANTA - COMARCA; LAGOA SANTA-PJ-01PJ 12.343,61